GFSSE_250_spd_000.txt.gz
Wind_Speed
123 123 121 120 122 123 125 108 100 83 84 70 67 67 67 74 67 73 70 66 73 70 71 67 67 66 59 62 68 73 71 69 69 70 72 73 69 69 71 69 71 74 79
130 127 123 119 119 113 94 86 78 65 64 55 58 57 57 67 57 56 49 49 52 61 70 69 70 71 68 67 68 76 76 81 77 67 70 73 69 72 74 71 76 80 76
119 117 117 102 89 82 75 66 60 57 50 50 48 57 56 41 18 30 41 45 51 51 65 70 68 69 73 74 75 75 75 66 64 58 61 62 69 73 72 76 76 78 84
106 93 81 79 71 66 62 59 53 54 47 55 51 41 39 36 22 22 37 50 44 41 44 58 61 61 71 70 67 65 61 60 56 55 58 51 55 59 68 70 71 77 83
83 81 73 66 58 59 55 56 56 57 51 55 64 56 43 42 40 35 41 48 51 46 49 55 59 60 58 59 58 59 59 57 52 57 55 52 47 48 55 66 72 75 81
75 69 60 59 57 55 56 60 56 56 58 56 59 58 45 51 60 55 57 48 47 52 53 55 48 50 55 58 56 57 63 56 52 54 56 55 48 48 47 53 54 65 70
67 66 61 58 49 50 55 57 56 56 53 50 48 47 45 59 72 66 71 66 65 61 63 63 63 55 53 59 58 52 60 58 55 49 57 53 53 47 46 51 52 54 58
66 63 55 49 44 50 55 56 54 51 43 42 42 41 45 53 65 76 83 80 73 71 59 53 51 45 45 46 42 43 47 50 54 48 51 54 54 47 46 50 50 50 50
59 48 46 44 49 53 54 54 50 43 40 42 40 40 41 45 54 63 69 76 75 66 50 35 33 34 34 38 36 39 41 49 48 48 48 53 53 49 51 52 49 45 45
50 45 45 48 48 49 50 48 45 41 39 41 39 39 41 44 47 48 48 49 49 44 39 35 33 30 28 33 39 43 45 49 54 53 51 53 56 52 51 50 45 44 44
45 44 42 46 45 48 47 44 42 39 38 37 36 37 41 41 43 44 37 40 40 34 34 31 29 30 33 32 37 42 44 44 48 56 60 55 56 58 54 54 51 49 44
45 44 43 44 45 44 44 42 39 38 37 36 37 38 45 44 48 46 42 39 39 33 31 29 35 38 38 38 37 40 42 43 43 52 51 55 57 56 57 58 55 54 53
44 46 47 48 47 46 45 42 39 36 35 38 40 40 46 52 52 52 47 38 36 31 37 41 47 44 42 46 43 42 45 41 43 45 54 49 55 53 58 60 59 58 53
45 46 47 48 48 46 46 45 42 40 38 39 42 43 46 54 56 57 52 49 56 46 46 25 51 47 47 51 48 47 45 50 44 49 52 57 56 59 53 57 60 58 53
46 48 50 52 51 50 49 49 47 46 44 41 44 47 49 52 59 59 59 52 54 59 67 59 64 56 52 61 57 56 47 52 61 61 54 53 57 55 53 57 58 58 58
43 46 48 50 51 52 52 53 54 52 51 47 47 52 54 56 62 63 61 56 49 68 71 65 64 62 68 65 64 60 54 49 55 61 64 57 56 61 59 61 65 63 62
36 39 42 46 47 49 50 53 55 57 56 54 52 56 59 62 63 68 67 65 62 68 73 71 66 65 67 74 74 71 69 57 57 64 61 69 63 56 61 61 63 59 58
17 23 35 45 47 46 51 55 54 56 61 62 60 60 63 67 68 71 72 72 67 74 79 80 75 73 77 80 76 74 71 69 68 69 68 65 69 61 64 69 65 62 59
28 37 36 28 37 45 34 49 57 56 57 60 66 68 68 72 74 75 78 82 71 81 83 85 81 81 74 74 75 77 81 76 75 69 74 74 67 69 72 72 72 65 60
38 41 41 41 45 46 48 50 42 55 54 58 61 68 74 76 81 81 82 89 83 82 89 90 96 94 86 89 88 90 89 84 80 74 74 78 78 73 66 66 73 67 63
37 41 44 51 55 49 52 54 58 55 46 47 57 63 71 82 88 89 89 93 98 93 91 99 98 99 98 96 105 98 96 96 90 84 77 81 86 84 82 82 81 72 68
55 55 56 57 52 50 57 55 60 53 56 57 53 55 53 78 90 96 100 97 99 107 103 101 109 108 108 110 110 106 104 97 95 92 89 87 88 94 89 88 86 88 78
58 57 60 58 67 65 63 69 59 57 54 57 58 63 60 57 80 93 104 106 107 107 114 115 112 113 117 116 118 118 112 103 102 101 95 94 92 91 92 91 91 91 82
59 61 63 64 66 67 77 77 83 74 61 55 59 65 68 65 67 61 98 104 117 119 119 121 123 123 122 123 124 121 121 115 107 105 107 105 102 96 94 93 92 98 91
61 64 66 70 72 70 76 85 84 84 71 64 57 60 62 69 72 71 68 82 107 114 128 131 130 131 134 133 134 132 128 125 117 116 114 111 109 106 101 99 99 98 98
65 66 67 70 73 77 85 83 88 88 79 74 69 64 63 66 69 73 72 74 79 91 109 126 138 141 141 141 142 144 142 139 136 129 123 119 113 111 110 107 103 100 100

GFSSE_250_spd_003.txt.gz
Wind_Speed
125 129 128 130 127 124 127 124 115 104 100 91 81 77 82 66 63 59 64 61 63 58 50 50 51 54 58 55 61 64 61 65 67 67 70 68 64 60 57 58 69 77 77
131 128 129 129 126 124 116 99 95 95 90 80 76 76 62 53 45 54 53 46 38 40 39 45 52 56 56 55 62 67 62 66 64 64 67 73 69 66 64 63 62 71 78
129 133 129 123 119 103 95 87 86 80 76 72 73 59 50 34 31 32 36 41 25 42 39 50 49 55 55 55 62 70 69 69 70 69 74 69 72 72 75 68 67 72 71
133 125 115 99 95 89 80 76 74 70 69 66 57 53 40 36 35 37 38 38 29 46 36 47 45 44 48 51 59 67 64 68 70 73 73 78 75 69 57 58 57 68 74
113 102 92 91 78 74 74 70 65 65 64 60 50 53 40 35 40 47 42 44 37 29 35 46 53 51 53 50 49 51 57 58 63 67 73 68 66 60 44 49 53 56 58
92 84 81 77 78 72 68 64 61 59 60 57 52 51 47 42 46 46 41 41 36 18 32 48 59 60 61 58 54 51 49 53 53 57 56 60 59 52 56 50 50 47 49
81 77 74 73 72 69 65 60 58 58 57 55 52 50 52 47 51 59 48 46 39 37 25 56 63 67 56 57 57 54 54 54 57 59 56 56 55 55 54 51 48 50 47
74 72 70 71 66 63 60 54 52 52 50 52 50 46 48 51 52 66 59 54 59 55 56 59 66 67 73 69 61 58 57 55 59 61 64 63 58 57 54 57 54 49 45
67 64 63 63 62 58 55 49 48 50 53 49 48 48 45 48 53 59 73 77 75 77 63 62 53 68 64 62 54 55 48 47 48 52 51 56 60 58 53 55 55 51 46
58 55 56 54 52 50 45 44 48 52 46 45 48 48 52 54 53 61 71 94 87 83 71 70 60 68 67 60 50 39 36 43 45 46 47 50 56 56 53 51 55 55 51
48 46 45 43 42 41 43 46 46 43 44 47 50 49 49 51 53 56 69 87 103 96 89 85 78 63 62 56 49 42 38 34 41 48 49 46 51 53 52 48 50 51 52
42 42 40 39 39 39 40 43 43 45 45 46 46 46 48 49 48 53 62 81 96 112 110 101 96 80 66 57 50 42 43 34 37 41 50 50 56 58 57 51 51 54 54
41 40 40 39 40 41 42 45 46 48 48 48 48 47 45 46 48 51 59 69 82 92 99 102 94 86 68 56 49 49 45 46 41 35 46 48 52 56 59 56 56 55 59
36 38 40 43 44 45 47 48 49 48 48 49 49 49 47 46 50 52 60 64 69 74 78 73 70 67 63 52 55 49 48 53 49 47 41 50 49 52 57 66 65 58 54
34 36 39 41 43 45 47 48 50 51 51 52 52 53 51 49 51 56 60 64 64 67 69 68 68 69 60 59 60 53 53 53 58 49 47 46 53 46 54 57 51 55 58
28 31 36 35 37 41 45 47 49 51 54 55 57 58 58 55 53 58 61 67 67 70 73 72 71 68 65 66 63 63 66 58 58 59 57 51 51 52 52 54 56 58 61
21 26 19 20 24 32 36 38 43 46 47 51 56 60 63 62 58 60 66 71 72 75 75 76 75 75 76 70 70 65 68 67 62 61 64 60 57 61 58 58 59 61 59
31 33 31 26 35 30 23 25 31 36 32 40 51 54 60 67 66 64 69 72 79 78 83 82 79 81 83 84 84 80 83 81 75 74 72 66 61 69 67 69 65 62 68
39 40 40 42 40 41 38 39 36 29 39 41 38 43 57 63 70 73 72 75 81 86 87 87 89 83 86 87 90 90 90 89 83 79 81 73 72 63 73 74 79 72 65
38 37 38 40 42 43 43 48 47 45 39 40 42 50 52 60 70 75 81 82 83 88 91 93 90 87 87 88 94 93 91 92 93 88 85 82 81 80 74 72 76 81 77
36 37 38 38 40 39 40 43 48 52 56 56 52 53 51 48 55 61 77 90 90 92 97 97 99 97 93 91 96 102 94 93 96 89 93 92 86 86 83 76 79 79 77
41 42 43 41 42 43 43 44 51 55 58 62 64 62 60 51 58 72 72 84 96 99 101 102 106 105 98 96 101 105 99 100 98 93 95 98 96 94 92 87 80 81 83
48 53 57 54 55 56 60 59 56 61 64 66 73 73 72 65 59 63 59 67 85 98 105 111 111 115 112 106 102 112 112 110 109 106 101 99 100 99 100 96 88 84 82
59 59 61 64 65 65 66 70 72 67 68 71 77 81 87 77 62 61 64 67 69 85 99 115 119 121 122 121 117 114 115 119 118 111 112 111 111 109 104 102 99 91 85
65 67 67 70 73 76 74 77 78 78 78 80 82 90 92 86 70 62 65 66 73 74 82 98 123 125 130 130 131 128 120 122 127 127 122 120 118 117 116 112 105 99 94
65 71 73 75 82 82 84 84 82 84 83 84 87 91 93 93 77 68 64 67 69 75 80 83 101 115 135 136 137 141 139 129 131 135 130 131 129 125 123 121 118 115 107

GFSSE_250_spd_006.txt.gz
Wind_Speed
119 120 121 121 121 117 123 122 122 119 116 116 112 101 94 90 80 79 74 70 59 52 47 41 35 35 35 37 41 46 49 49 55 57 53 52 61 69 67 70 68 66 66
122 120 117 115 119 123 115 115 113 111 115 106 103 88 85 79 75 69 63 51 42 38 38 36 25 29 38 43 46 49 49 52 53 57 62 60 55 66 61 60 64 65 68
120 120 119 117 116 112 109 107 106 104 101 92 85 84 76 73 67 57 49 48 38 31 32 24 22 30 41 43 46 49 47 47 49 56 58 61 59 55 63 60 57 61 66
119 115 110 108 105 110 107 99 99 99 94 88 84 79 68 66 60 51 52 40 40 41 31 20 3 34 50 52 55 58 59 51 49 47 55 65 67 72 67 65 66 62 60
107 106 101 99 101 102 98 96 94 89 86 78 75 74 64 56 47 46 53 48 36 38 35 17 17 34 40 48 61 67 63 58 53 46 54 62 65 62 66 66 66 63 62
102 102 96 99 96 94 93 87 84 80 75 72 69 65 57 53 47 45 55 49 54 48 37 31 34 37 35 45 58 57 57 59 59 55 47 50 57 58 57 55 52 56 53
100 98 94 94 88 85 80 80 77 72 70 66 61 60 59 51 48 51 56 54 51 60 47 42 39 37 17 40 47 60 61 57 59 56 57 51 49 49 50 51 49 47 46
78 78 78 75 72 68 68 69 66 59 55 56 56 53 50 46 50 53 58 54 53 62 59 57 61 53 45 51 53 58 59 59 62 62 60 52 53 54 51 51 53 49 49
75 68 66 63 62 58 58 57 53 50 50 50 49 48 47 47 47 52 59 60 58 66 66 70 69 66 52 54 53 56 66 66 59 56 54 54 59 61 58 52 57 57 50
62 60 58 55 52 51 49 46 45 44 45 45 43 44 48 47 46 47 52 52 56 69 74 81 80 79 61 54 64 68 62 63 70 64 56 57 58 53 52 56 51 53 49
47 45 44 42 41 39 36 39 38 40 41 42 41 39 39 44 44 47 49 49 52 79 79 89 88 88 72 64 61 80 82 75 74 65 53 45 51 51 57 55 50 49 53
34 33 34 35 36 36 35 34 37 38 39 39 39 39 41 42 43 46 49 52 58 66 82 90 90 96 82 73 68 68 81 80 70 65 45 41 42 51 48 50 50 49 51
27 28 28 29 30 33 35 37 38 39 40 41 43 44 46 47 48 48 49 53 57 62 81 94 95 95 94 82 77 78 71 67 74 67 54 44 43 45 53 49 51 51 55
24 26 27 29 31 32 32 34 37 41 44 46 48 49 50 51 51 49 50 52 55 60 68 89 105 103 105 108 93 92 88 75 70 68 64 51 49 44 45 50 52 55 58
25 22 22 24 23 22 21 24 31 36 41 42 47 50 52 54 55 57 56 54 54 57 64 70 83 102 103 110 112 108 100 89 76 68 63 61 55 51 44 46 52 55 61
27 29 28 30 30 28 26 22 21 22 25 33 37 44 47 52 56 59 62 61 61 58 63 67 73 81 90 97 99 98 88 84 79 73 68 66 58 52 51 47 48 50 57
28 27 22 25 23 22 22 19 20 17 23 23 22 25 32 33 41 53 61 65 68 69 65 68 69 75 77 81 81 84 82 79 79 79 71 74 64 61 57 52 50 52 53
36 35 35 36 38 35 31 33 33 27 24 23 26 28 30 31 30 35 41 56 68 75 74 71 73 76 76 79 83 85 87 84 86 80 81 75 69 65 61 62 58 57 55
40 39 41 41 40 40 42 42 41 39 35 34 28 29 33 32 34 36 41 46 50 69 78 80 78 80 84 83 86 85 92 89 89 85 85 74 75 70 63 60 63 61 62
42 44 47 48 47 48 49 52 49 47 45 46 44 44 49 38 43 46 47 51 55 57 71 83 85 85 87 91 92 93 91 95 95 93 90 84 83 79 73 73 72 69 67
44 47 49 53 54 55 56 58 60 58 57 57 54 49 53 51 55 58 53 51 55 56 65 79 89 91 93 96 98 100 99 99 100 105 95 93 90 93 84 83 81 79 76
42 45 50 53 54 56 59 60 63 65 63 64 65 62 60 63 65 65 65 63 60 59 63 73 85 92 97 102 103 104 108 108 107 105 105 103 101 102 102 95 90 90 85
45 47 50 53 54 54 57 61 61 64 68 69 71 72 68 68 68 70 73 68 66 66 67 71 81 94 98 107 110 111 110 111 114 112 109 109 104 106 109 107 99 95 94
52 55 57 57 57 57 56 63 68 68 68 73 77 80 82 78 80 79 76 75 75 72 74 73 75 83 98 109 117 118 122 119 118 119 114 113 113 112 114 113 109 105 103
58 59 58 61 61 62 63 65 68 75 76 81 86 89 91 92 92 88 88 78 76 76 75 74 77 81 85 95 108 120 125 125 129 123 122 116 116 117 115 115 112 110 107
62 59 62 63 65 68 69 75 78 77 84 89 95 99 98 100 98 97 97 88 85 85 81 76 75 79 86 92 100 109 123 130 131 131 130 126 121 120 119 118 117 114 113

GFSSE_250_spd_009.txt.gz
Wind_Speed
120 118 118 122 126 125 121 119 122 114 116 111 107 110 107 103 103 97 98 90 86 85 80 75 67 64 59 41 38 38 39 41 42 40 41 41 42 40 49 61 61 56 55
120 122 122 123 126 129 123 119 113 112 114 112 106 106 103 100 97 96 88 83 75 72 70 59 54 50 42 33 32 34 34 37 44 44 39 41 41 41 46 48 53 58 57
131 128 126 123 120 119 118 115 111 109 105 105 102 102 102 95 96 82 82 77 70 68 59 52 49 31 30 40 33 36 37 39 40 40 38 37 40 41 44 48 48 50 59
124 125 117 117 113 113 104 108 101 97 103 99 98 98 96 95 84 77 77 69 60 59 56 56 53 31 20 16 37 39 43 40 50 49 45 44 45 43 46 51 52 52 50
114 110 110 105 104 99 96 98 96 98 97 95 94 93 89 86 79 71 68 62 54 52 55 56 46 36 34 29 43 49 39 42 52 54 48 49 49 46 48 49 54 55 54
96 96 96 90 91 91 88 89 86 84 83 79 79 77 76 67 65 65 59 54 49 53 54 54 41 40 39 34 28 35 46 46 53 56 56 47 50 46 46 46 53 56 58
96 98 85 81 86 89 85 75 71 72 68 64 67 66 59 56 54 51 51 47 45 52 45 52 47 49 45 48 41 28 30 52 57 57 53 48 46 47 46 46 42 44 48
83 79 76 80 78 73 77 69 64 62 61 58 54 53 50 47 43 45 44 44 47 50 44 54 57 57 53 54 56 47 54 50 54 58 55 47 49 51 49 46 48 48 45
70 73 68 63 61 58 53 48 47 47 46 45 43 40 40 38 40 43 43 46 51 50 44 59 61 64 62 59 67 69 62 57 56 58 57 59 55 57 52 52 50 51 56
56 51 47 45 43 39 36 37 36 37 35 34 33 34 37 35 35 40 43 47 48 52 53 60 61 74 70 67 71 76 72 68 61 59 60 59 60 60 55 50 54 56 51
34 34 30 30 32 31 32 32 30 30 33 32 32 32 33 33 36 38 40 44 50 53 54 59 63 68 82 81 74 70 71 76 63 64 56 62 64 59 55 59 60 57 52
23 23 22 22 23 23 26 29 29 30 31 34 32 34 34 32 34 36 38 38 43 49 50 53 63 71 78 88 84 85 76 76 70 63 57 53 63 62 56 57 61 58 57
15 15 18 18 18 19 18 18 22 27 31 35 38 40 41 42 40 41 43 45 45 46 48 52 56 77 81 89 92 92 95 96 81 72 65 63 67 67 64 60 58 57 57
24 23 22 21 19 16 15 17 16 17 20 22 26 33 39 43 45 46 48 49 50 51 53 56 57 70 89 92 95 97 103 103 95 85 75 69 70 78 79 72 63 56 48
23 27 30 31 30 34 32 29 21 21 18 21 18 20 25 27 30 40 44 48 51 53 58 59 61 66 71 94 98 101 103 107 107 93 88 79 77 77 74 75 71 55 53
32 33 30 31 32 31 30 32 28 24 26 17 25 22 19 23 23 25 31 43 49 54 57 62 65 67 69 74 94 103 104 106 110 104 97 83 82 83 82 81 78 69 52
37 39 38 36 34 34 31 34 34 32 31 32 34 36 35 34 27 30 29 28 33 45 53 62 67 71 74 75 76 88 112 108 110 111 110 106 99 95 87 87 81 84 73
32 35 38 37 36 34 36 36 38 37 35 38 41 39 39 38 39 42 37 38 39 41 47 56 65 73 77 80 79 78 87 89 88 89 104 109 111 104 91 85 86 88 81
36 36 37 37 37 39 38 38 38 40 42 42 43 46 46 47 51 51 47 48 48 50 49 53 54 62 74 82 84 84 83 85 86 83 86 88 97 100 100 100 93 87 83
36 37 36 34 36 36 38 37 36 38 40 40 42 45 50 54 59 61 62 63 61 57 54 57 60 62 64 73 82 89 89 88 87 89 88 91 89 93 94 99 100 88 76
40 40 36 37 36 39 40 40 42 42 47 50 53 53 54 57 62 65 68 67 68 66 64 63 63 65 71 72 74 83 92 95 92 93 95 94 91 94 96 97 96 95 92
41 42 39 41 40 43 46 50 51 50 54 57 58 58 60 63 67 68 73 76 73 72 72 71 71 67 72 79 81 82 88 97 102 98 100 102 101 94 96 100 98 99 93
47 48 48 44 46 47 50 54 57 57 59 63 63 62 63 67 72 76 76 81 83 82 80 79 77 76 73 75 84 85 86 90 101 108 104 105 107 108 104 103 102 103 99
50 52 53 54 57 59 61 60 63 65 65 66 70 72 72 76 81 85 85 89 92 92 87 84 81 83 82 78 81 89 89 91 95 104 112 109 111 112 113 108 106 105 105
53 57 58 61 66 68 67 65 65 64 69 73 75 77 81 87 88 91 98 97 100 98 88 85 81 82 83 82 82 84 90 89 91 99 107 117 115 115 118 116 112 112 111
56 60 66 68 69 71 73 73 73 72 75 77 80 81 91 94 95 98 107 104 110 101 93 86 83 80 78 79 77 77 82 87 89 93 99 113 120 119 121 122 120 116 114

GFSSE_250_spd_012.txt.gz
Wind_Speed
116 119 122 122 120 120 120 122 121 117 113 114 112 114 111 104 107 103 101 97 96 91 83 85 83 79 73 73 75 70 68 59 57 49 48 48 48 42 44 49 50 51 52
122 119 114 120 124 124 121 119 119 113 107 103 107 105 103 102 100 99 91 91 90 85 82 80 81 71 69 66 63 63 64 52 44 48 47 41 43 41 42 43 47 53 52
125 125 128 124 125 117 113 113 106 97 97 94 95 98 99 96 91 90 89 88 82 79 77 77 73 63 61 60 62 58 48 44 41 36 37 35 33 36 39 44 48 48 58
126 129 129 124 119 108 104 102 101 96 93 89 89 85 83 81 82 83 79 81 71 69 66 69 63 53 56 56 60 56 47 44 42 36 33 35 39 33 39 34 43 45 47
132 123 118 111 102 99 97 96 94 91 89 79 80 76 77 73 70 70 67 69 57 57 58 56 55 51 56 51 53 47 42 41 45 41 41 39 34 38 38 39 39 43 47
124 113 104 97 99 96 97 90 83 81 73 78 79 74 68 65 61 60 58 51 53 47 51 48 55 56 52 43 45 47 36 45 48 49 45 38 40 43 42 39 41 43 43
105 102 99 94 88 83 79 74 74 73 74 69 66 62 57 51 51 50 46 45 47 45 49 51 54 58 55 48 48 47 44 47 53 49 47 41 43 46 49 47 44 49 46
87 81 72 72 67 65 67 69 69 65 60 55 52 51 46 43 41 40 41 41 43 45 47 50 54 54 53 53 56 54 48 45 49 52 54 56 50 56 52 51 45 47 46
68 58 52 53 57 53 50 50 46 40 35 35 35 34 34 36 36 36 37 38 40 44 46 54 54 51 51 55 66 58 49 44 50 47 52 61 58 57 58 52 49 44 43
46 42 44 44 39 34 34 32 28 28 28 25 27 26 26 27 27 30 31 35 38 42 47 48 50 54 52 58 68 63 62 56 58 62 56 63 60 59 56 55 50 41 43
30 33 32 29 26 25 23 22 20 22 22 23 26 26 27 28 28 28 28 32 35 39 41 48 51 51 54 54 63 65 72 65 60 64 62 60 61 62 64 57 54 58 51
7 10 14 18 20 17 16 15 16 18 20 22 25 28 29 32 34 33 33 33 36 39 41 46 50 50 57 67 68 70 74 77 73 70 73 72 67 69 61 61 56 60 53
21 20 24 28 28 30 27 28 27 27 23 23 26 25 25 27 30 33 35 37 39 40 42 45 49 51 54 60 74 78 81 82 80 80 74 72 78 75 67 66 59 57 56
28 29 29 28 28 29 29 23 20 21 21 22 21 24 24 28 32 32 32 32 38 43 47 49 51 53 56 59 66 75 83 86 87 89 86 80 72 74 79 75 73 62 57
27 26 24 25 24 22 22 21 20 19 18 16 17 20 18 17 22 27 29 32 34 35 40 45 52 58 59 62 64 65 81 88 93 95 93 91 86 82 76 84 82 75 64
21 23 23 22 21 20 20 23 22 22 22 20 23 22 27 26 24 23 25 25 28 33 37 41 44 51 57 64 68 69 70 86 94 97 99 100 96 95 90 84 80 82 73
26 27 27 25 25 24 24 23 22 23 25 27 27 27 30 32 34 36 38 37 39 37 33 34 40 46 52 57 64 70 76 75 88 94 96 98 105 106 104 102 100 92 82
29 28 27 25 27 27 27 28 27 28 32 33 33 35 38 40 40 40 41 41 43 47 48 49 49 45 48 55 62 63 72 81 83 92 86 90 101 109 111 109 110 103 105
28 30 30 29 29 31 31 32 34 36 38 37 39 40 41 41 41 39 43 45 47 50 52 54 56 56 55 51 54 61 69 74 83 90 88 94 89 93 106 115 121 118 113
30 31 32 32 31 34 34 36 40 44 45 44 45 46 46 49 49 47 48 50 52 57 59 60 62 64 63 60 59 58 63 68 77 84 92 96 92 88 88 106 108 115 117
33 36 35 38 37 36 39 41 44 45 44 44 44 44 45 49 52 51 51 52 57 62 64 66 71 72 74 71 75 66 66 68 72 79 85 91 100 97 88 88 98 101 108
39 42 42 41 39 38 40 44 44 46 48 51 53 55 56 57 58 58 60 60 65 71 73 75 79 81 81 80 79 75 71 72 74 78 83 88 93 98 102 94 94 96 96
46 48 48 47 44 43 48 50 51 55 60 63 64 65 66 64 66 68 70 73 74 74 79 82 86 89 90 88 88 82 76 74 78 83 84 88 92 95 98 105 102 99 100
54 55 56 56 57 54 60 61 60 62 68 69 68 69 71 70 72 74 74 77 79 83 83 87 92 93 93 95 91 85 79 76 79 82 90 93 95 95 98 98 107 107 106
55 58 61 66 68 67 68 71 70 71 72 73 76 77 80 81 83 85 87 88 89 92 93 96 98 99 99 98 94 89 84 82 80 82 84 96 97 98 97 100 100 110 111
58 62 67 70 69 72 73 73 75 78 77 79 81 84 88 89 92 95 98 99 99 101 102 105 104 104 102 95 91 85 82 84 85 82 76 86 96 100 98 99 102 100 114

GFSSE_250_spd_015.txt.gz
Wind_Speed
103 107 115 116 118 120 118 114 117 121 126 121 120 117 106 107 101 99 94 92 92 93 91 90 87 87 84 75 76 72 70 70 67 65 63 65 65 66 66 62 48 57 61
117 121 123 123 120 121 123 120 117 120 119 117 114 107 103 98 100 94 91 85 85 89 88 87 79 80 78 75 70 65 64 60 60 60 61 59 46 53 52 57 51 53 56
124 126 127 127 130 125 122 117 116 116 113 111 110 105 101 92 94 91 89 88 83 79 80 76 71 66 65 65 58 55 56 54 55 57 59 54 42 42 45 47 44 47 54
125 128 128 127 121 118 118 118 113 110 111 106 100 100 98 95 93 91 86 76 66 68 67 62 61 62 56 58 54 51 51 51 54 58 57 56 49 44 47 44 46 46 54
129 124 128 122 119 117 111 111 101 95 96 95 91 84 81 76 74 68 71 72 67 66 64 59 56 57 52 55 52 52 52 53 50 54 54 53 52 41 44 42 40 45 48
122 120 115 112 106 99 93 85 82 79 71 72 64 64 66 71 69 71 63 58 61 57 55 51 50 50 50 52 53 52 50 53 49 54 52 52 50 45 44 38 40 41 46
119 115 107 97 91 79 75 66 67 60 60 61 63 64 60 60 58 58 56 52 52 53 49 48 47 50 52 51 53 50 52 58 56 57 54 53 51 51 48 46 44 38 42
103 86 78 70 67 61 62 58 57 56 58 56 50 49 48 47 46 44 40 41 44 46 45 44 44 47 50 52 54 54 51 54 53 56 50 52 53 55 59 47 46 43 47
56 57 55 51 47 48 46 44 44 47 45 43 40 37 34 33 32 31 30 31 34 38 40 41 43 46 49 51 55 55 54 55 54 53 52 53 54 56 60 66 48 49 51
42 38 33 32 31 30 29 27 27 29 28 27 25 25 26 26 26 28 28 30 31 31 33 35 40 43 47 49 49 54 54 58 63 56 61 55 59 57 57 57 60 57 60
24 20 16 16 14 11 9 9 8 9 11 12 12 14 16 18 20 24 27 28 28 29 32 33 37 39 43 47 49 53 53 58 64 64 58 56 60 57 53 56 55 56 54
4 11 12 15 12 7 5 6 7 12 20 21 20 25 24 25 27 25 22 21 22 28 33 35 38 40 43 47 46 50 54 58 66 68 62 59 53 63 60 57 57 59 61
17 22 21 19 22 23 22 23 22 23 22 22 21 22 21 22 24 23 28 25 24 22 20 26 37 41 43 45 49 49 59 63 65 68 65 68 62 58 64 71 64 63 54
23 23 21 20 20 22 23 23 21 20 18 15 15 16 15 16 17 18 19 24 25 26 25 22 20 23 35 45 46 47 54 61 65 68 72 73 75 69 60 63 70 72 66
20 19 18 17 16 17 19 21 19 18 17 19 19 16 19 20 20 22 25 25 25 23 22 23 24 25 27 30 35 46 51 59 70 75 77 78 82 80 76 71 65 70 69
19 17 18 19 22 22 22 23 23 24 26 29 29 28 26 26 28 29 29 31 31 27 28 28 29 25 20 21 25 32 40 51 63 71 78 83 85 86 88 82 78 72 72
19 21 21 23 24 22 25 27 25 26 29 33 34 32 30 31 33 34 34 34 32 33 33 35 34 35 36 37 34 32 30 37 47 59 74 81 86 86 92 93 91 88 83
25 26 28 26 26 26 26 28 31 33 34 35 35 34 33 34 36 35 37 38 40 42 40 39 40 42 44 44 44 44 44 43 40 46 54 67 81 89 84 94 99 102 101
28 29 32 34 36 34 33 32 33 36 37 38 39 39 40 42 44 45 46 46 45 48 49 50 50 50 54 55 53 53 55 55 54 52 50 58 66 75 86 87 91 103 107
35 33 36 38 39 39 39 40 40 42 45 46 47 47 50 52 52 50 51 50 51 52 55 57 59 61 63 65 64 63 63 63 62 61 61 58 66 67 74 84 91 90 98
38 41 41 40 38 39 41 46 50 53 55 54 55 53 54 56 55 56 58 59 59 59 62 66 66 67 68 69 71 69 71 70 71 67 67 67 70 75 77 78 85 92 94
43 45 47 45 44 44 47 52 57 59 60 61 62 60 59 61 63 63 65 65 66 68 70 72 74 76 78 80 80 82 81 80 77 77 72 73 74 75 82 86 85 88 95
52 54 55 55 56 57 57 60 61 63 62 64 67 68 68 69 70 71 74 75 78 80 81 80 81 85 88 89 89 89 89 90 90 86 82 85 81 82 84 91 93 92 91
54 57 60 61 64 67 67 66 65 66 67 68 69 74 79 80 80 82 85 87 88 89 89 89 90 91 93 96 99 100 102 101 96 90 93 91 88 86 86 90 98 98 97
56 59 60 63 66 68 70 70 71 74 76 79 82 83 86 88 89 91 94 96 97 98 99 100 101 102 103 105 105 103 104 101 98 95 85 95 90 87 88 90 97 100 100
57 60 63 65 66 69 71 75 77 80 82 84 88 92 95 97 98 99 101 104 106 109 109 109 109 106 104 104 101 100 100 100 96 93 90 81 86 91 90 91 95 99 102

GFSSE_250_spd_018.txt.gz
Wind_Speed
107 108 112 114 114 117 120 129 126 117 124 125 116 114 113 105 111 105 103 97 96 98 94 93 89 88 86 85 84 82 79 77 77 71 65 64 63 63 65 65 64 62 58
112 112 114 119 118 120 122 124 127 127 120 116 116 111 105 106 108 98 99 91 94 91 89 86 85 82 80 79 80 78 76 73 69 64 59 57 58 58 59 59 62 59 57
108 114 114 113 117 126 126 121 119 117 110 114 110 108 109 103 101 89 83 80 78 76 74 74 75 75 73 69 73 71 69 65 63 56 54 54 55 57 55 55 60 58 54
119 119 118 122 121 115 121 115 115 117 112 113 107 98 92 88 76 77 72 67 65 63 59 58 61 55 61 58 64 62 60 59 55 49 48 50 53 58 57 50 50 51 52
120 127 129 125 114 117 111 116 114 116 98 87 84 78 75 70 66 61 58 55 52 55 54 56 56 59 60 61 63 62 58 51 46 45 42 45 51 59 56 58 52 52 49
132 128 129 117 114 115 107 103 82 81 72 69 71 63 63 62 59 59 57 61 59 63 61 62 58 54 52 55 59 62 58 50 45 46 47 44 57 53 58 57 58 51 51
130 127 117 109 102 86 77 67 64 59 54 55 53 53 53 54 52 50 50 47 47 47 51 54 55 58 56 55 54 53 51 46 44 45 48 51 52 58 59 57 60 55 56
109 109 92 78 66 65 58 51 47 43 39 38 39 39 41 42 41 40 37 35 35 35 37 38 42 45 47 50 48 47 49 45 45 44 50 56 56 57 56 61 57 59 58
87 72 62 55 54 50 45 40 37 36 31 30 30 30 29 29 30 30 30 29 28 27 29 30 31 35 37 37 38 41 46 47 46 46 48 58 57 57 53 54 56 54 59
55 49 42 40 35 30 25 22 20 21 21 18 16 17 15 13 12 14 17 21 25 27 28 29 30 32 32 33 34 37 41 44 48 48 55 59 57 57 57 56 53 55 55
30 22 16 12 11 9 8 8 7 10 13 6 7 11 9 8 12 10 10 12 11 13 20 25 28 30 32 32 33 33 34 42 47 48 49 62 59 63 60 60 54 59 61
7 7 6 10 9 12 14 14 13 14 17 18 20 19 18 20 21 22 21 22 19 15 13 10 14 23 28 31 32 35 35 39 42 44 45 55 62 63 57 62 57 58 58
8 10 13 15 17 18 17 15 14 14 16 19 21 20 22 21 23 23 24 28 25 26 24 20 18 14 12 17 28 31 33 35 41 43 45 48 62 63 63 63 67 57 57
17 19 23 25 27 25 24 23 22 20 21 24 26 28 27 26 28 27 27 28 29 27 26 24 24 22 23 21 17 20 28 35 39 44 47 49 54 67 66 66 69 74 64
18 19 22 25 26 24 26 28 27 24 25 27 30 31 30 31 30 32 32 33 31 31 30 28 25 24 23 23 23 21 21 24 30 40 48 53 55 61 71 68 71 66 69
15 17 20 21 21 23 25 26 29 29 28 28 28 29 29 28 30 30 33 35 34 34 36 34 34 33 30 27 27 27 28 26 26 28 35 47 57 64 66 72 71 77 70
19 20 20 22 26 30 29 28 28 28 29 30 32 33 34 34 34 35 37 39 39 40 39 38 39 39 39 37 38 37 35 36 37 35 33 35 44 58 67 73 78 84 80
21 23 21 23 27 31 30 31 30 33 36 37 40 44 43 43 44 45 45 42 42 42 43 44 43 43 45 45 48 48 50 49 47 45 45 46 42 42 55 70 79 85 91
24 28 29 33 36 40 41 40 40 43 46 48 49 50 48 48 49 51 50 52 52 51 52 52 52 53 54 54 54 56 56 54 53 52 52 53 52 53 52 50 67 78 88
40 41 44 46 45 46 48 48 49 50 51 54 55 54 55 54 56 57 57 57 59 60 61 63 64 63 63 63 64 66 65 65 64 64 63 62 60 58 58 61 64 67 79
45 48 47 48 48 49 51 52 54 57 58 59 60 60 62 63 65 65 66 68 69 69 70 71 71 72 74 75 75 77 76 75 74 73 73 71 69 67 65 63 63 70 73
48 48 49 49 51 54 55 57 56 57 58 61 65 66 66 68 68 69 71 74 77 79 81 81 81 81 82 84 83 84 83 83 83 83 82 80 78 77 76 75 76 74 73
48 50 52 54 57 58 59 59 62 64 64 66 70 73 76 78 79 80 82 84 87 90 91 93 93 92 93 93 94 94 92 92 94 94 92 90 88 87 86 86 85 82 81
52 53 55 58 60 63 65 67 67 69 72 76 78 80 83 85 88 92 95 97 98 100 100 98 99 98 98 100 100 104 105 101 100 99 97 97 95 93 92 92 92 90 88
52 55 58 60 62 66 70 73 75 76 80 83 87 89 92 94 96 97 102 104 106 108 107 108 107 105 104 103 103 103 102 103 103 98 93 99 99 97 96 95 94 94 93
57 60 63 67 69 73 79 82 83 85 87 89 90 93 96 97 101 105 108 107 107 107 107 108 104 99 93 93 95 95 93 95 98 99 94 95 100 102 103 100 100 98 98

GFSSE_250_spd_021.txt.gz
Wind_Speed
104 103 103 104 105 105 109 113 113 107 111 111 112 116 117 117 112 113 105 102 98 103 99 96 93 100 95 89 90 90 88 83 81 79 77 74 74 73 69 67 61 61 60
108 112 112 116 112 114 111 120 116 116 119 123 122 112 114 114 114 105 103 95 92 90 87 86 88 86 81 78 82 79 75 75 72 76 73 68 69 68 66 61 55 56 56
105 110 113 112 117 125 123 127 123 125 124 115 111 110 107 105 98 88 87 78 77 77 78 75 71 71 68 66 66 69 69 65 67 67 68 64 64 61 54 53 54 52 54
109 112 112 114 120 124 126 123 119 114 109 107 101 104 99 88 75 69 69 68 69 58 58 61 59 57 55 54 53 52 54 53 53 56 55 56 55 53 53 53 52 50 50
113 116 122 123 124 119 115 114 111 108 95 87 79 73 70 67 65 55 51 46 51 55 58 57 57 56 57 54 51 50 52 54 55 54 50 51 51 52 53 53 53 50 50
126 126 124 121 113 110 110 99 90 85 70 64 62 59 56 52 48 45 43 46 47 51 49 52 57 58 58 58 60 56 51 50 50 52 54 52 46 50 48 48 50 54 56
118 115 111 111 104 89 86 75 69 60 54 47 43 40 39 34 32 32 33 33 33 34 34 35 36 41 44 47 48 49 50 49 50 49 50 54 52 46 40 46 50 55 49
106 110 100 93 76 63 61 54 50 45 39 35 32 30 28 27 26 27 26 24 25 27 29 28 28 30 33 35 36 37 40 43 45 45 46 50 51 49 46 44 56 61 55
87 81 70 59 48 44 41 36 33 28 25 23 23 21 19 16 17 19 16 15 17 21 25 26 26 27 28 28 29 30 31 34 37 41 43 45 45 49 49 44 56 60 59
63 62 51 43 38 33 31 26 21 21 20 15 16 14 15 12 12 11 12 12 12 14 16 20 24 26 25 26 26 26 25 29 31 34 39 45 43 45 49 46 56 62 60
40 35 29 25 23 23 22 19 18 17 17 18 22 21 22 23 24 22 20 21 23 23 20 16 16 20 26 27 26 26 25 26 27 31 34 39 43 45 48 51 60 59 59
20 13 16 20 24 24 21 22 23 21 22 22 22 23 25 26 26 26 26 26 28 29 25 21 17 15 17 17 24 27 27 27 28 29 34 37 43 43 49 55 54 57 58
11 16 18 21 19 17 19 22 22 21 22 23 25 26 26 26 27 26 27 26 26 27 27 27 26 21 19 17 15 15 20 29 31 31 33 37 41 43 46 55 58 61 61
16 15 13 14 16 20 24 25 25 24 23 23 23 24 25 26 26 27 27 27 27 29 30 30 29 27 25 26 25 20 18 17 22 32 35 35 41 43 46 52 65 61 63
9 14 21 24 26 29 32 32 28 26 26 26 26 27 29 32 33 33 32 31 31 32 33 33 33 32 32 33 31 29 27 24 21 21 26 36 40 43 45 51 61 70 69
17 21 22 22 24 27 32 33 33 34 33 32 33 36 39 39 40 39 38 39 38 39 39 36 36 37 37 36 36 37 36 35 33 32 30 28 31 43 47 52 57 59 72
24 23 25 27 27 31 34 33 35 38 40 41 43 44 43 44 46 46 46 45 44 43 44 45 45 44 43 43 42 42 42 42 44 43 42 38 36 37 41 53 57 61 65
28 26 22 26 33 35 36 39 40 42 45 47 48 49 49 49 48 50 51 51 52 54 54 55 54 54 53 52 53 53 52 50 49 48 50 49 47 47 44 44 50 61 65
36 37 37 37 38 41 43 41 44 46 48 50 49 49 49 50 51 53 55 56 57 58 59 60 61 61 62 62 62 62 62 62 60 59 58 57 57 54 53 52 53 55 63
38 39 44 43 43 43 44 44 47 48 50 50 52 55 57 58 58 58 60 62 63 64 66 66 67 69 71 72 72 71 70 70 70 70 69 69 68 66 62 62 60 58 60
43 44 46 47 48 48 47 48 50 51 55 57 58 62 63 63 64 64 65 68 69 70 71 73 74 76 77 80 80 82 83 82 80 80 79 79 79 77 74 71 69 69 68
49 47 46 47 48 49 52 55 57 60 62 64 65 64 66 67 71 72 75 78 81 81 83 86 87 87 86 88 86 87 87 89 90 90 86 85 86 85 83 81 78 77 76
50 46 47 50 53 56 59 61 63 66 67 67 68 69 72 73 76 79 83 86 88 90 90 93 96 95 95 95 94 92 93 91 93 92 93 92 92 91 92 91 90 88 86
54 52 56 57 59 61 64 67 70 71 71 73 74 75 79 83 86 89 92 94 96 99 100 101 102 102 102 102 99 100 95 93 92 94 96 95 94 96 98 99 97 98 97
51 56 58 60 63 67 70 74 74 75 77 77 79 84 90 92 92 96 100 101 101 105 105 102 102 102 102 101 99 96 94 94 95 94 93 94 93 95 97 101 104 104 107
54 56 59 64 67 71 73 77 80 82 82 83 88 92 93 96 99 103 106 107 107 111 105 100 99 99 99 99 98 93 90 90 87 88 91 91 90 93 96 98 99 102 107

GFSSE_250_spd_024.txt.gz
Wind_Speed
92 88 95 100 98 96 101 105 110 114 112 111 114 112 114 117 115 113 110 107 108 107 102 103 95 91 87 87 86 86 90 85 83 83 86 87 87 82 79 74 75 75 64
92 96 99 105 105 106 106 108 109 113 119 110 116 109 107 111 111 107 101 96 93 90 85 84 78 79 78 76 75 77 77 75 77 76 81 80 81 78 75 72 68 66 65
97 103 109 112 111 112 118 121 121 112 113 111 112 106 106 98 91 87 83 81 79 76 73 71 70 69 65 69 70 73 74 75 74 72 76 77 77 72 68 65 66 64 61
102 109 114 116 114 117 119 115 113 108 105 103 96 95 87 81 75 68 67 64 57 55 54 54 55 52 52 57 59 57 54 52 56 58 62 65 66 69 64 63 59 60 56
114 116 116 113 111 116 114 109 107 98 95 89 80 80 72 62 62 54 50 49 44 48 48 48 48 51 52 55 55 53 48 42 43 43 43 50 53 54 53 57 55 49 48
111 110 111 110 111 107 106 103 91 77 68 65 57 56 53 46 44 41 38 38 42 44 43 43 44 40 41 45 49 52 51 53 52 52 49 48 46 48 45 48 49 47 52
109 105 103 102 98 89 79 75 65 52 41 37 33 29 27 27 28 29 28 28 27 27 30 32 33 35 34 35 35 36 39 44 47 48 48 48 48 47 46 43 50 55 54
102 94 94 89 79 76 61 49 33 24 20 18 17 20 21 24 22 22 21 22 23 23 25 27 29 30 28 27 27 26 28 31 34 37 41 45 44 45 49 47 51 55 51
95 83 80 68 53 45 26 24 21 21 22 22 21 20 17 18 22 18 20 20 22 21 22 24 24 25 28 30 29 28 24 22 28 31 34 38 42 43 45 47 53 54 51
78 70 53 39 23 21 17 17 18 19 18 19 18 19 20 22 22 21 20 20 18 18 17 16 15 16 22 22 25 28 27 25 25 26 28 32 38 42 45 45 52 57 52
51 38 22 16 13 13 13 18 20 20 21 19 18 19 19 21 21 22 22 21 21 20 22 21 20 20 17 16 17 20 23 27 26 25 26 27 32 35 40 44 52 55 52
24 17 9 9 12 14 18 20 19 18 18 20 21 22 20 20 21 23 25 26 26 25 23 22 21 22 23 23 19 18 20 20 26 29 28 28 28 31 34 42 49 59 54
12 9 7 8 9 12 16 18 20 22 23 23 23 23 24 25 26 30 32 32 32 32 31 32 31 30 28 25 24 23 22 22 20 24 31 31 33 32 36 40 46 47 55
12 7 7 9 12 15 20 25 29 28 27 28 29 30 31 35 35 34 34 35 35 36 36 36 36 36 34 33 30 30 31 29 26 23 24 29 34 35 37 39 45 47 51
12 11 16 17 19 20 24 29 32 34 34 34 35 35 36 37 38 39 40 39 38 38 39 40 40 40 41 41 39 36 33 34 35 32 31 27 26 33 40 39 44 51 54
18 21 22 29 29 32 34 36 37 39 39 38 38 40 41 41 41 40 40 40 40 40 40 40 42 44 45 45 45 44 43 41 39 38 39 39 36 35 32 39 43 49 55
27 29 31 34 31 36 38 39 38 40 40 41 41 42 43 43 42 43 46 48 50 52 52 52 52 52 51 51 51 50 50 49 47 47 46 44 45 45 42 42 37 46 52
34 37 33 32 33 37 39 40 40 41 42 43 45 47 48 46 49 52 53 54 54 54 56 57 58 58 58 59 59 58 58 58 58 57 55 53 52 51 52 51 49 47 47
29 32 33 36 41 43 44 44 44 43 43 47 50 50 52 55 55 57 59 60 61 61 62 62 62 62 63 65 65 66 67 68 67 67 66 64 62 60 59 59 57 57 56
34 35 37 40 42 41 40 42 45 48 50 52 53 56 58 60 63 65 66 67 67 66 66 66 69 71 72 73 73 73 75 75 74 75 76 75 73 72 69 66 68 65 63
39 40 42 43 42 41 44 47 49 52 54 56 59 62 65 68 68 69 69 67 68 71 76 79 79 79 79 82 83 82 80 80 87 86 84 82 81 79 77 79 76 75 73
45 47 46 42 44 48 51 53 54 56 60 64 66 68 70 71 73 75 75 76 79 83 84 85 88 91 92 93 91 93 86 86 87 90 92 91 89 88 87 85 85 84 84
47 40 43 48 51 54 55 57 61 64 68 70 72 73 75 76 76 77 80 83 87 92 93 94 99 104 104 104 102 99 96 91 94 90 89 97 93 92 93 93 92 91 91
44 47 50 52 53 56 59 62 66 67 70 74 76 79 81 85 88 90 93 96 98 98 99 100 105 108 107 105 109 106 102 101 97 95 92 92 95 93 91 94 100 99 98
48 50 50 54 57 60 63 66 69 70 73 77 81 83 81 81 83 96 99 104 107 108 108 110 111 107 106 103 104 105 104 97 101 98 97 97 91 94 91 91 94 98 101
48 51 56 59 62 65 67 71 74 77 79 82 84 84 88 94 99 106 108 113 122 123 116 113 109 106 105 101 100 101 101 99 94 97 97 98 99 89 87 88 90 94 98

GFSSE_250_spd_030.txt.gz
Wind_Speed
81 83 85 82 88 94 95 100 102 102 106 109 112 114 115 116 114 109 108 105 106 106 106 102 101 92 91 91 88 86 87 87 88 87 79 76 69 63 65 83 86 89 95
82 87 88 91 96 100 101 103 106 109 111 114 117 116 109 105 110 103 112 105 103 101 91 84 82 77 73 80 77 73 76 69 63 68 68 65 65 61 65 76 87 92 82
84 88 92 92 96 104 106 107 110 112 114 116 113 109 106 103 102 105 101 90 81 79 77 69 68 63 64 65 64 66 66 63 61 63 58 55 52 60 60 64 65 58 59
88 92 93 97 103 109 111 114 114 115 116 110 102 103 101 103 98 90 80 73 65 61 56 51 51 51 48 48 51 48 50 48 48 50 60 63 62 61 62 61 63 62 59
93 97 99 104 109 114 117 118 117 119 104 95 97 95 92 84 71 57 50 39 29 27 24 27 28 27 30 33 34 36 39 41 42 41 45 49 48 66 71 69 63 61 64
97 101 107 110 113 117 119 111 103 98 97 94 90 78 57 40 30 27 17 11 10 12 11 10 13 15 17 16 17 19 24 27 28 31 34 41 41 57 53 56 66 75 76
103 106 107 111 113 108 102 97 95 91 85 76 61 45 30 23 19 18 16 17 19 21 24 24 25 22 22 19 19 21 21 18 19 21 22 28 31 40 48 51 50 54 55
104 103 102 101 105 99 92 91 86 79 62 52 36 24 19 17 17 17 19 20 22 24 24 24 23 25 26 27 27 26 25 24 22 18 17 20 20 28 36 47 46 48 50
105 106 110 105 95 88 84 77 62 52 38 24 20 17 16 16 16 18 21 24 25 25 25 24 24 24 25 25 28 29 29 29 28 24 23 18 18 20 25 36 48 46 46
107 105 97 87 77 77 60 52 41 26 23 19 18 19 19 19 21 22 25 26 25 25 25 25 24 24 24 25 25 27 29 30 30 30 30 24 20 17 19 24 35 46 48
101 90 82 77 67 52 41 28 22 23 22 20 19 22 24 25 26 28 27 28 28 28 28 28 26 25 25 25 26 27 26 28 29 30 32 32 29 22 18 20 23 35 44
81 74 68 64 38 32 28 24 23 25 25 24 27 28 28 29 29 30 31 30 30 30 31 30 29 28 28 27 29 28 27 27 27 27 29 34 30 30 25 18 21 26 36
70 62 48 37 30 25 25 28 29 31 29 32 32 35 35 34 34 33 36 34 34 35 32 34 35 36 34 35 35 38 38 36 34 32 29 31 29 31 31 29 22 24 27
49 37 27 24 26 29 32 34 36 38 37 36 41 41 39 38 38 39 39 37 39 39 40 39 39 41 43 43 44 45 43 42 41 39 36 36 36 31 32 33 33 27 25
34 30 25 28 31 34 39 41 41 41 40 40 41 42 43 44 44 41 42 42 43 44 45 45 45 46 47 49 49 48 46 45 44 44 41 43 44 41 38 36 36 36 32
30 27 27 32 36 39 40 37 37 39 39 42 42 42 42 43 43 45 46 46 47 47 48 50 50 51 51 52 53 52 52 51 48 46 46 42 45 46 46 45 43 41 40
30 29 34 35 40 41 41 41 43 44 43 44 43 41 44 48 48 49 48 50 52 55 56 54 54 54 54 56 57 56 55 56 54 52 54 55 52 52 49 50 51 51 48
34 35 36 38 38 43 39 43 44 45 46 43 42 44 50 52 50 55 56 58 59 58 58 60 60 59 61 62 63 62 61 60 59 60 60 60 60 60 60 59 55 55 56
36 33 35 38 41 46 44 47 42 43 44 47 50 50 53 56 59 61 62 62 62 63 64 65 65 63 64 66 66 67 62 60 65 64 66 68 69 66 62 66 64 66 63
35 35 41 41 42 41 39 43 47 49 51 51 53 54 59 61 63 64 65 67 68 67 66 67 69 71 74 75 74 72 71 76 74 74 75 75 78 79 79 74 75 73 78
36 40 45 44 45 45 49 49 51 52 52 55 58 58 63 63 65 65 65 67 69 70 72 75 76 77 80 86 87 86 82 83 84 84 83 82 84 84 87 89 85 85 81
39 44 45 46 48 52 53 53 55 57 61 63 64 63 66 66 68 71 72 75 76 78 82 84 85 86 87 91 91 92 91 90 95 95 96 97 97 99 98 98 95 95 94
45 47 48 50 53 56 56 57 60 62 64 67 70 71 68 70 75 79 80 84 87 89 91 93 94 97 96 96 101 103 100 97 97 101 106 108 110 110 109 106 101 100 101
49 51 52 54 56 59 63 64 63 64 69 72 74 76 77 84 87 90 92 94 95 98 99 101 104 107 110 107 108 110 113 115 114 111 113 115 119 113 113 108 104 99 97
51 53 56 58 59 60 67 68 69 72 75 77 79 83 87 90 93 97 100 102 104 108 110 109 113 115 117 117 118 120 121 123 125 122 109 110 112 111 105 101 98 98 93
53 56 60 62 66 67 67 71 74 77 79 82 85 89 92 96 100 104 108 111 114 117 119 121 124 125 125 127 128 127 122 120 117 111 103 91 90 94 98 93 92 91 91

GFSSE_250_spd_033.txt.gz
Wind_Speed
75 74 78 82 84 87 90 92 91 92 95 98 103 109 111 112 117 116 107 100 99 104 102 100 93 88 81 76 75 76 72 72 71 64 63 59 59 66 63 63 61 58 66
80 81 86 87 89 90 87 93 96 101 105 109 113 110 110 115 111 102 99 101 100 96 87 82 70 66 63 62 60 63 64 61 59 60 56 60 63 58 58 61 62 64 65
86 88 90 90 93 95 97 101 104 105 108 113 111 112 114 111 103 96 105 93 85 70 60 57 50 44 43 45 48 48 58 60 64 65 62 59 56 58 56 57 62 75 81
87 89 91 94 95 99 101 107 111 111 112 110 111 113 104 96 95 93 84 68 57 47 41 35 30 26 25 25 28 32 38 43 44 44 46 45 41 55 43 39 46 62 76
88 90 91 94 95 101 107 110 110 110 112 113 112 100 97 88 81 66 49 33 25 22 16 16 14 12 12 9 8 9 13 19 24 27 33 33 39 57 58 49 51 54 75
90 90 93 95 100 106 107 109 109 110 111 104 90 90 88 69 53 40 24 16 14 14 16 15 14 11 12 13 14 15 15 17 12 16 21 25 31 38 58 65 60 58 60
89 94 95 101 103 103 101 104 108 108 93 87 86 75 61 38 30 21 17 17 17 18 18 18 19 19 16 14 14 13 14 16 16 16 16 14 19 24 38 54 59 60 70
91 96 101 100 96 97 102 104 97 88 85 77 63 44 36 25 20 18 20 21 22 22 23 22 21 21 21 20 21 20 15 14 15 15 14 13 13 17 25 38 50 58 59
102 101 100 100 98 99 101 85 81 77 65 54 38 32 28 25 21 24 24 26 27 27 27 27 27 25 24 21 21 21 21 21 19 21 16 13 14 15 15 18 26 39 51
97 96 97 100 100 98 81 74 69 56 43 34 31 29 25 27 26 27 28 29 29 29 30 28 28 27 26 25 25 24 23 23 20 22 25 24 18 15 15 17 18 22 37
91 98 98 102 86 75 63 60 48 39 34 32 32 34 30 32 29 30 32 33 33 33 33 31 31 30 29 29 29 27 26 28 28 28 31 31 26 25 19 15 17 20 22
94 95 97 84 78 61 53 41 39 36 35 36 35 40 40 41 39 39 38 37 36 38 37 35 34 33 34 34 33 33 33 34 34 31 35 36 34 31 30 27 19 17 22
95 94 78 59 52 43 39 36 37 38 39 45 46 45 47 47 45 45 45 45 43 41 39 40 40 38 38 37 37 39 39 38 39 37 36 38 37 33 34 35 32 26 21
83 75 63 51 41 40 36 37 41 43 46 51 48 44 43 46 46 45 46 44 43 43 44 45 45 45 45 46 46 43 43 43 42 40 39 40 40 40 37 37 37 34 32
59 51 45 38 37 39 40 43 45 47 46 42 44 48 48 49 48 44 42 43 46 48 47 47 48 50 50 50 50 50 49 45 46 45 42 43 44 45 44 43 39 39 39
44 37 40 37 38 38 45 45 45 45 42 42 46 48 50 51 45 43 47 49 48 49 52 53 54 55 53 51 51 50 51 53 53 50 49 48 49 50 50 47 45 43 43
36 37 34 37 40 42 44 46 46 49 46 46 48 47 44 47 49 49 49 50 53 55 58 58 58 58 58 57 55 52 53 54 55 56 56 53 55 54 53 53 51 50 49
36 33 33 33 29 42 41 51 52 45 43 44 44 46 50 52 53 54 56 57 58 61 61 60 60 61 61 61 59 58 59 61 62 63 64 64 60 58 54 59 58 56 55
38 34 28 26 28 30 34 53 48 46 53 52 50 50 51 53 57 61 63 63 66 66 63 63 65 66 66 66 65 65 66 66 67 68 69 71 72 70 70 73 69 69 68
36 29 27 28 33 34 41 50 54 54 57 58 57 58 58 59 62 65 67 67 69 66 64 72 74 74 76 76 76 75 75 76 78 77 76 76 76 77 79 78 77 77 77
35 32 35 38 41 47 51 54 56 58 59 61 62 62 62 64 65 67 70 70 71 72 76 78 79 81 83 88 87 87 85 86 86 88 89 89 89 86 84 85 84 84 85
39 41 43 47 51 52 55 56 59 63 64 63 64 63 66 68 70 71 73 75 77 79 82 87 90 90 92 97 98 97 94 95 97 97 97 99 98 98 96 93 90 89 90
40 44 47 52 54 56 56 61 65 65 66 68 71 72 73 73 74 76 78 81 84 87 91 95 98 101 102 105 110 110 106 103 103 104 107 109 109 107 105 105 105 101 98
43 48 50 53 57 59 60 63 65 67 71 73 75 77 78 81 83 85 88 92 94 97 101 106 108 111 113 113 116 119 120 119 115 108 110 112 114 114 111 110 111 109 108
48 51 55 57 55 56 64 67 69 73 76 77 78 80 83 87 91 94 98 103 107 110 113 116 116 119 119 118 120 120 119 119 119 114 101 107 109 110 111 105 105 106 106
53 57 59 59 61 62 61 65 72 77 81 82 84 86 90 94 97 103 107 111 116 121 124 125 125 124 119 118 114 111 108 106 102 102 99 88 89 92 95 94 95 94 92

GFSSE_250_spd_036.txt.gz
Wind_Speed
72 74 75 79 79 81 85 89 90 90 95 95 97 98 102 106 107 106 104 110 102 97 103 112 99 80 73 70 67 65 62 61 62 59 58 58 58 53 54 53 48 53 60
77 77 77 80 84 85 87 91 91 93 95 97 98 103 107 108 108 111 109 101 99 106 101 82 70 60 51 47 47 46 45 42 45 51 50 51 50 48 47 41 55 60 63
74 77 80 85 87 91 92 93 96 96 97 98 102 106 108 106 107 109 98 98 101 84 69 60 51 42 38 33 30 32 34 34 39 44 50 44 44 37 34 51 53 62 59
81 85 87 90 89 89 93 93 95 95 99 106 108 107 106 105 106 95 93 87 69 54 43 37 31 27 23 20 16 14 17 23 29 39 58 53 53 53 57 48 63 68 70
87 86 89 87 88 89 91 95 98 103 109 106 108 105 105 101 91 86 76 61 43 35 25 20 17 17 16 15 14 12 10 10 9 20 31 40 47 55 59 53 52 64 67
81 84 85 87 88 92 94 97 103 106 102 105 108 106 101 91 78 67 52 41 30 26 24 21 19 17 19 15 12 10 10 11 12 10 7 11 20 33 45 48 50 52 54
83 86 91 90 95 97 100 104 103 105 103 106 102 92 76 70 57 47 36 33 31 26 25 24 24 25 24 22 20 17 13 13 13 12 12 12 8 11 23 33 41 52 53
88 92 92 95 98 99 103 98 97 100 101 98 87 73 62 53 41 34 30 29 30 30 29 29 29 29 26 26 26 25 25 24 20 15 12 12 13 11 8 20 32 41 60
90 92 94 97 98 99 96 97 98 96 89 78 63 53 45 38 34 34 34 34 34 35 34 34 34 34 32 31 31 29 28 26 27 24 23 22 19 17 18 15 15 27 46
92 91 97 96 89 94 95 98 89 78 65 60 51 45 41 36 38 36 37 34 35 38 38 38 39 39 35 34 34 33 32 29 27 29 29 29 27 26 24 23 23 20 23
89 93 91 94 94 96 93 81 71 59 51 45 44 42 44 43 45 44 48 45 46 46 44 41 42 41 38 38 38 37 36 35 32 33 34 34 35 33 32 30 26 26 25
92 92 94 92 93 84 74 65 56 49 46 42 43 45 48 50 53 50 47 44 43 45 46 45 44 43 41 41 41 41 39 39 39 38 41 42 41 38 35 35 34 31 28
94 95 93 89 79 65 60 53 52 45 42 44 47 50 52 51 49 46 47 46 47 45 43 42 42 44 44 42 42 44 45 45 44 43 44 45 43 42 38 37 39 37 36
90 88 74 72 62 58 49 50 46 43 45 50 56 55 52 47 49 49 49 49 48 47 44 45 46 46 46 48 48 49 50 48 48 46 44 44 45 45 45 41 40 42 42
77 71 57 58 48 49 46 43 42 45 47 47 50 52 51 51 49 49 49 45 44 47 49 48 48 51 53 54 55 57 56 53 49 47 47 46 46 46 45 45 44 45 45
71 66 62 48 46 46 44 42 42 37 41 42 46 49 47 46 46 46 47 49 50 49 50 52 54 56 57 57 57 54 54 55 53 52 50 50 50 51 49 48 48 49 49
49 52 49 49 45 37 42 40 43 42 45 41 46 46 50 56 53 52 52 53 55 55 57 58 59 58 59 61 59 55 54 57 57 57 57 56 56 58 59 56 56 54 51
46 44 43 47 38 37 43 42 48 49 47 50 51 52 57 58 60 60 58 58 59 61 63 64 65 66 65 63 62 61 66 66 66 66 66 66 66 66 66 65 64 63 61
46 44 41 41 41 38 42 46 49 53 51 55 56 55 58 59 63 63 63 63 64 66 67 67 68 67 68 69 68 69 71 71 72 72 72 74 76 75 74 76 75 74 72
42 40 39 33 31 33 40 48 52 56 58 61 60 61 62 62 62 63 66 67 69 70 71 72 73 73 74 74 74 75 77 80 82 84 84 85 83 83 83 83 84 82 83
40 39 32 35 36 41 49 53 58 62 62 63 61 61 63 64 65 67 70 72 73 74 74 77 80 82 83 81 81 82 86 89 92 94 96 95 94 94 92 91 90 91 91
40 42 38 39 43 47 52 57 61 65 66 63 62 66 66 68 71 74 77 80 81 80 83 84 86 88 90 92 94 94 93 95 101 103 106 106 103 103 103 101 99 98 97
42 43 46 47 49 53 56 59 64 68 67 67 68 70 74 77 81 83 84 84 85 86 89 91 93 97 101 104 105 107 108 108 109 111 115 115 114 114 114 113 112 110 108
42 46 48 51 54 56 60 64 66 66 68 71 73 77 79 84 87 91 93 94 95 97 99 102 105 110 112 114 117 120 122 122 122 110 112 116 120 121 120 118 117 117 117
46 47 49 53 56 61 65 66 66 68 72 75 78 84 89 94 97 100 102 104 106 109 110 115 118 122 124 125 126 125 127 127 122 117 108 112 114 116 116 117 116 113 113
51 52 53 53 56 60 62 65 68 69 74 77 82 88 93 96 101 104 107 110 113 117 121 124 127 127 128 128 127 125 122 118 116 110 101 96 98 103 101 98 101 104 106

GFSSE_250_spd_039.txt.gz
Wind_Speed
75 74 76 77 78 77 78 80 82 84 89 94 91 93 94 95 98 99 102 103 102 104 108 106 106 97 93 77 65 58 50 50 48 50 52 49 50 50 47 46 41 49 47
75 74 75 79 81 80 81 86 89 92 93 94 94 94 97 100 104 104 103 102 105 108 105 99 87 80 70 56 52 46 39 36 35 35 40 42 40 32 39 40 45 47 54
76 77 77 77 80 84 89 90 94 95 95 95 94 98 101 104 104 104 104 104 106 99 88 75 66 56 52 44 42 39 36 35 32 29 31 33 36 38 36 38 50 55 51
79 81 84 87 89 92 92 94 92 94 95 96 99 103 105 103 102 102 105 101 93 81 75 59 46 41 37 32 30 28 27 27 28 28 27 27 35 44 45 35 30 49 54
86 88 87 89 90 92 91 92 93 93 96 99 101 107 100 102 102 107 100 86 72 67 51 45 41 32 30 26 24 22 25 24 23 23 23 24 26 32 46 47 45 43 46
87 87 84 85 88 94 90 90 93 99 101 101 105 103 99 102 105 95 86 66 61 48 41 36 35 33 30 27 26 24 22 21 23 24 24 21 21 25 29 41 58 63 56
83 86 90 90 84 87 93 96 97 99 98 102 101 101 105 106 94 75 63 58 46 39 37 37 37 36 35 33 30 30 30 32 28 21 20 21 18 17 17 26 31 42 51
84 87 86 85 89 93 93 92 94 95 99 100 101 100 103 85 69 57 52 46 39 39 40 40 40 41 40 39 36 34 35 36 35 32 30 21 17 19 19 19 21 28 36
85 88 87 88 93 87 90 94 94 98 103 104 102 94 75 61 58 52 44 42 39 41 46 47 46 45 44 42 41 38 36 36 38 36 35 32 28 23 20 21 21 21 23
87 84 86 84 87 87 92 96 99 101 99 91 78 69 58 54 50 49 47 44 46 49 50 49 48 47 46 44 44 42 41 40 40 39 37 37 37 35 33 29 26 27 24
78 82 84 89 87 93 96 96 97 94 90 73 63 58 56 54 50 50 49 50 50 46 45 45 46 45 44 44 42 41 41 40 39 40 42 44 43 42 40 39 38 35 32
80 81 84 88 93 93 93 90 89 83 67 59 55 51 52 51 52 51 48 49 48 46 47 46 47 47 43 41 42 44 45 43 44 46 47 49 49 46 43 41 40 39 37
80 85 84 86 85 89 92 88 81 71 62 56 51 51 54 54 52 46 45 45 45 47 47 46 44 43 44 46 47 47 48 50 50 51 51 50 48 47 45 43 42 42 39
82 89 86 85 92 91 85 84 68 59 57 52 51 51 53 50 46 44 41 40 42 46 45 46 48 48 48 47 50 52 52 53 53 54 52 49 47 46 45 43 42 43 45
85 85 84 89 88 86 82 68 61 56 54 57 55 53 47 50 48 49 45 47 53 52 53 51 51 52 52 54 55 57 58 57 57 57 55 51 48 49 49 46 45 46 46
89 88 84 81 73 60 60 54 57 55 54 54 55 50 52 50 51 55 56 53 53 54 53 52 53 54 55 57 61 62 62 61 61 59 58 55 54 54 54 54 54 53 52
85 82 72 68 64 57 54 55 55 56 54 54 54 52 54 56 57 59 57 56 56 57 56 57 56 55 57 59 62 65 66 66 66 64 64 65 65 64 61 59 59 60 59
73 71 62 61 54 52 47 51 56 57 59 56 54 53 56 59 64 63 60 59 60 60 62 62 60 61 63 65 66 68 68 69 70 70 70 70 68 67 68 69 68 67 67
57 54 47 44 46 35 42 53 62 65 58 55 52 56 62 65 67 67 66 65 66 66 65 65 67 68 70 72 73 73 73 73 74 75 77 78 78 77 77 77 78 78 77
53 51 43 38 39 41 54 57 61 56 58 55 59 65 67 68 69 70 69 69 69 70 71 73 74 76 76 76 76 76 78 82 83 84 86 85 87 87 88 87 87 88 86
49 48 31 37 43 47 54 59 57 61 64 66 67 68 70 71 73 73 71 74 74 75 77 79 81 83 85 87 85 84 85 87 88 90 91 93 96 99 99 99 98 95 94
44 48 50 52 56 58 60 62 63 64 67 69 72 73 74 76 74 74 76 77 79 81 85 88 90 91 93 94 94 93 91 93 97 100 102 103 103 103 104 105 106 106 108
50 53 54 54 57 58 58 60 65 68 70 71 73 74 75 76 78 79 82 83 85 88 91 95 98 101 103 103 102 103 102 102 104 108 112 111 112 113 114 114 115 117 118
53 53 55 55 54 55 57 61 64 65 66 67 70 73 76 79 82 85 87 89 91 96 100 103 108 112 112 112 113 116 117 116 114 107 112 115 116 119 121 120 121 122 123
51 50 46 50 52 56 58 60 63 66 69 72 75 80 83 86 89 91 94 97 102 106 110 115 118 119 120 122 124 124 124 123 121 118 112 115 117 122 125 126 126 124 120
44 44 44 50 54 57 60 63 66 69 72 76 80 83 85 89 92 95 100 105 109 114 117 121 124 126 127 126 124 125 124 123 121 121 120 117 116 118 120 119 118 118 115

GFSSE_250_spd_042.txt.gz
Wind_Speed
77 79 82 83 79 79 82 79 81 80 84 86 88 93 92 91 92 96 99 99 98 104 104 108 104 100 92 83 87 80 57 49 44 37 33 32 35 38 42 46 48 52 52
82 83 81 80 80 80 83 82 84 87 89 89 91 93 93 94 97 102 98 100 100 102 105 106 97 82 76 72 58 53 48 43 42 33 29 27 27 31 32 34 31 38 39
78 80 81 81 82 84 86 84 89 90 91 93 92 91 94 96 102 102 96 100 102 104 108 94 77 76 58 46 45 43 41 36 34 32 32 28 26 25 26 27 26 32 34
81 83 82 85 84 87 91 88 90 89 90 91 91 93 95 100 104 98 98 104 101 104 88 78 71 56 40 39 35 37 33 29 28 30 29 29 29 26 24 24 27 34 41
81 82 84 83 86 90 91 88 90 89 93 92 93 99 100 100 98 97 103 102 106 90 74 68 54 42 38 36 34 31 30 28 28 29 31 31 28 24 25 22 25 27 32
84 84 82 85 88 90 87 88 88 92 94 95 98 96 96 95 98 98 97 100 91 75 66 56 46 42 39 36 36 34 33 32 30 32 31 29 29 24 21 20 22 22 29
83 84 85 88 85 83 88 87 89 93 89 92 88 94 93 98 101 98 98 89 73 65 55 50 46 45 42 43 40 39 38 37 35 33 33 29 27 29 25 21 18 17 20
86 84 85 86 85 87 87 90 86 84 88 92 91 98 96 98 96 99 82 69 63 53 49 46 47 50 49 44 43 42 42 41 39 36 34 30 30 27 28 26 26 24 19
83 83 84 84 86 87 89 82 84 88 90 92 97 95 97 94 92 81 74 63 56 50 50 48 46 47 44 40 38 39 38 38 37 34 33 32 30 29 31 31 28 28 29
81 82 86 86 86 90 82 84 86 88 89 94 93 94 95 88 77 70 60 57 52 51 45 43 42 42 43 42 40 38 36 36 35 35 36 36 35 34 33 35 38 38 34
81 83 83 83 82 81 83 87 89 87 91 88 91 87 84 69 65 63 57 51 51 47 46 43 42 43 43 43 40 38 36 36 37 38 40 39 41 40 39 39 39 38 39
87 84 82 82 80 83 86 86 89 90 91 86 77 71 72 62 64 59 57 53 47 43 39 36 40 44 44 44 45 44 42 42 41 42 44 45 46 46 45 45 43 39 37
77 80 85 80 82 81 85 86 92 89 82 70 65 63 61 62 63 61 57 56 47 47 43 43 48 48 47 45 45 45 45 45 46 48 48 49 49 50 50 48 44 40 36
72 74 78 82 82 83 88 91 88 76 67 62 60 61 60 63 61 61 55 52 50 51 50 51 52 50 51 49 49 49 49 49 49 52 53 53 53 52 52 50 46 42 39
69 76 80 81 85 84 85 78 70 62 60 60 63 64 61 61 59 59 54 50 51 52 55 58 55 53 55 55 54 55 54 53 53 55 56 56 56 57 55 52 50 49 49
74 76 80 85 85 84 74 74 63 62 59 60 62 62 61 61 60 63 59 55 55 56 60 62 60 57 57 58 58 58 58 59 60 60 61 62 61 61 60 57 55 52 54
78 78 83 88 80 69 62 58 56 58 62 64 63 63 64 61 60 62 59 58 60 63 65 65 64 62 62 63 61 62 62 63 64 63 64 66 68 67 65 63 61 61 58
79 78 79 74 62 57 52 51 54 52 58 65 70 65 64 65 62 58 60 63 67 69 68 68 69 67 67 68 67 68 69 69 70 70 70 70 72 74 74 73 72 69 68
70 68 63 47 38 44 45 44 45 55 60 67 68 69 71 67 65 64 69 73 73 73 73 73 74 71 73 73 73 74 75 77 77 78 78 79 78 78 78 78 78 78 77
52 51 49 38 37 32 43 42 55 65 70 70 72 72 74 73 75 75 74 75 77 77 78 79 78 79 80 80 79 79 81 83 84 85 86 87 88 88 89 88 86 85 84
47 47 43 30 39 44 64 58 57 64 67 72 76 78 76 75 76 76 77 77 77 79 81 80 83 85 86 85 85 86 89 90 93 95 95 96 98 99 97 96 95 94 95
39 34 43 44 48 54 57 60 65 70 72 74 74 73 74 75 76 77 78 79 80 81 83 86 88 89 91 93 94 95 95 99 102 104 105 104 103 103 103 103 103 104 104
47 51 55 57 59 60 63 65 68 72 74 74 72 72 73 75 77 79 81 82 84 87 87 89 92 95 95 98 99 101 99 100 103 108 111 111 112 113 113 112 112 111 110
51 53 54 56 58 60 62 63 66 68 67 67 69 71 74 78 82 83 85 85 86 89 93 97 100 102 103 104 106 107 109 109 109 109 113 115 117 119 121 120 120 120 118
41 44 46 47 48 51 55 59 62 65 68 71 74 76 77 79 82 85 85 87 92 96 100 104 108 111 112 114 116 119 121 122 121 120 118 118 120 123 124 126 125 123 123
45 47 49 51 54 56 58 61 64 67 70 72 74 76 77 80 81 85 90 95 100 105 108 112 115 120 121 123 125 125 123 123 123 124 123 121 123 125 127 128 125 122 121

GFSSE_250_spd_045.txt.gz
Wind_Speed
76 76 76 77 77 79 80 82 78 78 81 82 82 85 86 84 84 90 89 90 90 95 97 92 93 94 99 99 87 82 73 63 57 48 43 39 31 28 30 31 34 39 44
79 77 77 79 80 78 80 80 79 80 82 85 85 88 87 86 87 89 91 89 91 94 87 93 92 94 93 85 76 66 58 49 44 41 37 36 29 25 23 19 18 23 28
83 82 82 78 79 82 81 81 81 85 88 87 86 88 86 85 88 91 86 97 93 87 93 94 91 90 79 72 63 53 48 41 37 34 32 31 31 30 28 24 22 15 19
85 84 82 82 81 82 83 83 84 86 84 87 89 89 88 86 90 89 93 89 87 90 95 93 89 74 67 57 48 45 43 39 37 35 32 33 31 29 28 27 22 15 12
80 83 84 84 85 86 86 86 86 85 88 90 91 89 87 90 90 94 88 86 93 92 91 85 78 63 60 46 43 42 43 41 38 36 35 34 32 31 26 24 23 21 15
84 84 83 84 82 83 88 89 89 90 91 90 88 89 90 88 90 90 91 98 89 89 79 79 67 64 51 46 41 43 44 44 41 42 39 37 33 30 26 24 18 18 18
81 82 83 81 86 89 89 91 90 89 90 89 92 86 92 89 89 90 93 87 87 79 80 68 62 55 49 43 39 40 40 38 35 36 37 35 33 29 27 23 22 21 20
80 79 81 86 89 91 89 91 91 92 87 87 88 96 87 90 92 88 84 91 81 79 71 61 55 49 40 37 36 36 36 36 37 37 33 31 29 29 28 24 23 24 26
84 85 83 81 86 86 86 90 89 87 86 88 94 89 90 95 87 86 88 86 75 71 65 58 50 43 37 34 32 34 34 32 30 31 30 29 27 27 29 29 28 27 26
75 75 80 83 82 83 85 87 88 87 87 87 83 89 82 83 86 89 82 75 69 66 58 55 47 38 31 30 35 36 36 35 33 33 32 31 30 32 31 33 34 34 33
73 76 76 79 84 81 83 85 86 82 85 82 87 85 87 85 84 73 73 69 61 59 56 49 41 40 38 38 40 40 38 38 36 35 35 36 35 37 37 36 38 37 36
73 73 79 79 82 74 73 71 81 80 78 82 86 81 79 76 71 75 67 63 61 57 55 48 42 42 44 41 42 44 41 41 41 41 41 40 41 41 41 40 40 40 41
75 75 81 78 74 79 83 79 79 82 84 79 81 72 63 69 69 66 63 62 61 59 54 48 46 44 44 46 45 47 47 45 44 45 45 44 44 44 44 43 43 44 44
69 72 67 66 78 75 73 76 79 82 79 80 69 63 69 68 64 63 61 60 60 58 54 51 50 49 51 52 53 53 53 51 47 46 48 47 46 46 47 48 47 46 45
65 58 65 70 77 76 81 80 76 73 75 67 67 65 65 65 64 58 58 55 58 57 57 53 52 53 56 60 63 63 60 58 56 54 52 50 50 50 51 50 50 48 48
60 66 70 75 79 82 85 78 72 71 67 61 59 61 62 61 61 64 60 59 57 59 57 55 56 59 64 69 70 68 66 65 61 60 59 59 58 57 55 54 54 53 51
62 67 72 78 74 78 75 70 63 59 57 57 64 66 63 60 64 68 69 71 69 70 68 65 67 68 71 71 70 71 70 72 70 67 66 67 67 66 66 63 61 61 59
68 65 68 72 72 69 59 55 48 51 59 59 62 60 55 63 68 72 76 77 78 80 77 74 74 72 72 73 73 74 75 75 74 73 74 75 74 73 72 71 71 69 67
69 69 63 58 54 48 43 43 44 45 46 53 55 58 56 67 74 79 77 82 83 82 80 79 78 77 76 77 77 78 78 78 79 81 81 80 80 80 80 79 78 77 77
56 55 58 49 43 36 38 41 50 53 54 60 59 65 69 76 81 84 87 85 87 86 84 81 80 79 79 80 81 82 84 85 87 87 88 88 88 89 88 88 88 87 86
51 48 45 43 28 29 52 57 62 61 65 66 73 73 78 81 84 87 87 88 86 81 79 80 82 83 85 85 86 88 90 89 91 93 93 94 94 94 95 95 95 96 96
43 45 47 48 40 44 54 61 63 64 63 70 75 80 83 84 84 82 79 79 81 82 83 83 85 87 89 90 90 89 89 91 94 97 100 101 102 104 104 104 103 102 102
42 43 43 42 44 48 52 54 55 57 61 64 68 71 74 75 76 79 81 81 82 83 85 86 87 87 87 90 94 98 100 103 105 109 110 111 111 113 115 115 113 112 111
35 38 41 42 44 46 51 54 57 60 63 67 69 72 73 75 77 78 79 80 82 83 84 85 89 93 97 101 105 109 113 114 117 115 117 119 120 120 119 118 116 118 118
39 42 44 46 49 51 54 56 59 60 61 63 65 68 70 72 74 76 79 80 81 83 87 93 99 104 107 110 111 114 117 120 124 127 126 126 124 126 126 125 123 123 124
43 46 48 51 53 56 59 60 62 63 64 65 68 70 71 72 74 75 76 80 86 92 97 103 107 108 111 113 117 119 119 121 124 128 128 128 126 124 124 126 123 119 119

GFSSE_250_spd_048.txt.gz
Wind_Speed
77 76 75 75 75 72 74 75 76 75 78 80 79 78 77 80 81 80 82 86 88 84 80 85 85 85 89 89 90 87 89 76 69 57 53 46 41 34 32 29 26 28 35
79 80 79 78 78 77 80 79 77 79 80 79 77 80 83 84 84 86 87 90 87 86 86 91 92 89 90 86 83 87 80 66 56 48 47 42 36 34 33 29 26 24 23
83 84 83 83 82 83 86 80 79 78 79 80 81 85 83 87 87 88 88 88 88 86 88 92 90 87 82 84 86 74 66 54 49 44 40 40 37 34 33 34 29 26 21
83 84 85 84 81 80 77 81 85 84 84 86 85 87 90 89 88 85 90 87 87 91 85 86 87 79 83 81 73 66 57 51 46 42 39 39 36 34 32 32 33 27 19
85 84 79 78 78 78 77 79 81 87 88 88 88 89 89 88 91 93 91 87 90 86 83 87 77 78 74 72 62 55 51 46 42 38 35 34 35 35 34 34 30 25 18
90 88 87 87 88 88 85 89 82 85 87 86 90 88 90 89 92 86 90 87 85 81 83 78 79 76 64 62 51 49 42 40 37 35 32 29 30 29 31 29 26 20 17
90 87 85 88 83 83 87 83 88 87 87 90 87 92 88 90 94 90 87 86 82 82 80 79 74 61 60 50 45 40 36 35 33 32 29 27 28 28 27 25 24 19 19
79 80 80 78 78 75 82 85 82 83 81 86 85 84 92 90 85 85 81 75 78 81 75 71 60 56 54 46 39 34 33 30 31 31 30 27 25 24 25 24 22 24 22
73 73 72 72 78 85 78 81 77 80 79 84 85 87 83 78 80 75 73 79 82 75 74 63 56 53 51 41 36 32 30 31 32 34 34 33 29 27 26 25 27 27 27
82 82 79 81 77 75 77 76 74 75 78 88 85 86 77 75 74 80 80 74 75 70 64 58 51 49 48 41 35 36 38 39 36 36 35 35 36 34 32 31 31 33 32
76 79 77 72 70 66 67 71 74 78 81 75 72 75 76 77 77 75 74 75 72 68 60 54 48 47 47 40 37 37 38 38 39 38 39 39 39 39 37 36 36 37 36
73 66 67 60 63 66 72 75 75 75 70 71 73 80 78 76 79 74 73 66 67 66 52 47 46 45 42 42 40 39 38 38 39 40 42 44 43 43 43 41 40 40 39
60 59 59 63 65 68 65 65 65 67 67 78 81 80 80 80 70 69 59 58 62 60 49 47 45 47 45 44 43 43 43 42 43 43 44 46 48 46 44 46 45 43 41
59 60 60 62 61 65 69 66 70 73 79 81 80 78 77 77 72 70 62 59 63 55 52 51 49 51 49 49 50 48 49 52 50 50 48 49 50 51 51 48 48 47 46
66 70 68 68 67 66 68 73 75 76 80 82 81 80 79 73 66 65 67 69 59 61 59 56 59 56 58 59 58 59 61 59 59 59 57 56 55 55 55 55 53 53 52
69 70 69 61 62 67 68 70 74 77 78 80 74 71 66 64 64 66 71 69 65 68 67 69 72 70 69 69 67 65 67 66 64 64 63 61 61 59 59 59 59 59 60
52 55 57 62 68 70 69 73 74 76 72 64 61 62 61 65 65 70 69 73 71 70 74 77 80 84 84 78 73 70 73 71 68 67 67 67 65 66 64 62 63 64 65
56 60 63 64 65 70 71 68 62 54 50 56 56 58 59 58 64 67 67 68 69 71 77 85 89 91 91 85 80 76 73 72 70 71 70 71 70 69 68 68 69 70 70
57 60 65 68 66 65 63 61 55 46 48 59 62 57 65 62 64 73 74 76 80 84 87 89 94 96 91 83 80 79 80 80 79 78 76 76 76 76 77 75 78 77 76
63 64 63 63 63 60 49 32 38 50 50 56 61 60 67 73 78 82 84 88 90 91 95 94 96 85 85 86 86 84 84 82 82 81 80 80 79 80 80 79 79 81 81
61 58 54 49 47 43 41 39 51 58 62 63 69 74 78 80 85 82 84 92 93 90 85 86 88 89 90 89 87 84 83 82 81 83 84 85 84 86 86 87 89 90 90
51 47 47 47 45 41 40 40 50 54 63 72 70 73 75 75 77 77 78 80 81 82 83 84 84 86 87 85 84 84 84 86 88 87 94 96 96 98 99 99 99 100 101
44 42 39 37 38 40 41 44 47 52 56 60 64 67 70 73 75 76 77 79 80 82 82 84 84 84 84 86 88 91 95 99 102 105 105 106 110 111 113 113 115 115 116
33 35 36 40 43 46 48 51 54 57 60 64 66 69 70 73 75 76 78 79 79 79 81 82 83 87 90 94 99 103 105 109 111 112 117 119 119 119 121 123 125 124 123
35 38 41 44 48 50 53 56 58 61 63 65 67 69 71 73 75 75 75 73 74 77 82 87 91 95 99 102 106 109 111 113 117 118 119 121 124 124 125 128 129 127 126
38 42 45 48 51 54 57 60 62 64 66 67 68 69 69 69 69 69 72 75 79 83 87 92 96 101 103 106 109 112 115 117 120 122 123 123 122 121 125 125 122 123 123

GFSSE_250_spd_051.txt.gz
Wind_Speed
81 82 78 76 75 74 77 76 77 75 74 79 81 79 77 83 81 82 83 83 86 89 86 88 87 90 85 85 89 80 82 78 86 87 87 72 61 58 50 43 38 35 33
82 83 81 80 80 78 79 78 78 80 79 82 80 79 81 84 83 82 86 88 86 87 88 89 92 88 87 86 85 81 83 85 86 82 74 60 52 47 44 40 37 36 33
83 84 84 85 85 83 81 80 80 74 77 82 81 81 84 82 84 85 83 85 89 88 88 90 91 88 88 83 78 80 85 85 78 75 59 51 46 44 40 36 35 34 33
74 77 82 88 85 84 83 77 79 76 81 81 84 85 87 85 86 85 88 90 90 91 89 95 87 85 81 78 79 85 83 75 78 60 51 43 43 40 35 33 34 33 33
76 73 74 81 84 80 80 82 78 83 87 86 88 86 89 88 88 89 93 89 90 90 93 83 79 78 73 74 77 79 73 71 60 50 42 37 38 34 31 29 29 27 27
72 69 67 71 76 73 79 83 86 84 86 86 89 89 87 87 90 93 88 85 90 88 77 78 71 70 72 77 72 69 64 58 51 42 38 35 29 28 28 31 29 26 21
71 79 85 87 84 84 84 86 80 81 80 90 83 81 87 85 89 85 84 87 78 76 69 68 74 74 77 69 65 58 58 52 42 37 34 33 28 27 25 25 25 24 22
75 79 79 83 84 79 81 78 77 86 81 77 84 82 81 78 81 81 84 70 65 67 73 76 75 76 70 60 55 52 49 44 39 36 32 34 32 32 29 25 23 22 21
84 80 82 82 76 74 72 65 75 76 79 71 77 69 75 80 84 83 72 70 71 73 73 70 72 72 61 54 51 45 42 41 40 38 38 38 34 31 31 29 27 27 26
46 56 62 58 61 62 64 66 66 61 71 72 71 76 75 75 74 66 74 74 76 75 75 70 71 66 53 48 45 42 38 39 41 41 41 39 37 36 33 33 33 33 32
67 63 63 72 76 75 73 72 68 66 64 68 72 76 70 69 71 76 81 78 77 73 71 70 67 57 48 43 40 38 38 38 41 44 43 41 41 39 37 37 37 38 37
65 68 68 73 76 77 70 67 66 62 63 72 72 73 74 78 76 82 78 75 68 68 66 60 55 55 48 43 41 43 41 38 38 39 44 47 48 45 42 42 42 41 40
74 75 74 74 72 73 62 63 64 64 65 69 74 80 80 80 76 71 62 61 60 67 64 64 58 56 54 52 48 43 40 40 43 43 43 48 52 55 51 48 47 46 46
69 70 71 70 59 58 58 54 61 66 71 72 74 79 82 66 47 51 54 60 63 68 64 60 57 55 58 55 52 51 46 42 43 45 47 54 56 57 58 57 53 51 51
68 66 62 63 63 63 65 65 64 69 73 73 77 72 65 57 57 54 56 68 71 67 67 65 66 68 60 59 66 64 70 65 60 58 53 53 58 59 59 61 61 59 57
55 61 63 66 70 72 71 73 72 73 70 74 77 76 70 69 67 66 70 70 74 72 72 71 75 68 64 62 76 75 83 84 75 69 63 57 59 59 59 58 60 61 60
55 60 62 65 61 60 64 64 66 67 70 73 69 66 60 67 67 70 72 72 74 75 71 69 68 67 67 83 89 87 89 88 84 78 72 68 65 64 66 65 62 61 61
46 52 52 52 56 62 66 67 67 70 62 56 57 61 61 63 65 68 69 73 74 69 65 66 70 77 89 96 99 97 95 95 86 77 80 75 74 72 69 68 70 69 67
46 49 51 53 57 59 61 67 69 70 65 57 62 60 55 56 63 67 67 67 75 79 79 85 88 94 90 88 85 83 83 83 82 78 78 74 75 74 75 70 70 75 71
51 56 60 61 64 66 72 70 65 61 58 58 62 61 66 66 70 74 77 81 84 88 93 96 98 94 88 85 84 85 85 85 83 83 83 79 78 76 76 77 75 77 76
55 60 63 65 67 63 58 55 53 53 54 59 62 64 68 76 82 84 83 85 91 85 87 90 88 87 87 87 86 83 84 84 84 79 79 84 84 85 84 87 88 89 89
59 62 60 56 53 51 49 45 44 45 49 53 55 59 66 75 76 76 77 77 80 82 80 82 85 86 85 81 79 78 79 83 89 90 91 94 95 96 99 99 101 101 102
58 53 47 45 41 39 41 44 46 50 53 57 60 63 67 70 73 76 78 80 81 82 82 78 73 73 78 81 85 88 90 93 96 102 106 110 110 110 111 113 115 115 116
42 37 35 36 38 41 44 47 51 55 58 62 65 68 70 74 75 77 77 77 76 73 70 70 75 81 84 88 91 98 103 106 108 107 110 112 117 119 121 121 121 121 125
31 32 35 38 42 44 48 51 55 59 63 65 68 69 70 71 71 72 71 68 64 68 73 78 82 89 93 98 102 104 106 108 111 112 109 113 117 120 123 125 125 121 121
31 34 38 40 43 46 50 54 57 60 61 63 65 66 67 66 66 65 64 66 69 74 80 84 90 97 100 103 107 108 108 107 108 111 114 114 113 114 119 118 118 119 117

GFSSE_250_spd_054.txt.gz
Wind_Speed
79 76 75 76 76 77 75 74 73 73 72 75 76 78 80 77 77 81 81 81 79 82 88 90 91 88 91 91 87 84 81 73 72 74 72 82 83 90 81 66 55 51 46
78 79 79 79 78 81 79 79 80 79 78 74 75 75 78 78 77 77 79 82 85 86 88 91 88 94 95 91 84 84 74 72 71 71 84 85 90 84 72 59 51 45 45
81 81 81 78 80 80 82 81 83 84 81 80 83 81 79 73 76 82 84 85 87 93 88 90 93 90 89 87 86 75 73 72 73 83 81 80 84 72 58 52 47 40 39
76 74 77 79 80 82 79 80 84 84 82 80 80 77 76 82 85 82 89 87 87 91 90 89 87 89 91 87 74 72 68 76 78 80 76 73 68 55 50 43 40 33 33
68 70 73 76 78 79 75 72 72 74 72 70 74 76 81 82 89 86 91 88 88 90 93 86 83 82 83 70 62 67 75 74 78 72 70 60 55 44 41 38 32 31 30
66 73 74 78 75 63 67 67 68 73 71 77 79 79 85 80 87 88 87 85 80 92 79 78 83 78 67 64 74 72 72 74 74 65 64 53 41 38 36 32 30 28 29
59 62 65 67 60 56 61 67 73 78 75 80 80 74 76 81 73 85 81 77 82 78 80 81 73 65 65 72 70 67 72 67 66 59 53 50 39 34 33 32 31 30 26
48 53 66 68 71 67 67 76 75 74 75 72 74 67 69 73 72 73 78 78 80 74 76 71 69 69 70 69 64 65 66 65 62 54 49 41 38 37 34 33 33 29 28
65 70 65 46 52 56 67 67 68 63 68 66 67 66 71 71 74 79 76 81 75 75 70 70 72 70 64 63 62 65 64 59 51 46 42 41 38 37 39 37 37 33 30
59 59 57 59 65 69 71 66 58 63 56 66 68 65 71 73 75 78 76 78 83 74 71 75 70 62 65 62 60 63 57 52 43 39 38 39 38 38 38 38 36 38 37
52 60 59 60 68 55 61 59 57 59 67 71 68 75 76 78 84 78 80 80 75 72 80 75 65 63 59 66 62 56 50 46 43 41 35 35 33 38 41 40 40 41 41
65 67 69 60 58 65 64 62 66 69 71 74 73 73 79 83 76 81 79 74 79 79 74 68 66 65 66 66 57 54 50 49 44 44 42 41 40 38 41 42 48 51 48
60 75 70 71 75 76 69 66 69 75 77 72 73 78 77 78 79 82 75 74 66 63 64 67 71 71 59 61 59 52 45 44 49 42 38 49 51 46 47 45 51 54 52
60 55 58 60 66 70 75 79 77 74 74 72 68 72 75 76 76 75 74 67 64 66 68 72 71 71 68 62 59 62 58 60 59 57 47 65 73 68 51 50 52 57 58
70 72 70 75 76 72 74 75 70 74 71 68 68 70 73 76 74 72 74 76 75 79 78 78 77 71 68 64 63 69 61 67 65 77 73 68 72 67 69 54 54 53 56
60 62 63 65 68 78 81 80 81 74 76 78 77 79 78 78 81 82 83 85 86 87 82 79 75 69 69 68 74 71 66 79 72 81 86 80 72 69 66 64 59 58 57
45 45 46 51 53 61 65 69 72 77 71 68 75 78 79 81 85 86 88 89 85 82 79 76 68 70 74 73 82 74 86 84 88 88 87 80 72 70 71 68 70 68 64
42 47 51 53 52 56 60 62 61 62 70 68 74 76 78 84 84 82 79 79 79 77 77 77 77 78 78 82 83 85 90 89 88 84 79 77 75 72 72 72 69 70 69
41 45 47 49 58 58 60 59 63 69 72 72 76 75 74 71 71 71 74 78 77 77 78 82 87 90 89 91 90 90 84 81 82 80 77 74 75 73 71 69 69 69 71
46 39 41 43 55 58 59 63 66 70 72 70 72 70 67 67 64 66 72 76 79 80 81 85 89 93 88 84 81 81 81 76 70 72 71 74 78 79 77 77 78 79 77
40 53 60 59 55 58 61 65 66 64 62 61 60 58 59 62 65 69 71 74 78 81 80 82 81 81 82 79 73 68 65 67 74 80 81 83 86 89 89 88 89 89 90
52 58 55 57 58 60 65 66 61 59 55 53 56 59 61 64 68 69 73 74 74 77 77 76 76 74 71 66 63 67 68 75 81 88 93 97 101 102 102 103 104 105 105
48 52 56 61 64 61 56 54 48 49 51 52 55 59 62 63 63 64 66 67 69 70 71 71 69 67 66 70 74 76 77 81 86 94 103 107 111 112 115 116 116 114 112
55 60 56 52 51 46 43 45 46 47 50 53 56 57 58 61 62 64 66 68 69 69 69 70 71 72 72 74 79 84 89 92 96 95 102 107 109 115 117 118 117 117 116
47 46 43 40 39 40 41 43 46 47 48 50 52 53 56 58 60 64 67 68 68 70 72 75 77 80 80 81 84 90 95 101 107 109 106 105 105 108 111 118 121 121 121
37 35 34 34 35 37 40 41 42 46 47 52 57 61 64 67 68 71 68 66 67 69 72 74 75 80 84 84 90 99 104 109 110 113 110 108 105 108 113 114 116 117 114

GFSSE_250_spd_057.txt.gz
Wind_Speed
72 77 74 76 76 74 75 74 72 72 71 76 76 77 78 80 80 80 79 81 78 79 78 79 84 88 90 91 91 92 85 82 77 71 65 61 64 69 75 79 89 79 70
71 74 70 75 80 75 76 79 78 77 76 79 78 80 83 83 83 85 84 78 70 76 80 85 88 88 91 89 90 87 85 81 77 71 64 59 66 77 80 81 80 72 56
73 70 65 68 67 72 74 77 78 79 79 80 80 84 83 83 87 80 82 77 79 82 86 82 87 87 88 89 83 88 82 77 73 69 65 73 75 79 80 82 74 57 49
74 73 73 78 76 65 69 73 74 75 76 78 79 82 81 82 75 74 75 77 80 80 81 89 88 86 88 77 85 81 83 69 69 69 75 77 79 78 75 71 63 48 42
70 71 74 80 75 71 78 81 78 78 79 81 82 81 71 69 74 77 77 79 77 81 79 89 80 87 76 76 85 82 78 66 68 69 73 76 73 72 72 61 50 42 38
57 67 69 73 77 79 75 78 73 74 73 74 69 68 68 76 76 77 66 76 75 78 78 74 80 79 77 83 81 79 75 70 74 74 74 74 71 64 58 48 44 37 34
53 51 54 61 68 71 72 69 68 63 60 62 63 66 69 69 69 69 65 69 76 70 75 78 79 76 83 80 79 71 73 73 71 73 74 72 64 55 47 45 41 37 32
38 48 52 57 65 65 66 63 59 62 64 64 64 64 61 59 61 65 65 75 70 76 77 89 81 89 87 78 68 74 72 77 66 73 70 63 52 47 43 39 39 40 37
54 57 63 43 51 60 55 57 59 58 57 59 56 62 62 68 63 64 75 69 75 83 84 83 89 89 77 74 73 75 76 81 70 65 60 56 46 44 43 38 39 42 41
62 61 43 63 67 53 58 53 53 57 64 66 54 58 62 62 69 70 69 77 84 84 87 92 88 81 80 75 74 76 76 83 69 59 56 51 46 42 40 39 42 41 45
65 44 52 63 57 63 46 55 56 64 62 62 67 61 63 65 72 77 83 83 84 89 89 82 84 83 79 78 77 78 79 74 64 60 48 44 47 46 47 42 39 40 42
56 58 62 60 58 49 48 55 62 58 59 60 67 70 72 73 75 82 80 82 80 83 81 80 82 79 81 78 79 77 74 66 64 53 45 43 40 41 43 41 43 42 48
51 59 52 55 54 58 57 58 62 68 68 68 75 81 78 79 81 75 78 80 85 85 83 78 79 83 80 80 78 72 68 66 60 59 53 54 54 54 54 51 55 57 55
38 50 57 60 63 66 69 70 69 72 73 79 80 81 70 75 78 82 84 80 82 83 81 84 85 86 86 80 78 72 68 65 62 61 62 65 66 65 68 73 68 68 67
44 48 56 70 74 70 68 69 72 75 73 78 80 83 83 83 88 88 80 77 79 83 85 86 85 87 82 79 76 74 69 64 68 68 73 71 75 71 75 76 79 71 67
47 46 54 58 63 64 68 70 77 74 79 78 77 82 89 84 79 80 80 78 81 85 85 87 86 82 77 77 77 77 75 74 75 76 76 78 77 80 82 82 74 71 66
27 41 46 53 60 66 70 72 73 68 67 71 69 68 73 72 73 78 81 82 85 88 88 84 82 78 75 76 80 81 83 85 85 85 87 81 74 73 74 76 76 74 71
45 51 52 46 43 46 51 55 58 62 60 66 69 69 71 76 78 81 81 82 80 76 75 76 78 79 81 81 81 81 83 83 85 85 84 81 77 73 71 68 67 69 70
49 43 40 45 46 52 56 54 57 60 67 69 66 71 74 75 78 80 79 73 71 70 73 74 78 80 81 81 81 79 79 80 80 79 74 72 67 63 63 66 69 70 73
43 39 38 41 52 55 52 53 58 62 65 69 70 73 74 75 67 67 67 70 70 71 71 73 73 73 73 73 71 71 73 74 74 72 71 68 68 70 71 72 73 75 78
41 39 43 51 52 53 54 56 59 60 63 65 65 66 63 63 61 62 64 64 65 64 64 67 70 71 71 68 67 68 67 69 69 70 71 74 77 80 82 85 88 89 90
42 40 43 46 55 62 62 64 61 61 61 63 61 59 59 59 57 56 55 55 59 62 65 67 69 70 72 72 71 72 72 75 77 79 81 83 86 88 92 96 100 102 105
45 50 48 51 54 56 58 58 59 58 57 55 54 54 52 49 49 51 56 60 64 66 70 72 73 74 74 75 75 75 75 75 76 80 85 89 92 96 104 109 113 114 116
45 50 54 51 53 53 56 55 53 50 49 50 49 46 48 50 53 57 61 64 69 73 76 78 80 80 78 75 75 77 79 76 73 72 79 87 97 105 113 118 123 126 128
49 50 51 51 51 50 50 48 46 46 44 43 42 47 51 54 58 61 66 71 76 79 82 84 86 84 79 78 79 79 78 79 83 85 87 95 103 113 120 126 131 133 133
43 43 46 46 46 44 43 45 44 43 45 45 48 53 56 58 60 63 70 74 77 82 85 88 89 82 77 79 81 81 83 89 95 99 102 106 109 115 120 121 123 121 120

GFSSE_250_spd_060.txt.gz
Wind_Speed
73 70 69 70 70 67 70 76 78 75 73 76 77 75 76 77 78 79 80 80 81 83 82 84 85 83 86 83 85 83 87 87 90 87 77 75 72 69 64 65 62 71 79
73 69 69 70 71 71 72 75 75 73 72 76 77 77 75 77 79 81 81 79 80 82 84 88 85 83 82 78 80 83 86 87 87 68 78 75 71 73 68 67 76 84 86
68 68 70 72 73 75 76 74 71 72 67 65 70 76 74 78 80 79 77 81 81 85 88 83 81 81 85 79 74 79 87 85 73 75 81 74 72 71 73 77 83 84 83
67 63 68 73 75 78 79 78 76 72 70 73 73 66 73 80 83 81 83 81 79 80 81 77 81 83 74 76 84 75 78 76 71 83 82 76 73 76 79 83 80 77 76
66 66 69 70 71 72 75 81 74 76 76 78 76 79 84 82 78 77 76 77 78 75 78 79 73 77 81 78 68 75 78 74 80 87 78 72 76 77 81 84 77 73 68
61 61 65 69 72 71 73 71 73 73 78 79 79 76 72 69 71 76 69 69 71 69 64 62 68 75 81 67 78 80 79 78 86 80 78 79 75 78 80 77 74 65 53
56 55 53 58 52 52 68 62 62 67 71 67 63 59 63 65 65 68 71 66 69 69 74 81 79 76 71 82 83 75 78 89 79 79 79 79 79 77 75 69 62 54 48
46 46 38 55 53 50 47 46 48 54 55 60 54 60 64 65 63 59 64 62 70 77 71 70 72 77 84 84 86 80 81 79 79 79 73 74 72 69 65 63 54 50 47
43 48 59 50 50 55 53 50 53 55 54 53 55 60 62 62 64 68 64 72 70 69 69 74 78 84 88 84 81 81 76 75 76 77 74 73 67 65 59 53 49 49 47
35 45 52 47 53 51 54 48 55 53 49 51 57 54 62 58 61 60 68 72 66 71 75 80 83 81 81 82 84 80 77 73 73 73 72 64 65 61 55 47 47 42 49
37 57 48 52 56 57 57 54 47 58 59 58 55 62 67 64 66 69 68 70 73 77 77 79 87 85 91 84 80 84 82 74 79 71 72 63 58 56 46 40 38 45 43
57 64 60 57 59 47 43 57 55 55 63 63 60 63 66 65 65 71 75 78 83 87 81 87 87 81 77 82 78 79 80 81 78 76 75 67 58 55 54 51 52 51 51
54 62 64 56 59 57 52 59 55 55 60 58 61 62 65 69 72 73 80 82 85 80 85 79 79 81 80 77 78 75 74 78 79 76 71 69 65 62 59 61 60 64 60
56 66 70 74 61 59 54 51 62 64 67 65 70 71 71 73 76 79 82 84 77 79 82 84 79 80 81 81 78 79 78 80 78 76 71 71 69 68 66 68 66 67 69
32 35 50 41 48 57 57 53 57 63 68 69 64 73 76 81 81 87 87 80 79 77 80 79 80 78 79 80 78 80 79 77 76 77 76 76 78 77 76 76 76 74 73
28 38 40 39 46 54 64 63 71 71 75 80 80 83 82 85 82 75 73 76 78 77 78 81 79 79 80 78 78 77 80 82 83 83 84 82 81 80 79 78 77 77 75
32 32 42 52 55 48 56 62 65 71 75 74 77 76 77 71 73 71 73 77 77 79 82 83 84 80 77 78 80 79 79 80 79 78 78 78 79 78 77 75 75 77 76
44 47 35 41 44 51 56 58 61 65 68 60 63 65 64 69 73 75 76 76 80 83 80 78 76 73 72 70 71 72 74 75 76 76 75 73 71 70 69 69 70 69 69
36 42 43 42 47 56 63 63 56 54 54 61 60 65 71 71 76 77 77 78 75 73 70 69 69 66 62 64 66 68 72 76 77 78 77 77 75 74 71 70 69 69 71
44 44 44 43 52 50 51 46 52 57 59 62 62 66 68 68 68 69 69 68 64 63 62 61 60 61 63 67 70 74 77 81 81 79 78 77 76 76 77 77 76 76 76
47 41 42 44 46 52 56 56 57 58 59 61 69 72 69 70 68 66 62 63 62 60 58 58 62 66 71 72 74 78 80 85 85 81 77 78 81 82 82 81 80 81 81
39 40 44 46 50 50 50 49 54 61 62 63 62 62 64 63 60 58 58 58 58 58 61 64 67 71 75 78 80 82 85 89 83 80 79 80 83 84 84 84 84 86 89
37 37 39 41 44 50 53 53 54 56 56 55 55 57 58 56 57 58 57 59 62 64 67 69 72 75 79 83 86 88 88 80 76 79 79 79 83 86 89 93 96 99 100
38 42 44 48 51 53 51 51 51 55 54 53 56 57 54 55 56 58 62 64 67 70 73 75 77 80 84 89 92 94 85 79 76 73 78 83 88 94 99 104 109 113 116
40 39 40 38 50 50 51 51 51 50 52 53 53 55 56 57 59 63 67 71 73 75 77 79 84 87 89 92 94 86 81 81 85 88 88 93 97 102 106 112 116 119 123
43 41 41 46 45 46 48 48 48 50 52 53 54 55 57 60 63 66 69 72 76 76 78 83 87 89 92 93 85 81 85 89 95 98 99 100 102 103 107 111 115 116 116

GFSSE_250_spd_066.txt.gz
Wind_Speed
77 76 75 75 74 72 71 69 68 68 68 68 68 70 72 73 73 73 74 73 73 75 75 76 77 81 74 73 78 76 78 79 76 75 74 73 75 76 76 75 72 65 61
74 75 76 77 74 73 71 72 71 71 71 70 72 73 73 75 76 74 76 77 75 79 79 77 76 76 77 79 79 79 77 76 76 75 73 72 73 70 69 71 71 66 65
76 77 75 75 74 72 73 73 73 74 73 73 75 75 75 75 78 78 78 78 80 81 81 80 81 80 80 82 79 75 74 73 72 70 71 69 70 66 67 71 72 72 71
75 75 75 75 73 71 71 71 73 75 73 73 74 74 75 76 76 75 76 78 79 79 81 82 80 78 77 72 73 69 70 70 72 65 69 66 67 69 77 76 78 76 73
73 75 74 72 70 69 70 69 70 69 71 74 73 74 73 74 75 75 77 75 76 78 77 78 75 74 69 68 68 73 71 67 68 71 65 67 72 76 75 77 82 75 67
70 72 69 67 62 67 68 66 67 64 67 71 70 74 75 74 75 77 79 77 77 71 73 68 65 65 67 65 70 68 68 71 72 72 71 72 74 79 84 81 74 68 64
61 57 48 52 51 58 58 53 63 66 63 66 67 69 68 71 73 73 64 61 61 63 55 60 57 64 65 66 68 70 73 74 66 75 75 75 78 77 73 71 66 70 69
49 43 49 49 54 56 59 54 54 56 62 65 65 58 55 54 59 61 56 58 59 55 58 62 68 64 64 69 74 71 70 70 73 77 77 79 75 74 68 71 70 68 67
36 37 39 44 45 49 54 57 55 48 43 46 46 48 50 42 46 54 59 61 62 62 64 64 66 67 64 69 75 67 70 73 79 79 81 80 71 68 71 68 66 66 64
35 39 44 47 49 40 44 52 56 51 49 50 50 48 53 57 59 56 51 55 53 60 65 68 67 74 76 71 76 77 81 81 85 81 75 72 73 71 67 68 66 67 66
45 41 45 42 39 35 51 47 45 49 55 53 54 56 58 58 57 60 62 64 65 71 74 67 65 67 69 75 80 79 80 81 76 72 73 68 70 71 71 70 69 68 64
44 40 43 40 48 37 52 56 58 58 57 55 55 55 57 58 59 61 63 60 65 70 70 67 69 74 77 83 88 87 77 75 77 79 79 79 75 69 67 68 68 66 65
43 42 42 43 40 45 46 51 58 60 63 62 60 55 55 57 63 61 62 68 68 69 71 76 78 81 82 83 81 82 80 82 81 84 82 77 75 73 67 60 59 59 60
43 38 33 38 47 45 52 52 51 57 54 51 58 55 52 61 58 66 64 65 73 81 75 80 84 85 87 86 86 82 81 80 78 77 75 70 63 61 58 57 59 63 64
36 41 42 43 43 54 52 51 55 51 48 52 52 57 58 59 63 61 70 72 76 78 81 75 80 81 80 77 78 77 78 77 74 72 68 64 62 62 63 64 67 69 71
41 47 54 55 54 58 60 60 59 50 48 47 49 49 55 62 64 65 69 75 77 77 81 76 75 78 82 79 80 83 76 73 70 67 68 67 68 69 72 73 74 76 77
43 48 52 54 59 61 54 56 57 50 53 41 44 52 55 60 66 70 69 68 71 69 70 78 83 80 80 82 79 73 71 70 70 71 72 72 73 76 78 79 80 81 83
32 40 54 56 49 54 56 56 50 51 60 61 61 62 66 71 72 74 76 77 76 78 85 83 79 79 79 77 75 72 71 71 71 74 76 78 81 82 82 82 82 83 84
40 49 45 49 46 47 45 53 54 57 48 55 66 69 72 70 69 68 71 71 74 75 74 75 76 76 75 73 73 73 72 73 75 76 78 78 78 80 81 83 85 88 89
32 34 33 37 40 48 43 41 44 45 57 68 67 65 62 65 68 71 72 70 71 74 73 74 73 71 72 74 74 75 76 79 82 83 80 79 82 84 85 87 90 91 89
29 33 37 36 37 39 44 48 46 53 60 63 65 65 67 70 70 69 68 69 72 69 70 70 70 72 74 77 78 78 80 82 81 80 81 86 89 89 90 92 93 92 88
35 36 33 38 41 41 47 54 58 64 61 63 63 62 64 64 66 68 67 66 67 66 67 70 71 74 78 79 79 80 80 79 81 83 87 90 92 93 98 100 98 95 90
35 40 42 44 44 47 50 54 59 60 63 56 57 58 61 60 60 63 61 62 63 66 71 73 78 79 77 77 77 77 77 80 83 87 91 93 94 100 104 105 102 99 96
43 44 43 43 46 50 49 52 53 54 52 54 55 55 57 57 58 58 58 63 67 71 74 74 72 74 78 77 76 80 83 85 86 85 90 92 97 102 105 105 103 101 102
44 44 48 45 44 46 43 44 50 54 56 49 53 59 59 57 56 59 62 66 71 71 72 75 76 76 75 77 80 84 87 89 92 94 92 98 102 105 107 107 106 107 109
54 43 43 43 40 42 44 49 56 59 54 55 57 55 55 56 60 63 66 69 70 73 74 74 73 73 77 80 83 85 89 92 95 97 99 104 106 107 104 108 112 115 118

GFSSE_250_spd_072.txt.gz
Wind_Speed
84 83 82 80 79 78 76 75 72 70 68 67 66 66 65 67 67 67 69 69 69 69 71 71 72 73 74 75 78 77 79 79 80 81 81 84 82 82 80 80 78 74 71
84 84 82 82 80 80 78 77 74 71 69 70 68 67 69 69 71 71 72 74 73 71 74 74 75 76 78 79 79 81 80 82 82 83 83 81 81 79 76 74 70 69 70
83 83 82 83 81 80 79 77 76 74 72 71 70 71 71 73 75 76 76 77 76 76 76 77 78 79 79 81 80 79 79 82 81 80 80 79 73 71 69 68 67 68 69
82 83 83 83 81 79 77 77 76 74 74 73 73 74 74 75 78 78 78 78 79 77 77 78 80 81 81 80 81 80 79 81 78 71 70 67 66 68 70 70 70 67 65
78 80 84 81 78 78 78 76 75 73 73 74 73 74 76 77 78 78 78 78 79 78 78 78 78 80 80 80 77 75 74 68 65 65 62 66 69 70 70 67 63 62 67
77 78 79 76 76 74 74 72 73 71 71 72 73 73 76 76 77 79 80 78 76 76 78 79 78 73 72 69 61 60 60 62 60 60 64 66 69 67 64 65 67 68 63
73 75 75 73 69 72 69 69 68 70 70 72 71 73 72 72 73 71 73 73 76 75 73 71 70 62 58 66 60 58 57 57 60 63 65 71 72 64 67 69 73 69 64
52 60 57 53 51 53 62 66 66 64 67 69 68 72 72 75 72 72 72 71 67 64 65 63 61 60 63 62 63 62 64 64 63 70 73 76 69 67 68 71 67 67 62
37 43 44 41 40 33 36 43 49 56 59 60 60 62 64 64 63 64 63 59 61 54 56 55 59 55 57 58 63 66 67 69 72 73 77 71 71 73 74 70 68 70 69
42 36 33 36 38 40 41 37 39 42 45 46 47 50 48 43 45 45 47 49 47 49 52 53 52 53 58 61 65 67 69 67 72 73 73 73 75 68 69 68 72 67 68
37 35 35 35 40 38 35 42 42 42 43 41 45 40 38 43 44 46 49 49 54 57 58 56 58 64 66 58 63 73 70 73 73 74 75 71 73 73 76 72 69 72 73
43 43 39 38 44 40 39 43 36 30 30 38 43 41 45 47 46 48 51 57 59 61 60 63 67 58 63 68 67 69 72 75 76 79 79 74 69 70 71 70 72 71 63
45 52 48 47 42 42 42 37 33 36 50 39 41 48 50 53 53 55 58 60 60 65 61 60 61 59 62 66 70 73 77 79 80 81 72 74 73 74 72 72 66 63 61
39 39 52 49 46 49 44 45 41 46 50 50 38 43 45 48 50 51 54 56 58 53 56 57 55 62 67 74 73 73 78 80 80 78 74 74 74 71 70 64 63 63 65
38 38 46 49 50 48 40 41 42 45 48 49 45 45 53 56 56 55 53 52 52 56 59 61 67 69 73 74 77 78 81 80 76 75 74 75 75 69 65 64 64 67 70
35 36 44 40 44 45 46 42 50 44 44 44 52 50 59 58 58 57 61 63 64 60 59 67 69 74 75 78 76 81 80 81 77 78 76 75 69 67 67 69 71 71 72
41 40 52 41 47 44 47 49 47 52 55 49 54 53 56 59 61 46 49 57 57 57 64 67 69 72 78 80 80 86 78 76 78 78 74 68 67 69 70 72 71 72 73
41 48 49 53 52 46 51 52 51 54 60 59 54 60 63 64 65 68 67 70 67 69 66 68 72 69 73 78 77 74 75 77 75 73 68 68 70 71 74 78 77 77 74
42 48 51 41 46 49 51 59 57 58 58 60 54 59 63 68 68 73 72 69 64 68 69 70 74 75 74 76 75 75 76 76 72 68 69 71 75 78 79 78 77 76 78
44 42 38 39 46 47 50 51 52 56 60 59 59 60 63 62 63 64 63 61 63 65 67 68 72 74 72 72 75 75 73 70 69 70 72 77 79 80 78 79 81 82 84
47 43 35 36 50 49 48 50 54 56 62 61 61 67 66 65 57 55 61 63 65 71 73 74 76 75 71 76 75 71 70 71 72 75 79 82 80 78 81 86 89 89 87
41 40 39 38 41 45 49 51 56 62 59 56 58 58 58 54 55 56 63 68 75 73 70 70 69 72 72 73 72 72 72 72 75 81 83 82 80 85 88 89 88 91 95
32 39 41 41 42 43 44 46 46 46 47 47 47 50 53 56 58 66 71 70 70 66 69 70 71 72 71 71 74 75 76 78 80 80 79 83 86 89 88 91 95 98 99
38 37 34 42 44 41 47 48 45 43 45 46 51 56 58 60 63 65 63 63 64 67 71 69 72 72 73 73 75 79 82 84 84 82 84 84 85 90 94 97 99 101 103
37 42 38 41 41 39 35 38 42 44 52 55 59 62 63 61 60 60 63 67 64 68 65 72 72 72 74 78 80 83 83 83 83 85 87 90 91 94 98 100 105 105 105
35 35 36 37 42 40 43 46 48 50 52 56 56 58 61 57 59 62 62 63 64 67 71 72 72 75 77 80 83 83 83 84 86 87 87 92 97 103 104 107 106 109 111

GFSSE_250_spd_075.txt.gz
Wind_Speed
89 89 87 86 85 83 81 79 76 75 73 72 72 71 71 69 68 67 67 67 66 67 68 68 69 69 71 73 75 76 76 77 77 79 81 80 80 82 82 84 84 82 81
88 88 88 87 86 86 84 83 80 77 75 74 75 73 71 70 71 70 69 70 70 71 72 71 73 73 75 77 77 78 78 80 80 82 83 83 82 83 84 81 82 81 79
87 89 88 88 87 87 85 84 82 79 76 77 76 74 73 73 72 74 73 74 75 74 74 76 76 76 78 79 80 80 79 80 82 82 82 84 82 79 75 74 73 71 70
85 86 87 87 87 87 86 84 81 79 77 77 78 76 76 76 77 76 78 79 77 77 77 78 78 79 80 80 81 81 81 81 82 81 82 78 77 71 75 72 70 69 70
83 75 82 82 83 83 83 83 80 78 78 79 80 79 78 78 79 80 80 79 79 80 80 81 81 80 80 80 81 79 81 82 78 72 67 69 69 67 68 68 68 70 73
77 72 66 76 80 79 81 77 76 74 76 77 79 78 79 80 80 80 80 79 78 78 79 80 81 80 81 80 80 78 75 70 70 69 68 65 66 67 66 72 71 72 66
62 60 57 60 71 75 73 72 70 71 70 75 77 76 79 78 78 78 78 77 76 78 76 76 76 75 78 75 74 74 67 65 67 62 60 65 70 69 70 70 70 70 67
26 23 37 49 59 60 64 64 63 62 65 68 71 69 69 72 74 75 74 72 72 73 72 73 72 69 67 67 66 63 64 62 61 62 62 64 69 72 70 69 72 73 74
4 36 39 38 38 49 53 57 57 58 56 62 66 67 68 68 71 67 66 59 61 61 52 56 54 54 52 55 61 58 59 59 66 68 67 71 68 70 73 75 77 78 67
39 34 27 24 24 34 40 40 42 47 51 55 58 61 62 61 56 53 51 39 40 46 49 47 48 52 54 57 58 62 64 65 66 70 66 68 72 74 77 78 79 69 67
45 57 36 31 24 26 34 29 29 35 38 40 41 41 38 36 40 40 39 41 45 47 47 51 54 57 58 64 67 67 68 69 76 72 72 75 75 76 77 75 69 69 68
54 48 42 35 29 29 34 32 27 35 40 38 35 35 33 37 42 44 45 47 48 48 49 52 58 63 63 65 67 62 67 72 69 74 75 77 78 80 78 76 71 72 72
51 51 44 36 30 33 22 44 44 35 42 38 35 33 38 41 45 49 50 49 52 55 59 59 59 59 58 61 65 63 64 71 76 76 78 79 80 80 79 76 75 76 75
54 57 49 49 47 46 47 46 42 49 43 38 33 38 37 48 47 46 53 55 47 48 52 54 58 57 58 54 66 70 75 76 76 79 79 78 77 75 73 75 77 75 72
49 55 53 54 54 44 51 45 45 48 42 46 50 49 47 51 48 48 46 50 57 55 57 60 56 59 64 70 69 70 75 79 77 72 78 79 78 76 76 75 73 70 66
42 51 52 53 55 48 48 51 49 52 50 46 51 54 49 55 47 49 50 45 47 46 54 60 67 65 65 68 75 77 74 78 79 81 78 78 76 77 76 75 67 65 66
43 46 39 42 53 54 42 45 47 46 50 51 50 48 52 52 55 56 55 57 58 54 59 62 60 69 74 79 78 80 80 80 78 77 74 73 77 76 74 71 68 68 71
41 40 37 39 51 61 47 46 56 48 47 48 53 54 53 55 57 59 61 62 58 63 67 66 73 80 77 75 73 74 73 78 78 79 78 80 78 73 67 71 71 72 75
37 46 33 38 50 51 48 46 46 47 51 47 55 56 56 55 55 58 61 62 70 72 66 73 71 73 71 72 75 77 80 81 77 80 83 80 75 75 74 70 75 76 77
41 50 44 45 48 46 48 47 49 51 52 49 52 52 57 58 59 64 67 68 72 74 79 72 66 69 73 80 81 79 79 80 80 80 79 75 75 76 77 79 80 78 79
42 48 52 50 47 44 44 53 49 46 50 52 55 60 63 66 66 64 67 71 77 71 69 68 69 74 80 80 80 79 79 79 81 80 78 78 79 79 79 83 83 85 86
44 47 48 40 48 46 46 54 51 54 54 52 52 59 64 68 70 68 71 74 62 62 64 68 73 77 76 79 76 79 77 77 75 75 78 83 84 87 87 84 85 87 89
42 49 49 41 39 46 50 47 51 54 53 54 58 61 65 69 70 64 61 60 61 65 70 74 75 74 74 78 79 77 78 81 81 81 81 80 84 87 87 88 89 89 92
41 49 54 47 46 43 41 44 45 53 54 57 56 58 58 58 58 57 60 62 68 69 73 74 75 76 76 76 73 78 83 83 83 84 88 88 85 83 84 88 94 95 95
34 40 46 50 50 51 53 54 54 52 53 55 58 60 59 59 64 64 64 67 69 68 68 72 76 75 72 75 78 82 82 81 85 87 87 90 91 92 92 92 92 96 98
30 29 34 42 41 45 47 48 52 53 52 48 51 54 59 62 68 69 69 68 66 71 74 75 73 72 75 80 85 84 83 85 87 87 87 88 90 92 95 98 99 99 103

GFSSE_250_spd_078.txt.gz
Wind_Speed
65 74 72 81 87 87 86 83 82 82 81 77 77 76 77 76 75 74 72 70 68 67 67 67 67 68 69 71 69 70 71 73 74 76 77 77 78 78 80 80 80 81 81
56 70 69 74 80 85 88 85 84 83 83 81 80 80 79 78 76 75 73 72 71 69 70 71 70 71 72 73 71 73 74 76 77 78 79 77 78 79 79 81 80 81 80
61 64 67 74 75 81 85 87 85 86 86 85 84 83 81 80 77 75 75 73 72 72 73 72 72 75 74 75 74 76 77 77 78 80 79 80 79 80 80 80 79 73 76
62 72 56 56 73 78 83 87 86 86 85 87 86 86 84 81 77 76 77 75 77 76 76 76 77 77 77 77 76 78 79 79 79 79 81 82 81 80 77 73 73 74 73
51 61 64 58 59 69 81 83 86 87 87 88 87 84 82 79 79 79 79 77 77 78 78 78 79 79 80 82 80 79 79 77 79 78 78 78 76 73 69 67 68 68 67
44 53 48 50 52 61 70 73 77 79 81 81 82 82 81 81 79 80 79 79 80 81 80 80 81 81 82 81 80 79 80 77 78 77 74 73 71 71 69 64 68 67 65
32 49 36 35 33 43 53 60 71 75 75 77 79 80 79 79 78 80 81 80 81 81 81 82 81 79 79 79 77 76 79 76 71 72 65 65 63 63 63 68 66 63 64
20 31 30 27 30 25 37 53 54 69 72 72 73 72 74 75 75 74 75 78 77 78 77 79 76 76 74 72 72 71 68 62 60 62 63 62 63 64 72 72 69 68 68
12 35 24 40 34 33 31 41 46 51 60 69 67 66 69 66 68 70 72 71 69 68 69 71 71 67 64 62 57 55 55 56 56 60 62 66 68 75 72 67 70 69 71
42 51 43 30 39 35 35 37 41 43 50 55 50 51 57 61 63 63 64 65 61 62 59 56 59 53 49 47 48 56 56 58 60 63 68 68 67 64 67 70 73 73 74
54 45 48 33 37 28 25 28 34 30 30 31 34 36 40 44 46 47 47 44 43 46 49 48 48 49 47 49 53 54 57 60 64 64 65 64 62 67 72 73 74 77 75
64 61 67 47 39 26 20 21 22 15 19 23 24 29 33 29 31 33 39 38 35 42 44 47 48 49 53 54 60 58 60 58 63 60 60 69 71 74 78 79 71 75 74
73 63 66 47 30 34 29 27 27 28 31 30 32 31 32 35 36 35 38 43 44 47 54 53 57 54 55 58 55 59 64 60 59 61 68 70 74 77 75 78 76 76 74
66 67 59 48 38 38 34 39 37 40 38 41 39 39 44 44 40 36 44 44 48 53 49 56 59 62 59 62 60 60 62 66 67 73 73 77 76 77 77 78 77 74 74
56 57 61 49 46 42 38 40 43 39 42 41 39 46 44 42 46 41 48 48 49 52 48 46 54 55 62 53 57 67 67 67 66 79 81 79 74 75 73 80 76 73 78
59 60 60 57 52 50 42 44 48 42 46 47 48 46 48 49 50 56 53 48 54 50 53 56 57 54 56 56 57 59 65 71 82 77 74 75 75 78 83 79 79 81 78
62 64 67 63 58 52 48 47 43 50 46 50 49 51 52 53 56 53 58 56 56 54 52 54 57 59 57 59 63 72 73 80 76 74 71 79 84 83 83 83 83 82 76
64 62 63 60 59 55 55 56 52 48 54 53 43 43 52 55 55 58 57 57 61 65 63 65 66 68 73 76 79 83 77 80 78 75 81 81 82 79 78 82 79 75 74
68 62 62 56 54 57 57 62 59 53 55 56 46 49 48 52 55 56 57 59 60 60 62 60 64 67 72 78 79 75 73 74 77 80 84 85 81 84 81 78 78 75 76
42 53 53 50 51 54 53 59 63 56 53 53 52 55 57 51 52 50 53 55 52 56 62 67 71 76 78 78 77 73 73 76 78 82 83 83 84 83 81 82 79 78 79
37 40 43 47 48 51 57 56 60 51 50 47 49 48 47 50 52 54 59 59 64 67 68 75 77 80 81 75 73 73 76 81 82 82 84 83 83 81 83 82 83 85 83
37 39 44 48 44 42 48 54 53 46 46 40 40 44 50 57 57 59 58 62 67 71 77 79 78 75 71 74 75 79 80 78 80 85 83 79 81 85 86 86 85 87 87
40 41 43 53 51 44 46 50 52 46 48 51 54 56 56 59 61 64 65 67 68 68 71 69 66 70 72 74 77 79 78 82 84 81 78 79 83 85 85 88 91 89 88
32 37 43 48 54 55 46 39 46 51 57 59 57 58 61 60 63 66 71 70 67 63 66 67 72 74 78 77 76 79 83 85 81 78 84 86 89 86 87 88 90 92 95
38 39 41 40 50 53 47 47 49 47 49 54 58 58 63 65 64 62 63 61 63 66 69 74 76 77 78 77 80 82 78 78 81 83 87 92 90 93 94 95 94 95 94
40 37 34 37 43 49 52 51 50 54 56 56 58 60 62 64 65 63 66 68 67 69 74 76 76 78 80 80 80 79 80 84 88 91 91 89 91 94 96 98 101 99 98

GFSSE_250_spd_081.txt.gz
Wind_Speed
44 54 63 66 59 65 68 71 79 79 83 85 83 80 82 80 79 80 76 75 74 73 72 71 70 70 70 70 69 69 70 71 72 72 72 72 73 74 74 75 76 76 77
46 40 45 51 53 55 54 57 57 74 81 83 84 83 83 83 82 80 79 78 79 76 75 73 71 72 71 71 71 71 73 73 74 74 74 74 75 75 75 75 76 76 77
30 22 33 29 34 39 46 52 55 54 75 85 86 83 84 85 82 83 82 82 82 78 76 73 72 73 73 73 72 71 74 73 74 75 75 76 77 77 77 76 76 75 72
41 37 50 39 32 37 43 48 52 58 64 75 83 84 83 86 86 86 86 85 81 81 75 74 74 76 75 74 73 73 75 75 76 77 77 77 78 78 77 75 75 73 71
44 44 26 35 36 36 45 55 57 55 51 60 75 79 82 85 86 87 86 86 83 80 78 78 78 76 76 76 75 76 76 78 77 76 77 76 75 76 75 72 72 68 65
31 23 13 33 36 45 38 42 56 55 48 51 62 72 75 82 84 85 83 85 84 82 80 81 80 80 78 78 77 77 79 78 75 77 75 74 73 70 70 65 64 64 64
24 29 28 36 39 31 33 36 33 35 40 49 56 65 72 74 78 79 80 81 82 83 82 81 80 81 80 80 79 76 74 78 71 69 68 68 68 61 58 62 62 65 69
29 20 27 34 29 32 33 36 32 31 36 36 43 56 63 67 68 72 75 76 76 78 78 79 78 75 75 76 76 70 67 69 62 61 60 61 59 57 59 62 64 61 61
31 33 26 31 34 30 32 30 37 38 41 41 40 43 52 62 66 67 66 67 66 68 71 71 72 74 69 68 69 67 56 57 48 53 54 55 57 59 60 57 57 62 63
36 34 36 49 37 39 38 29 38 37 39 39 42 45 47 50 54 58 61 60 56 61 62 63 65 64 66 57 56 46 48 47 45 52 54 57 58 60 56 56 60 63 68
47 58 50 48 52 39 35 33 29 32 34 37 32 28 31 32 34 40 42 46 47 50 48 50 47 44 40 41 42 42 46 48 49 56 57 60 61 61 59 60 67 72 70
51 54 60 55 40 26 41 29 26 22 23 23 23 22 24 20 18 23 30 36 39 41 40 39 40 38 41 42 45 49 53 56 57 60 60 60 58 64 66 69 75 77 71
57 51 56 56 50 49 43 34 34 34 31 32 29 25 22 19 24 29 30 29 30 37 43 37 38 42 46 50 54 55 57 60 58 61 59 61 65 64 69 75 76 70 71
61 60 62 62 53 52 58 41 29 28 31 30 26 33 27 26 32 34 36 36 37 40 40 41 43 47 52 54 50 49 53 59 62 59 62 59 63 69 76 77 77 73 74
61 64 58 58 57 56 58 47 39 32 35 33 33 38 39 38 41 40 43 44 46 42 39 46 49 51 49 46 48 53 57 56 61 64 63 66 75 84 79 76 77 77 78
69 63 62 55 62 61 53 44 43 44 36 40 39 45 43 46 46 45 43 46 48 47 44 51 53 52 52 54 54 57 59 59 62 66 76 81 85 80 79 75 77 78 79
78 71 72 61 58 56 54 47 49 51 48 44 45 42 43 43 44 45 47 49 50 51 55 56 54 56 59 54 57 60 66 74 74 80 81 83 78 79 72 74 76 78 81
83 69 75 57 63 63 60 56 51 52 52 48 52 52 48 50 51 49 50 50 53 55 57 56 58 60 61 68 68 67 67 72 74 78 84 77 76 75 77 81 80 80 81
70 65 64 61 60 62 63 55 57 56 55 55 57 55 56 53 52 52 50 50 52 55 55 59 60 61 60 64 63 67 71 76 79 82 81 72 74 78 81 80 80 82 81
65 62 60 61 63 67 65 60 55 58 59 60 61 60 56 57 56 55 59 55 57 55 57 57 58 60 57 61 70 75 79 81 82 81 78 77 79 80 81 82 83 80 78
65 65 61 61 65 71 67 65 70 64 65 62 61 64 63 62 64 66 66 60 59 60 61 64 65 66 66 69 74 75 73 76 72 73 76 79 80 81 83 83 78 78 80
66 65 67 67 62 69 72 70 70 65 65 62 62 64 67 66 64 60 58 54 56 60 60 62 64 69 73 74 68 68 68 70 76 79 81 82 81 84 83 79 79 79 84
58 68 73 68 66 67 65 66 62 60 60 64 63 65 66 69 69 68 62 57 60 64 67 70 71 72 72 72 72 72 75 78 79 82 83 84 83 82 81 81 85 89 91
44 47 51 56 59 56 59 60 61 59 58 56 59 61 65 63 58 59 63 65 67 70 69 68 71 69 71 72 76 79 80 84 84 84 86 85 84 82 84 85 86 88 88
43 44 46 47 47 48 53 56 56 50 41 41 47 50 54 56 58 60 61 63 64 64 68 72 70 75 76 78 80 81 82 85 87 88 88 90 87 88 90 90 91 90 92
34 34 35 37 41 48 51 52 57 63 60 58 58 53 54 55 58 59 62 66 67 69 70 75 79 79 79 84 83 82 84 86 85 88 85 85 87 92 93 95 92 95 97

GFSSE_250_spd_084.txt.gz
Wind_Speed
62 56 59 59 66 65 60 70 64 66 78 83 86 86 84 78 81 82 79 78 78 80 78 77 74 74 74 74 71 70 69 69 69 69 70 71 71 72 73 73 75 75 75
48 51 59 67 48 44 46 57 59 55 59 65 66 76 80 85 86 84 83 83 81 81 82 79 78 77 76 75 73 71 71 71 71 69 71 73 76 75 73 73 74 74 76
49 58 59 38 25 22 18 21 27 47 47 47 49 57 74 79 79 76 82 86 85 83 81 82 80 79 80 75 74 73 73 73 71 71 71 74 74 74 75 74 74 73 72
49 51 50 34 18 18 13 20 28 34 40 40 46 51 53 59 74 82 76 79 83 87 84 84 83 83 78 76 77 74 75 75 72 73 73 74 75 76 76 74 73 73 69
44 38 32 40 33 34 25 24 26 23 32 41 44 50 56 51 64 71 76 81 82 83 83 84 83 81 78 80 79 78 77 77 74 75 76 76 77 75 73 72 69 66 64
42 54 43 49 43 35 16 14 17 23 33 32 39 49 56 57 52 62 68 71 75 76 78 80 78 79 78 80 80 80 80 78 75 74 75 75 73 72 70 63 57 58 56
42 47 38 41 26 13 14 18 23 28 25 28 31 31 45 49 48 52 59 64 66 69 72 76 76 76 74 77 79 81 76 77 75 70 69 68 68 66 62 59 54 54 56
36 35 33 36 34 17 34 23 32 25 31 35 42 44 41 41 48 49 52 57 62 65 68 71 73 73 70 71 75 75 68 69 68 64 64 61 60 54 52 51 52 56 56
36 43 40 36 31 23 33 34 36 37 36 46 46 47 41 41 40 41 46 51 54 56 58 59 62 66 64 64 65 70 65 57 56 55 56 49 46 49 50 54 57 58 59
50 40 43 50 44 27 54 43 47 41 41 46 47 47 44 41 40 38 38 42 47 51 55 57 58 57 61 59 58 53 54 48 51 53 46 45 48 50 56 57 58 58 57
48 46 32 40 31 28 53 49 56 39 41 37 45 44 35 30 31 37 36 42 44 45 46 50 47 47 45 45 53 47 45 48 43 44 48 50 54 58 61 60 58 61 63
48 45 43 43 39 53 46 51 52 45 34 26 26 35 34 28 30 31 34 34 31 32 35 37 40 42 46 41 45 40 37 39 46 50 55 56 58 59 59 65 68 63 64
49 61 57 39 30 50 48 60 65 59 38 28 27 34 24 24 26 29 34 34 30 33 35 37 39 39 38 37 36 42 42 48 52 54 53 54 57 63 63 66 62 65 76
51 51 55 51 47 55 53 63 51 47 39 35 37 35 31 25 25 27 29 29 29 34 37 37 34 35 36 35 42 47 50 52 52 51 53 59 66 62 68 67 67 78 79
56 56 58 55 56 55 53 53 50 52 41 39 36 33 34 36 31 33 37 37 32 35 40 39 40 42 43 44 48 52 54 56 56 61 63 64 63 66 71 79 80 78 80
59 59 61 61 62 66 60 62 50 45 39 40 39 39 39 35 35 38 41 38 38 39 41 43 45 46 49 51 52 56 58 58 59 60 62 70 73 75 73 76 79 78 76
62 62 69 74 60 65 50 55 56 47 44 48 46 40 37 36 38 39 43 43 45 43 44 46 49 52 53 56 56 55 58 62 61 63 68 72 72 74 78 81 81 79 80
61 61 59 69 63 60 60 52 56 57 52 48 47 48 44 39 43 43 44 48 45 49 50 50 51 52 55 56 58 61 60 65 71 67 69 74 74 81 80 78 77 78 80
68 64 67 70 66 63 58 60 58 57 59 56 51 51 53 53 52 52 54 53 52 54 57 55 57 57 58 61 63 64 69 68 66 69 73 78 80 74 76 79 79 82 83
69 67 72 73 76 72 62 59 59 65 66 68 66 62 60 60 61 60 62 63 62 62 62 63 63 64 65 68 69 64 66 69 72 74 78 77 78 80 80 80 82 83 85
68 73 76 74 78 82 79 73 70 70 69 58 57 60 64 62 65 67 68 66 68 69 69 68 71 73 74 71 71 68 69 75 75 74 77 79 77 80 83 83 86 88 86
69 61 73 69 74 72 77 76 70 63 67 71 70 66 67 67 67 66 65 69 70 72 74 73 74 74 70 69 68 69 73 79 77 75 77 80 80 84 86 85 86 85 86
72 64 61 62 70 72 71 66 65 64 63 67 70 67 67 65 68 68 73 70 72 73 71 69 68 70 68 68 71 73 73 74 78 79 82 84 86 87 88 88 87 86 85
70 67 61 62 64 69 67 64 66 67 63 64 68 67 62 63 68 66 60 61 61 63 63 63 66 68 72 72 74 76 77 78 79 82 84 84 87 87 88 89 88 87 87
62 62 60 61 64 68 70 68 68 63 63 61 61 58 55 52 52 53 58 60 64 65 64 69 72 70 71 69 70 76 80 86 82 85 87 86 88 90 89 86 86 88 89
56 56 58 57 53 50 51 52 53 55 54 56 60 59 56 57 56 58 62 63 64 67 68 71 72 74 74 76 79 80 82 84 85 84 88 90 89 88 89 90 91 92 91

GFSSE_250_spd_087.txt.gz
Wind_Speed
65 69 71 71 69 72 73 69 68 70 74 76 76 77 81 77 77 83 83 78 73 72 74 73 77 76 78 79 76 75 75 75 71 71 70 69 70 70 70 71 72 73 74
64 63 62 59 63 69 70 64 59 60 61 54 59 63 74 85 86 80 81 81 78 79 75 76 75 77 80 83 82 77 78 78 74 72 72 71 72 72 73 73 73 74 73
63 60 58 56 61 70 70 50 40 28 29 38 50 52 46 47 70 82 77 77 74 78 78 81 83 88 84 85 85 83 83 80 76 73 74 73 73 74 73 73 73 73 73
55 55 52 56 59 61 49 34 26 14 18 22 27 33 31 35 43 51 56 65 76 87 90 86 84 82 84 85 85 83 83 81 79 78 76 73 73 75 73 74 74 74 73
44 51 53 56 53 44 36 31 20 14 13 17 15 18 24 27 30 37 45 51 53 62 73 77 85 83 81 83 82 80 78 78 78 77 75 75 76 75 74 71 72 71 69
37 40 41 46 40 39 45 34 17 12 8 9 16 22 23 31 40 43 49 59 62 62 62 67 70 77 80 78 75 76 76 73 75 73 73 72 72 71 72 71 69 67 65
34 38 41 39 50 54 44 31 22 9 6 9 18 22 27 29 25 27 32 35 47 60 59 61 69 71 72 73 71 71 71 69 68 68 70 70 69 67 64 64 60 57 54
30 35 40 44 46 43 38 31 26 13 8 10 21 25 26 28 29 35 36 41 43 51 58 55 57 63 65 64 62 61 64 64 62 62 63 62 58 58 57 57 52 48 50
33 36 43 43 42 34 25 36 27 22 19 17 18 29 34 33 35 43 47 45 43 40 49 51 48 53 58 60 58 57 56 53 53 56 58 57 52 48 51 45 46 49 52
37 49 46 55 39 29 35 34 32 36 21 17 22 34 36 39 41 43 49 41 38 35 36 38 44 50 50 50 53 50 49 52 50 50 51 51 47 42 46 48 51 54 57
50 48 42 46 34 22 38 30 43 45 30 25 25 38 43 44 47 50 43 36 39 33 32 36 36 38 39 42 43 45 46 44 46 44 44 47 45 46 49 53 53 56 55
42 43 46 45 38 32 44 42 51 49 41 32 30 22 36 28 32 33 35 39 39 40 32 30 30 31 33 37 39 40 41 42 35 41 41 44 46 53 55 55 54 56 63
42 40 46 47 47 33 36 48 46 30 43 34 32 32 17 25 33 33 36 38 42 42 30 33 32 28 31 33 37 35 34 37 37 43 44 50 56 57 58 59 61 63 61
41 43 40 33 44 43 35 54 48 45 53 45 36 35 23 33 35 33 32 31 40 30 37 32 30 31 37 35 38 37 39 43 46 48 51 56 58 59 62 62 58 66 73
41 35 36 27 42 44 37 46 48 46 48 41 41 41 35 31 29 26 30 40 38 33 32 29 33 41 38 38 39 40 43 48 51 53 57 58 59 59 60 64 70 72 72
48 39 37 35 42 38 37 44 50 45 47 48 45 46 41 37 32 27 37 38 37 36 35 34 39 40 42 41 44 45 49 52 55 56 57 58 60 63 65 70 72 71 74
47 42 42 40 50 50 49 49 57 52 53 50 52 50 46 41 43 45 36 39 35 36 41 42 41 46 48 47 51 49 55 56 57 55 62 63 66 70 68 69 71 77 82
47 44 50 49 49 51 55 58 57 50 54 54 51 51 49 44 45 42 39 43 41 44 44 48 49 50 51 53 58 58 58 59 60 64 68 70 72 70 70 76 79 81 82
53 48 57 57 51 59 51 59 57 53 49 57 56 48 50 45 43 42 46 47 48 52 55 60 60 60 61 62 60 62 64 67 68 70 72 77 73 76 74 77 81 85 82
55 51 57 59 54 53 61 50 60 57 58 53 49 46 47 45 50 51 55 57 61 59 62 63 64 62 64 67 68 70 71 70 74 78 78 76 73 75 79 80 83 81 85
63 58 59 63 58 62 61 60 57 54 54 53 51 56 58 64 67 69 66 63 60 62 61 63 66 67 67 68 63 66 67 72 72 76 73 73 79 79 77 80 83 86 87
68 64 57 68 64 61 67 71 67 68 64 63 59 63 66 69 71 67 69 71 66 62 60 64 61 57 61 65 70 71 75 74 73 71 72 75 77 80 83 84 86 88 86
72 78 66 71 67 65 66 70 72 74 74 74 73 70 70 71 66 66 64 63 66 67 58 60 62 64 69 68 67 67 69 69 71 74 76 78 78 82 86 86 85 87 86
64 66 76 72 71 75 73 72 77 77 75 77 76 75 74 71 70 70 71 62 68 64 57 61 64 60 60 62 64 66 70 73 77 78 81 81 82 84 83 89 87 85 87
61 63 59 72 76 72 80 75 76 71 72 72 73 71 71 69 71 74 66 63 60 64 62 63 61 62 66 66 69 75 78 82 80 81 82 88 87 85 84 87 85 88 88
53 58 58 66 69 73 70 69 67 70 69 69 75 74 70 72 65 62 60 56 59 63 61 65 66 70 71 73 75 74 73 76 80 82 84 87 84 85 87 91 90 90 90

GFSSE_250_spd_090.txt.gz
Wind_Speed
72 68 64 58 69 72 67 68 69 65 69 71 76 72 73 76 77 80 81 79 78 75 76 74 71 72 73 74 76 79 78 78 75 71 74 73 72 70 72 72 73 73 73
66 65 68 57 66 67 64 61 63 65 67 65 68 72 71 65 72 76 75 74 74 73 76 75 76 71 72 72 76 78 76 78 77 76 75 76 78 76 75 75 76 75 73
67 64 63 60 62 63 60 62 63 65 62 61 58 56 63 64 66 63 72 74 76 70 72 77 77 77 74 76 76 74 79 81 81 83 80 81 82 79 76 77 77 76 75
59 61 61 54 57 57 55 60 63 58 58 50 41 45 41 40 48 44 44 45 48 67 78 72 71 78 80 76 78 80 86 86 87 86 84 80 82 80 79 77 75 75 73
56 54 54 51 55 57 56 59 57 50 45 40 28 26 31 31 35 37 33 34 34 43 55 61 61 69 71 74 80 86 88 87 85 83 78 77 78 78 74 73 70 67 67
42 44 44 44 47 54 55 56 43 46 41 27 18 16 20 24 28 30 28 29 31 34 39 43 57 60 60 64 68 69 73 77 77 80 80 74 73 68 68 67 62 62 62
25 22 26 26 30 47 52 48 41 44 37 24 21 16 17 17 20 25 24 25 22 25 31 39 41 43 48 62 66 68 70 67 64 66 65 62 61 56 59 59 60 56 53
23 28 29 26 30 35 44 43 42 43 36 24 13 12 17 19 18 16 13 18 18 29 40 43 43 41 39 44 52 56 61 60 58 53 54 55 53 51 51 53 52 45 44
21 33 43 40 35 37 42 37 46 42 33 24 23 21 21 21 21 19 18 18 23 31 38 29 31 33 30 33 39 43 44 46 45 48 49 44 45 48 47 45 46 47 46
26 29 39 36 29 38 44 51 43 41 36 31 25 26 24 21 18 22 25 28 31 41 26 30 34 27 27 27 26 30 33 35 40 41 42 41 41 42 42 44 44 44 49
28 31 32 35 40 44 49 46 46 39 31 28 22 16 16 14 19 25 28 33 33 27 43 25 37 27 26 23 23 27 29 29 33 35 39 42 43 43 44 45 46 49 51
26 31 32 38 39 43 41 44 42 34 28 25 21 17 20 25 30 35 30 23 19 28 26 42 27 28 29 22 26 28 26 25 30 34 40 40 40 42 42 44 48 53 54
21 33 35 36 39 45 43 46 37 31 28 36 28 22 26 30 32 25 22 24 32 29 36 35 23 30 27 23 30 26 29 28 34 40 42 41 42 43 45 49 54 54 56
22 30 39 39 45 41 37 40 36 43 42 41 38 35 31 31 32 26 24 16 23 25 25 16 27 29 27 30 28 30 36 38 50 40 41 43 45 48 49 55 54 54 56
31 31 31 37 32 44 41 37 45 36 42 44 51 41 40 33 37 37 27 27 15 23 23 21 26 27 31 31 37 37 39 40 44 45 47 48 52 56 55 54 54 55 62
33 35 38 36 36 29 33 34 38 39 43 42 38 47 47 41 37 34 32 25 23 27 22 24 25 28 30 37 40 50 50 44 48 53 54 53 57 52 53 54 59 66 71
40 33 37 40 34 33 38 33 38 43 34 50 51 54 50 44 40 40 38 33 33 27 29 32 36 35 43 51 51 54 49 49 54 58 56 57 56 55 60 65 65 72 71
38 36 30 36 26 33 37 38 37 49 44 46 47 50 51 51 48 48 44 36 36 37 38 39 43 51 54 54 50 52 56 57 57 60 61 63 62 65 67 66 69 70 70
43 33 34 28 30 34 33 41 46 51 50 50 54 55 54 43 45 44 45 44 43 40 43 49 57 59 58 53 53 57 57 61 61 62 62 60 64 63 64 66 67 69 73
48 43 41 33 38 39 42 41 46 50 54 54 59 58 55 52 49 46 47 44 47 53 58 61 62 59 58 56 58 59 59 61 58 58 60 62 65 64 65 68 69 72 75
57 51 48 42 38 43 40 48 48 55 56 55 53 43 39 46 49 49 49 51 58 63 68 69 66 61 60 61 57 60 57 55 59 62 66 68 66 66 66 68 72 76 79
62 59 57 54 45 54 44 41 57 57 58 57 54 56 57 58 55 55 55 58 62 66 63 63 62 62 56 59 53 54 58 61 63 65 66 65 65 69 74 76 76 76 79
68 63 64 61 54 54 58 52 47 55 62 61 62 56 60 63 67 67 69 75 69 68 72 59 62 58 59 54 58 57 58 62 60 63 67 69 75 73 70 73 75 77 80
74 69 63 65 62 53 55 64 62 60 60 64 63 67 69 70 74 74 72 72 71 62 59 60 61 59 60 57 61 59 62 63 68 71 73 73 73 70 72 73 76 78 79
67 74 67 63 67 65 68 59 72 71 69 67 69 72 76 74 68 65 65 65 61 57 55 58 60 59 59 61 63 63 61 65 67 66 68 65 66 71 75 71 76 79 84
45 56 68 67 62 64 65 63 68 72 74 72 73 73 73 73 71 65 67 63 61 62 61 60 63 66 65 64 59 61 65 63 63 62 64 64 66 70 75 82 86 88 93

GFSSE_250_spd_093.txt.gz
Wind_Speed
71 71 70 67 64 66 65 72 75 72 68 67 70 72 72 77 78 79 79 76 76 75 75 78 77 78 76 74 74 75 77 76 77 76 76 74 74 75 73 70 70 69 71
67 69 69 63 66 65 63 66 64 64 66 66 65 66 67 69 71 71 71 73 70 73 74 73 76 73 73 70 70 73 71 71 70 69 71 73 75 78 75 72 74 75 75
65 67 64 60 65 64 61 65 63 58 57 54 58 59 61 56 51 66 64 64 59 64 70 68 70 71 68 66 65 67 66 70 72 67 71 74 77 77 77 77 81 80 79
57 57 58 58 58 60 59 63 60 58 54 53 52 54 56 54 55 56 58 59 61 56 60 65 63 64 65 65 65 64 68 71 73 76 81 81 81 80 82 82 83 82 81
46 46 45 47 49 53 52 56 55 52 50 51 55 54 49 44 50 49 49 42 49 42 44 48 49 54 65 71 72 72 76 80 78 74 74 66 63 67 68 72 72 74 73
36 20 21 36 38 44 48 54 54 52 49 48 48 44 41 44 30 29 32 33 36 40 36 34 39 40 37 42 43 44 50 58 54 57 60 59 59 57 56 55 55 58 55
17 11 29 38 19 23 35 44 50 47 47 43 39 35 25 24 23 24 31 35 33 32 31 24 14 21 27 32 35 39 44 51 52 53 52 50 48 46 47 48 51 52 46
15 43 48 33 10 15 19 20 37 44 40 43 40 29 21 22 20 24 35 40 36 20 11 11 15 15 21 26 26 27 27 30 32 31 33 34 39 41 43 46 43 43 41
12 36 44 37 28 17 17 16 28 35 42 41 39 42 24 25 16 16 21 27 22 22 11 11 10 12 13 16 17 15 13 17 18 21 24 27 29 30 31 31 35 35 35
9 32 50 49 50 41 28 21 28 37 35 35 36 33 35 23 17 21 22 19 14 12 16 25 18 19 21 17 14 12 14 10 12 15 16 28 29 32 32 30 31 35 36
10 38 59 57 57 47 34 32 30 30 35 38 35 29 24 25 26 24 23 20 15 16 22 17 21 14 19 18 13 15 17 14 11 22 33 36 32 31 30 32 37 37 39
7 38 51 55 57 36 30 35 36 38 40 38 34 32 28 29 26 25 22 19 21 20 14 20 26 23 26 20 15 17 19 24 28 35 30 36 29 32 33 38 41 43 42
6 33 42 43 36 38 40 42 44 45 41 35 39 39 38 28 25 23 17 16 16 18 15 19 18 25 27 21 17 31 33 36 32 39 33 35 33 35 41 39 42 45 44
8 21 29 36 38 39 41 47 45 36 41 40 41 37 40 25 18 22 18 20 18 16 15 19 24 26 20 33 29 22 32 40 40 41 42 33 38 42 40 44 45 45 46
11 13 25 28 26 37 50 41 40 49 49 41 41 35 30 22 25 28 28 28 29 24 21 19 26 23 28 31 22 32 40 48 44 48 42 38 41 45 47 47 46 46 45
16 14 25 27 21 30 46 45 44 48 52 48 38 38 31 29 29 32 36 36 33 26 26 34 21 22 25 22 34 43 46 45 48 50 43 45 46 48 49 47 49 48 49
25 17 22 30 30 29 32 43 40 44 41 33 32 40 35 33 35 33 37 36 33 30 32 26 23 27 27 35 44 48 53 54 51 46 46 48 50 50 48 51 51 51 58
31 25 25 30 29 30 33 44 38 38 38 37 36 42 41 39 44 43 42 42 37 37 34 35 33 34 41 48 57 55 58 56 51 49 49 51 50 49 52 54 54 56 60
35 33 22 34 31 25 29 32 33 30 37 42 51 51 46 46 50 44 43 40 36 38 39 41 48 48 52 52 55 57 58 56 52 51 49 49 46 50 53 56 59 62 66
33 39 33 24 35 21 33 32 35 41 41 47 46 45 50 50 52 52 50 47 47 45 49 47 48 53 53 56 63 67 58 54 55 49 47 47 50 55 57 61 64 66 63
37 44 44 31 30 26 26 32 37 39 42 45 47 46 54 56 51 53 56 49 46 40 53 54 58 62 64 70 63 63 56 49 47 47 51 53 55 58 62 64 64 67 71
45 38 49 36 37 29 32 29 30 36 43 46 51 50 53 53 53 48 51 55 51 54 51 55 60 67 71 68 64 52 49 51 51 53 55 57 57 60 61 66 70 67 70
47 42 50 46 39 42 35 35 36 37 43 43 49 48 55 55 55 55 53 57 61 61 64 68 71 69 66 61 58 51 51 55 55 56 56 56 59 62 63 64 63 60 59
40 47 47 53 48 46 44 41 43 47 46 49 54 55 54 52 52 55 60 66 68 69 70 69 66 61 56 58 55 54 56 57 55 56 55 59 64 62 58 53 57 63 64
40 44 53 54 58 55 51 52 47 56 55 49 54 55 60 65 68 69 71 69 72 74 68 66 54 58 58 56 53 52 53 56 57 59 61 61 59 57 59 63 67 70 74
32 37 35 46 49 53 50 59 61 53 55 64 65 61 65 65 67 69 71 75 73 65 56 58 59 56 56 52 51 55 58 57 57 61 62 60 55 62 72 70 72 77 82

GFSSE_250_spd_096.txt.gz
Wind_Speed
70 68 69 70 69 71 70 72 74 76 78 76 80 77 79 77 78 78 80 79 77 76 78 78 77 75 75 77 76 76 75 74 77 76 76 76 74 71 71 70 65 65 65
65 64 65 67 67 66 62 64 65 71 67 73 76 73 75 76 75 76 76 73 71 71 70 76 74 72 72 76 74 75 74 74 74 74 77 77 76 73 71 68 67 70 74
62 60 61 60 57 58 61 63 61 66 62 61 63 63 67 67 66 69 67 64 62 63 65 61 63 65 67 68 70 73 72 72 72 71 69 67 66 67 68 73 75 74 77
55 49 46 43 42 43 48 53 55 57 59 58 59 57 54 58 55 58 56 45 55 55 53 52 50 50 58 59 62 65 66 66 65 63 63 65 71 76 74 72 72 74 71
45 35 27 24 19 16 22 31 48 49 53 54 53 52 48 40 32 30 28 42 55 50 49 46 49 51 55 58 58 57 62 64 66 65 70 65 62 63 63 61 63 61 63
32 23 9 9 11 23 30 30 32 44 47 50 50 47 45 39 48 39 44 48 54 51 45 38 36 40 41 46 54 55 43 47 54 54 50 50 56 55 55 56 54 45 43
20 23 21 13 20 39 31 31 23 31 39 44 45 43 45 44 50 42 48 51 45 33 30 25 28 25 24 26 29 33 31 32 37 38 38 40 39 39 41 22 21 22 28
29 34 33 33 40 46 38 29 15 20 30 39 42 41 38 43 46 44 34 31 33 32 30 29 28 24 14 12 20 23 28 29 30 28 16 8 8 15 14 25 17 19 20
36 36 37 31 56 47 22 27 20 20 16 34 38 37 34 37 39 33 33 30 31 30 28 22 19 20 17 11 5 9 12 11 7 15 7 14 18 27 20 24 23 22 24
36 41 39 42 50 41 38 43 22 20 21 25 34 33 32 32 24 24 25 27 32 30 26 23 17 19 12 12 16 12 4 7 6 3 12 24 26 35 20 24 22 21 24
30 45 50 49 56 52 55 41 23 12 24 29 36 33 37 26 22 28 25 26 23 30 25 17 17 20 11 10 15 11 12 8 11 15 23 33 29 34 28 25 26 29 29
14 47 54 48 54 64 56 40 34 49 35 32 36 35 35 29 30 23 32 26 29 24 21 16 19 20 16 14 11 14 21 24 23 24 31 34 35 35 34 30 28 30 31
9 43 53 46 51 59 53 43 30 37 34 30 28 28 31 28 31 31 28 29 26 22 17 17 17 10 16 17 5 18 27 28 27 34 40 37 33 33 34 32 37 37 38
10 31 53 54 52 55 49 47 40 37 32 27 27 32 31 35 35 33 31 32 25 17 11 18 20 14 17 17 24 23 34 29 37 39 38 40 35 38 37 36 35 40 42
13 12 44 56 51 43 47 46 41 45 36 29 29 33 37 36 33 33 34 32 31 26 13 17 20 23 16 25 28 30 25 31 39 41 40 38 48 45 43 41 41 43 44
12 13 28 43 55 43 46 46 45 45 38 39 39 39 39 42 39 30 26 27 26 28 24 17 21 24 19 24 29 32 39 42 46 49 47 49 53 46 45 45 47 48 46
20 16 22 23 36 28 40 36 43 37 39 36 43 42 43 42 46 36 29 28 26 29 27 26 28 28 30 30 36 40 41 45 45 46 56 59 56 51 45 48 49 46 47
27 22 20 27 30 29 26 45 24 30 41 44 45 45 40 38 33 32 33 35 27 33 30 33 31 29 33 42 42 40 52 52 54 59 63 59 49 47 49 50 46 47 52
33 31 25 25 30 30 28 37 30 43 47 46 47 43 38 39 42 36 39 38 36 38 38 39 35 33 42 39 45 53 55 61 62 66 57 51 50 50 48 47 49 50 55
36 37 29 30 32 30 31 33 38 37 50 45 47 38 38 37 37 36 40 32 35 38 42 37 43 50 44 49 50 54 66 68 68 65 54 55 52 50 49 49 50 56 60
34 39 35 32 35 31 27 26 32 39 42 42 42 42 41 39 42 46 46 43 52 50 50 54 55 44 52 49 59 69 66 71 67 57 54 54 52 52 51 54 60 63 63
43 31 43 35 33 37 31 30 29 35 40 39 41 44 49 52 49 49 52 53 54 56 56 54 53 55 54 59 68 67 70 68 60 51 52 53 56 55 57 60 63 62 62
39 43 43 44 35 36 33 38 38 39 43 44 48 46 49 51 50 51 51 53 55 52 60 55 56 58 57 67 73 73 70 61 54 55 56 57 58 59 60 61 64 64 64
25 48 46 50 45 36 36 38 40 39 42 42 48 49 52 56 57 53 58 58 61 64 61 64 66 68 70 76 77 67 56 54 57 57 58 60 58 63 63 65 66 70 61
13 37 51 45 55 50 43 40 39 38 44 46 46 44 47 47 53 53 55 58 59 58 61 66 67 74 74 71 61 55 55 57 62 62 63 59 60 63 65 66 61 59 64
14 24 45 49 48 57 51 52 49 42 45 45 46 50 54 55 55 55 58 61 63 69 73 74 71 62 61 55 54 54 58 59 63 63 60 58 56 57 58 57 60 64 62

GFSSE_250_spd_102.txt.gz
Wind_Speed
68 72 72 73 75 75 75 75 77 78 76 76 79 80 82 84 84 85 85 86 86 87 86 85 85 84 82 81 80 78 78 78 78 76 75 75 76 73 75 76 75 76 77
61 68 65 66 67 67 66 64 65 67 66 68 70 74 76 79 81 82 82 81 82 84 84 84 83 84 81 81 79 76 76 73 73 72 71 72 73 73 70 69 69 68 70
58 59 57 57 55 56 53 53 55 50 56 57 58 61 65 69 72 76 79 79 78 78 78 79 80 79 79 80 78 76 74 72 69 67 63 64 59 58 63 64 64 61 62
55 51 54 50 46 47 43 45 43 39 39 39 45 48 51 57 61 62 65 67 71 73 71 69 65 73 70 70 68 65 65 58 53 44 44 45 56 58 55 58 58 56 60
53 49 46 43 41 38 39 31 24 12 1 6 14 22 38 42 44 54 58 60 59 61 65 67 64 64 60 59 55 52 48 44 39 43 49 54 48 56 55 51 49 52 55
51 47 38 38 35 32 26 30 22 17 3 13 23 21 27 34 40 46 48 50 48 44 43 37 37 45 44 46 41 34 34 36 40 46 40 43 52 47 45 46 52 46 37
43 41 36 24 29 31 35 30 27 15 7 16 25 30 24 20 30 34 33 36 35 24 25 25 22 25 26 27 29 28 32 38 53 51 52 56 51 44 35 31 30 18 17
35 33 23 38 39 43 42 34 31 6 20 25 29 32 26 25 21 28 27 30 21 24 26 24 22 22 25 27 32 34 38 35 41 48 55 56 41 32 13 12 11 20 9
28 25 33 45 50 47 42 39 37 37 41 38 25 30 22 21 41 34 29 28 28 26 23 21 24 34 39 38 33 32 36 34 33 35 36 30 21 9 10 16 13 12 13
27 22 43 46 41 44 41 43 43 49 53 40 24 24 24 13 22 36 42 32 32 22 31 35 32 45 45 43 32 30 31 28 28 29 28 23 12 11 12 11 11 13 17
26 21 30 53 36 37 36 39 44 49 54 28 26 24 20 15 15 24 30 35 39 35 43 44 41 42 43 43 43 27 26 21 19 20 25 15 19 18 15 18 19 23 26
24 18 23 50 33 38 36 35 47 44 54 62 34 23 22 22 21 24 26 38 47 43 43 42 40 41 42 37 36 29 23 25 27 23 20 7 13 16 17 23 25 29 34
24 18 21 36 37 33 35 41 48 39 49 54 43 28 27 28 22 23 27 35 51 45 43 35 34 35 34 33 32 29 24 28 25 24 21 12 15 26 25 28 28 34 36
18 18 17 24 41 35 36 49 54 40 49 56 36 32 34 30 22 26 37 38 50 47 45 33 35 32 31 33 30 28 29 34 31 28 20 19 19 26 30 34 39 42 41
17 18 14 31 40 44 47 57 48 52 40 43 39 34 39 33 25 31 34 33 32 35 41 32 32 28 31 33 32 29 29 34 33 30 27 24 31 30 36 42 42 44 44
17 18 15 35 45 56 57 57 51 54 52 51 39 46 43 42 33 36 32 36 35 40 31 29 27 27 27 30 30 32 34 36 37 32 30 29 32 36 38 44 48 51 55
17 20 18 34 52 62 57 55 52 56 48 48 51 56 42 37 32 39 37 36 36 34 32 29 29 29 30 30 29 31 29 27 32 26 36 41 39 39 47 48 53 58 59
13 24 23 32 52 64 62 62 61 59 54 58 53 58 57 51 38 38 42 39 36 37 36 32 32 25 20 27 23 21 24 34 31 33 39 41 46 49 52 57 59 60 63
9 25 29 22 45 66 66 66 62 64 60 63 59 51 48 51 48 48 46 42 39 40 37 35 31 29 27 26 28 31 29 32 37 39 45 44 43 51 56 62 60 65 70
12 22 34 33 27 64 72 67 66 61 67 63 64 66 51 48 51 51 48 43 46 40 34 28 29 34 30 29 30 36 37 36 39 45 44 51 58 59 62 62 66 71 72
14 11 35 42 31 29 66 68 66 65 66 65 64 63 60 53 51 53 48 42 41 44 37 34 33 35 36 34 35 36 46 50 52 47 53 57 61 61 65 70 74 72 69
18 13 34 43 38 33 32 50 65 61 59 52 53 66 62 63 55 52 46 43 37 41 42 38 41 41 42 39 43 43 49 51 51 53 55 62 66 69 71 76 76 74 68
20 14 20 42 41 41 30 41 42 40 43 39 40 38 42 58 59 54 47 46 40 37 36 40 42 45 47 45 42 49 49 53 54 59 64 66 69 74 75 77 79 70 63
21 14 16 38 45 47 38 44 44 42 39 40 37 39 42 43 51 50 44 42 41 38 38 39 41 49 52 52 53 54 57 60 63 64 66 72 74 75 81 80 69 67 65
23 17 13 32 49 50 47 40 48 40 35 46 37 36 46 47 47 48 47 46 42 41 38 43 52 59 59 58 59 59 62 67 65 71 75 74 79 83 78 67 68 69 71
25 18 13 20 48 48 50 45 46 45 43 43 45 41 39 49 50 47 49 46 44 47 48 55 61 63 62 66 66 66 67 68 71 72 77 80 80 70 68 69 71 74 70

GFSSE_250_spd_108.txt.gz
Wind_Speed
66 68 71 72 72 75 77 79 80 82 84 84 85 85 85 84 84 84 85 86 86 85 85 85 84 84 84 83 82 83 82 81 82 82 81 79 80 77 76 76 74 73 74
59 63 65 67 67 68 70 74 74 76 80 80 80 82 81 82 83 83 82 82 84 86 86 86 85 84 83 83 83 82 82 82 82 81 79 79 79 77 75 74 73 73 72
51 54 55 57 60 62 62 64 66 68 71 72 73 73 72 73 74 75 76 76 76 78 79 80 80 79 80 81 81 81 81 79 79 79 77 74 75 74 73 68 68 67 63
44 47 47 50 53 54 54 53 58 59 61 62 62 61 60 61 64 64 65 67 69 71 71 70 71 71 71 71 72 73 72 71 70 66 66 66 64 61 62 58 52 49 43
42 45 43 45 44 43 45 47 50 52 48 47 50 49 44 38 46 55 55 56 59 58 57 58 60 58 59 62 64 64 63 60 55 51 51 49 47 46 46 49 43 49 44
42 43 43 42 38 39 38 38 40 37 36 34 25 22 17 8 8 33 41 47 50 51 46 44 46 47 47 44 44 46 47 51 51 42 43 39 35 33 34 46 32 39 38
38 39 38 38 35 32 35 32 29 24 29 31 33 29 19 4 7 5 28 32 33 30 26 26 29 33 37 35 35 34 35 38 37 38 30 28 29 31 34 32 40 38 39
37 38 35 33 33 31 32 26 25 36 32 33 32 23 15 10 1 5 13 26 29 26 24 21 19 20 22 24 27 25 30 30 36 34 34 32 32 38 34 37 41 46 45
40 35 35 34 30 33 34 28 45 47 43 33 29 28 21 12 3 11 12 16 26 19 16 17 15 21 20 22 27 24 23 24 34 33 44 35 38 33 40 45 41 34 27
36 34 36 34 32 29 37 47 56 54 43 33 32 28 19 14 6 7 5 18 11 16 19 15 17 21 22 26 14 16 25 30 33 30 29 33 33 35 43 43 26 24 24
39 39 39 37 30 32 30 60 60 57 45 35 37 32 33 25 11 11 7 7 12 22 16 18 14 21 34 26 25 31 28 25 26 31 30 27 27 31 39 26 22 25 22
42 36 37 34 27 30 50 59 62 58 42 35 40 33 26 25 18 11 11 13 15 12 18 19 17 23 28 27 21 23 25 23 34 35 35 33 35 34 23 24 21 22 22
40 38 38 39 31 28 41 64 65 64 46 36 37 36 34 31 29 13 11 12 14 13 15 19 25 31 29 23 23 30 22 28 30 29 30 33 33 32 31 31 21 25 21
38 38 37 41 36 27 34 71 69 56 48 34 33 36 35 34 25 16 13 9 11 15 13 19 33 30 31 35 31 27 34 32 33 35 37 34 38 37 31 29 15 16 19
34 34 32 36 36 27 24 61 62 61 58 48 30 40 35 41 26 23 21 7 7 13 18 24 28 30 38 32 34 31 31 32 34 38 42 33 35 37 37 29 27 26 29
31 32 33 33 34 27 28 34 66 63 60 59 42 44 47 41 35 24 27 18 15 14 16 20 32 35 31 31 31 30 34 34 32 25 21 30 37 36 33 34 33 38 43
31 32 30 32 32 29 23 22 34 61 37 38 43 46 50 58 40 29 29 25 22 20 20 19 29 39 33 37 39 36 30 28 25 28 20 35 36 38 37 42 45 48 44
29 31 29 28 29 25 19 24 25 35 28 27 30 50 47 47 37 41 34 29 24 22 24 20 25 29 42 41 41 35 31 26 27 25 26 30 39 40 44 45 50 55 42
27 28 26 30 27 28 21 30 30 29 36 23 29 47 42 43 44 43 41 33 20 22 20 21 21 24 30 35 40 34 30 28 25 25 30 32 35 41 46 45 44 44 48
25 26 26 27 29 28 24 33 34 38 38 37 42 47 47 43 48 44 40 31 25 19 21 24 26 28 28 32 36 33 31 31 30 32 35 36 42 41 40 40 41 43 47
25 25 26 29 29 28 25 33 41 43 46 44 49 50 52 55 49 47 39 32 34 33 29 33 32 32 33 35 36 35 34 31 36 35 37 36 35 38 42 43 45 50 52
24 22 25 29 26 26 25 32 47 52 51 52 57 51 56 57 54 46 42 40 37 39 40 37 34 34 35 41 42 42 38 35 35 37 39 37 39 43 41 43 48 50 52
24 21 23 28 24 28 27 33 42 54 58 55 61 58 56 59 57 52 47 41 41 40 40 41 37 34 38 44 41 45 44 43 40 42 42 46 45 45 44 49 53 56 57
26 23 24 26 27 28 28 27 42 49 57 63 60 64 62 60 54 52 52 49 49 45 48 45 43 40 38 42 45 50 51 48 48 52 53 52 50 47 49 54 57 60 63
27 21 23 22 27 28 25 27 36 45 53 57 69 66 61 58 53 57 60 56 55 50 49 51 51 43 43 47 50 54 56 57 61 62 57 53 55 57 60 62 65 66 67
26 22 23 24 24 26 22 27 28 46 43 50 54 62 62 62 65 62 62 59 55 57 55 55 50 48 48 50 53 54 59 58 60 60 59 59 58 63 63 68 72 73 76

GFSSE_250_spd_111.txt.gz
Wind_Speed
59 59 62 65 67 70 74 78 80 82 85 86 85 84 84 85 88 91 90 90 90 89 88 88 88 88 87 87 87 86 86 84 83 81 81 80 80 80 79 78 77 78 75
52 56 57 59 61 63 68 72 76 77 79 81 82 84 87 89 89 90 91 91 91 91 90 89 88 88 89 88 87 88 88 86 86 84 81 81 81 79 78 75 74 75 74
44 46 49 53 57 59 61 63 68 71 75 78 80 79 80 83 86 88 86 87 89 87 87 89 88 87 88 87 85 84 83 82 82 80 80 78 76 74 73 71 69 67 68
47 46 46 47 49 51 52 55 60 64 66 70 72 73 72 74 75 74 77 78 77 78 80 80 82 79 78 80 80 79 78 76 74 73 73 73 72 70 68 65 61 53 54
48 46 45 45 46 49 48 46 50 56 59 61 62 63 60 60 62 60 63 66 70 69 70 71 72 72 69 69 69 69 68 64 63 62 61 57 54 52 52 52 48 42 40
47 44 40 41 43 44 43 44 46 49 49 49 51 53 51 50 53 54 56 58 63 64 61 59 60 57 56 57 57 56 57 57 57 56 55 53 47 39 33 38 33 32 37
47 43 40 38 39 40 39 40 41 39 34 36 33 33 36 34 29 28 29 36 48 53 53 51 46 44 46 48 46 45 45 44 42 41 44 43 40 39 31 30 31 31 39
49 44 36 35 36 36 35 35 33 22 22 20 23 16 31 29 33 26 7 17 34 41 42 39 34 32 31 32 32 35 38 40 40 37 30 26 25 29 28 24 26 35 39
44 40 38 37 37 35 34 31 28 26 26 32 34 40 40 27 17 17 9 11 17 29 30 27 20 24 26 22 28 30 31 31 33 28 26 32 33 34 25 34 31 35 41
38 39 37 36 37 34 27 30 30 25 42 33 41 44 41 35 30 19 13 11 17 21 23 19 19 16 17 20 23 29 31 26 30 31 21 32 30 32 35 28 28 36 35
40 39 37 33 37 35 31 32 30 44 47 38 41 43 32 30 28 22 19 14 17 16 19 13 13 13 18 23 23 24 25 11 8 21 33 39 39 35 30 25 26 26 23
43 38 35 34 35 32 29 28 31 57 52 45 40 40 34 29 27 21 17 19 17 18 11 15 13 13 18 23 31 32 21 21 27 32 27 31 33 28 30 24 24 25 24
46 39 34 33 36 30 23 25 27 58 59 45 42 42 35 27 25 22 21 16 14 8 7 14 13 11 17 22 32 24 22 21 24 32 32 32 28 26 23 25 33 28 25
45 39 31 34 34 29 24 22 25 61 61 56 39 40 36 30 27 23 22 15 14 7 9 13 13 15 22 28 31 25 26 28 27 35 30 24 23 25 23 27 36 30 24
44 42 32 33 32 29 30 20 25 62 67 55 38 39 39 34 33 24 17 15 12 5 6 12 14 13 14 26 35 23 30 28 24 26 28 27 31 32 38 40 37 35 30
44 39 35 33 31 28 29 21 18 55 69 60 36 36 37 37 32 29 24 15 8 5 4 8 13 19 16 26 28 31 32 30 27 24 26 33 37 35 34 32 38 33 32
42 37 35 31 31 26 25 24 19 33 61 70 59 41 30 29 33 31 26 21 14 9 6 8 12 20 14 25 28 40 36 30 28 27 33 29 25 26 29 34 35 32 37
39 40 37 32 29 26 21 18 22 28 59 72 69 48 40 32 32 36 29 31 20 17 15 10 11 19 17 26 28 31 33 34 28 32 26 28 22 25 31 36 37 38 38
36 40 37 33 27 24 20 19 21 26 30 62 67 62 62 47 49 49 48 36 26 22 19 15 14 14 15 19 20 23 34 39 38 30 29 26 24 28 33 37 39 41 45
37 39 39 32 26 22 22 18 17 25 24 43 54 63 45 46 50 54 53 46 34 27 20 20 18 19 20 22 22 19 25 31 34 33 28 25 24 25 29 33 36 40 41
38 40 36 29 24 21 21 18 17 28 28 29 31 35 29 38 45 48 59 44 39 35 28 21 23 21 24 26 24 25 26 29 28 34 33 30 31 32 30 36 36 38 39
39 37 32 25 21 20 19 20 15 32 33 36 33 33 29 35 40 46 47 47 46 40 32 28 28 28 29 28 32 33 32 33 34 35 35 34 37 35 36 38 39 44 44
40 34 29 22 19 19 21 19 16 30 40 38 40 38 43 44 44 45 51 51 45 39 38 32 31 34 29 29 32 35 40 39 37 41 42 44 43 43 43 44 47 49 48
39 34 28 23 20 22 24 22 17 24 45 45 45 48 49 53 56 53 52 51 47 39 39 36 35 32 32 39 37 41 41 45 42 44 47 49 50 50 52 54 57 57 55
37 35 27 23 19 20 23 23 19 18 44 54 52 53 54 52 59 57 55 57 46 42 43 41 41 46 44 46 45 45 43 50 49 48 51 52 54 57 62 64 61 63 64
37 34 27 22 19 20 23 24 21 20 29 55 59 60 59 58 57 56 57 55 54 50 48 50 49 48 48 52 51 44 46 51 52 55 58 59 60 62 64 68 69 70 71

GFSSE_250_spd_114.txt.gz
Wind_Speed
44 47 48 52 58 62 65 69 72 76 76 78 81 83 84 87 88 89 89 90 89 89 89 89 90 90 89 88 87 86 85 85 83 83 82 82 81 80 80 79 79 77 78
41 41 40 41 45 52 57 63 67 71 74 76 79 81 86 89 92 93 93 92 94 93 93 93 93 93 93 92 91 90 89 89 87 86 86 84 83 82 82 80 78 79 77
45 46 43 45 44 46 49 54 58 64 67 69 71 76 82 87 91 93 93 93 93 94 95 95 94 94 94 94 93 93 92 90 88 87 85 84 83 82 81 78 75 74 73
50 48 45 44 43 45 47 49 52 55 58 60 64 70 72 75 77 83 87 87 87 88 87 89 91 93 95 95 94 92 92 90 89 87 85 83 81 77 75 74 71 66 64
52 48 46 42 40 41 42 45 47 49 51 52 56 60 64 65 67 64 66 69 74 79 79 81 83 83 85 86 86 86 85 82 83 80 79 77 72 67 63 60 58 53 47
48 48 46 43 41 42 45 47 46 45 47 49 49 42 51 51 53 58 56 62 64 64 67 70 71 70 72 73 73 72 72 72 70 68 64 60 56 56 55 50 44 42 37
46 43 45 45 42 42 39 42 43 43 42 40 35 28 25 17 34 38 51 54 59 62 54 57 59 61 63 63 64 62 62 60 57 55 53 53 52 47 43 42 39 32 29
47 39 43 46 45 40 37 38 39 39 34 28 28 29 34 21 31 29 32 43 45 44 41 47 52 53 51 51 51 50 47 45 43 45 43 44 37 35 39 40 26 19 19
45 40 40 45 46 40 36 36 34 34 28 32 30 34 38 30 34 37 37 29 24 29 33 41 40 46 44 39 37 36 36 37 41 41 40 34 30 26 25 24 26 28 19
42 44 38 42 42 41 38 38 32 31 31 29 30 38 41 37 36 37 36 23 13 14 16 23 25 28 25 27 29 33 34 37 37 37 31 29 31 32 36 28 30 30 24
45 42 43 41 42 41 38 37 30 26 29 34 32 40 39 41 42 37 38 22 18 16 16 16 14 17 18 21 25 27 28 27 24 27 31 24 30 35 27 23 23 25 20
45 45 41 41 41 40 35 34 30 26 29 27 32 36 43 41 39 31 28 24 23 20 19 19 17 12 18 16 17 22 23 24 20 21 23 10 18 24 27 34 29 22 29
49 47 42 40 41 38 32 29 29 27 29 22 28 38 40 38 37 28 27 29 25 19 20 20 13 11 9 13 14 19 23 28 22 25 16 26 25 26 30 24 26 22 30
47 47 46 44 40 35 31 28 26 25 25 25 27 36 42 39 30 31 29 22 23 22 16 12 6 7 4 9 12 22 23 31 25 13 18 23 32 28 28 28 26 23 24
49 45 46 48 41 35 31 27 26 23 25 22 25 33 47 42 25 27 25 24 22 18 15 11 6 5 6 6 11 23 30 23 26 23 23 25 27 23 25 27 27 26 26
54 48 46 48 42 34 30 28 26 24 25 20 20 42 41 42 35 28 29 26 22 18 15 13 6 3 10 8 12 17 25 28 21 26 19 14 25 27 28 30 34 34 34
51 47 46 45 42 31 28 27 23 23 21 20 22 38 37 42 43 36 31 25 22 17 16 11 6 2 7 12 13 11 25 27 22 26 26 24 24 27 29 32 27 26 30
49 42 45 43 42 33 27 25 22 21 23 23 32 47 41 34 40 40 34 33 24 19 19 12 9 3 1 4 8 14 15 22 27 28 25 24 24 28 26 25 21 26 35
46 40 44 41 42 33 27 24 23 22 20 28 39 45 47 41 39 35 36 34 31 25 20 15 14 12 8 1 6 10 15 16 19 25 27 28 28 25 22 23 27 32 34
42 39 41 41 41 34 26 25 21 17 18 30 34 46 54 45 36 35 27 36 35 28 22 19 18 14 13 8 8 8 11 12 15 19 25 29 28 28 24 28 33 35 42
40 37 38 41 38 34 26 24 19 13 17 27 25 37 56 66 52 46 40 34 45 42 31 22 19 17 17 14 16 15 14 12 12 14 18 23 27 27 28 29 33 33 36
36 36 39 40 39 32 26 21 18 13 16 25 25 27 35 67 56 57 54 50 48 45 44 43 29 23 20 20 24 20 18 19 16 17 20 26 29 31 35 37 37 39 41
36 35 43 41 38 30 25 22 17 16 17 27 28 27 27 48 50 45 52 50 52 47 45 41 34 30 25 24 29 26 23 28 27 28 26 27 35 37 39 40 42 46 48
33 34 44 40 38 28 25 23 19 16 15 33 31 33 32 37 39 44 51 53 50 42 43 42 39 35 34 28 23 27 30 32 32 32 34 35 36 40 48 49 48 49 52
34 41 44 39 38 28 25 21 18 16 17 34 35 37 39 38 47 53 46 41 42 40 42 45 44 36 36 29 31 35 40 41 39 41 40 39 43 46 53 55 55 53 55
35 46 46 41 37 29 24 22 19 19 16 24 43 43 41 45 48 52 50 50 45 46 42 44 43 41 43 40 38 44 44 43 46 50 51 48 47 52 58 61 63 64 64

GFSSE_250_spd_117.txt.gz
Wind_Speed
43 43 46 47 47 49 54 62 66 67 68 71 73 77 80 82 83 83 83 84 85 85 85 86 86 87 88 88 87 87 87 86 85 84 83 83 82 81 80 80 80 79 79
46 45 44 44 46 47 50 51 54 60 64 67 70 73 77 81 85 86 86 87 88 90 91 92 91 91 91 92 92 92 91 90 90 88 87 86 85 83 82 80 81 80 79
45 46 47 45 44 45 45 49 50 50 53 57 62 66 70 75 79 83 84 86 88 91 92 94 95 94 94 95 96 95 94 93 92 92 90 89 88 87 85 84 84 83 81
43 44 45 46 46 42 40 41 45 46 45 50 51 53 56 61 65 69 74 75 76 81 85 91 92 95 96 96 97 96 95 95 94 94 92 89 88 87 84 81 80 81 79
43 42 42 43 45 44 38 36 36 38 41 43 44 45 48 48 49 50 52 56 63 68 70 76 83 89 92 94 95 95 93 93 92 90 89 87 85 84 81 78 73 71 69
43 42 40 40 43 44 41 33 31 35 38 40 40 39 39 28 19 21 18 37 39 46 55 62 67 72 74 77 79 82 82 82 81 80 81 79 78 75 70 66 61 57 48
35 36 38 39 40 41 41 33 28 34 36 37 38 33 32 34 27 31 24 37 41 42 50 52 54 60 64 63 64 67 68 69 70 69 67 68 64 61 55 54 52 47 42
31 32 35 36 36 39 38 35 27 32 33 35 35 31 34 38 43 36 35 40 35 35 44 49 54 55 57 53 52 55 60 61 59 58 58 56 53 53 48 43 42 42 37
38 33 31 34 40 38 39 36 27 28 34 35 37 32 31 38 47 48 48 40 34 36 35 39 39 44 49 45 45 48 46 47 47 48 49 49 47 44 39 36 36 33 31
42 42 39 37 40 41 40 37 29 28 34 34 37 36 32 40 56 53 52 45 47 38 40 35 36 36 38 42 42 40 38 38 42 43 42 42 43 38 34 31 30 20 29
46 45 45 40 42 43 43 39 30 25 33 28 33 30 31 39 48 55 55 53 40 38 35 26 25 24 28 32 30 30 33 34 35 36 38 35 30 30 25 21 26 26 28
47 48 48 45 44 44 42 39 31 26 27 27 28 27 27 38 49 50 43 41 33 33 20 17 15 19 21 19 21 28 33 30 31 33 29 26 25 28 25 31 28 24 22
49 48 49 51 46 44 40 40 29 26 27 23 26 21 26 34 39 50 37 36 32 27 27 19 14 15 14 16 20 20 17 21 23 19 22 21 14 12 24 24 28 25 19
52 51 52 52 43 46 40 40 31 24 27 20 23 22 28 31 34 33 35 35 38 25 23 17 16 13 14 14 13 16 15 18 23 24 28 26 26 20 22 19 22 23 23
53 57 55 52 47 45 41 36 32 25 25 21 23 22 28 31 30 35 35 32 32 31 26 20 17 13 9 9 9 11 16 23 23 24 17 19 16 24 29 22 25 26 28
55 57 56 49 48 43 39 35 32 27 24 21 22 23 33 32 35 43 42 35 31 30 26 25 17 12 8 9 8 6 13 15 23 19 16 16 17 21 24 25 25 28 28
55 59 58 52 47 42 38 33 31 27 22 20 20 25 31 34 42 36 36 31 31 30 26 23 20 14 10 9 5 7 5 15 17 18 21 22 18 18 18 22 27 26 27
57 59 55 53 46 41 36 31 31 25 21 20 23 24 32 34 49 40 33 33 30 29 30 25 18 13 11 11 5 5 8 14 16 21 18 23 21 20 19 25 24 26 26
58 60 58 55 43 40 34 31 32 24 20 21 25 25 32 39 52 45 40 33 30 30 28 23 22 18 11 12 9 4 11 12 15 17 21 25 25 25 22 25 23 23 21
61 60 60 52 41 39 33 32 33 26 20 22 26 31 32 42 53 51 41 36 35 32 28 26 22 17 14 13 10 6 8 6 7 9 12 15 23 28 24 26 25 23 25
63 60 56 48 40 38 34 34 33 25 19 21 25 31 27 43 47 47 50 48 36 39 34 31 27 22 17 19 12 9 8 8 7 7 6 9 12 15 21 25 28 27 31
61 61 57 43 37 35 35 36 32 25 19 21 24 31 31 45 47 49 47 43 35 43 38 36 27 22 24 20 19 15 15 14 14 7 11 12 15 15 21 25 30 34 34
62 60 57 36 35 34 37 37 30 26 18 22 25 31 26 48 51 44 48 42 35 41 42 42 38 34 33 26 24 22 21 23 20 16 15 18 17 20 24 24 30 38 44
60 60 49 32 35 36 39 37 31 25 22 22 30 32 28 39 49 54 50 48 44 48 40 44 44 41 37 32 32 28 26 21 21 28 24 24 26 26 30 32 32 40 46
59 57 41 32 38 41 42 37 34 26 21 22 27 36 31 33 40 50 59 53 54 48 47 41 44 45 40 35 35 34 31 26 27 29 33 34 34 34 37 41 41 45 53
56 58 34 34 41 43 42 37 35 25 22 19 27 36 34 35 36 50 56 51 53 52 52 46 44 38 36 37 37 33 36 33 31 36 41 40 42 41 42 45 48 52 56

GFSSE_250_spd_120.txt.gz
Wind_Speed
49 49 49 51 52 54 56 58 59 62 66 69 71 75 76 77 77 78 78 80 81 81 80 81 82 82 83 82 83 82 83 84 84 83 84 85 83 83 83 82 81 81 80
48 48 48 51 51 54 53 54 56 59 59 61 67 72 74 77 78 79 81 82 82 83 84 86 85 86 86 88 88 88 89 89 89 88 88 88 88 88 86 84 83 81 80
47 44 44 46 49 51 52 54 57 56 58 60 62 62 66 70 75 77 76 74 77 79 85 88 89 90 90 90 91 92 92 91 92 92 91 90 90 88 87 86 85 84 83
45 43 41 41 42 46 49 49 52 52 53 56 58 60 60 59 59 60 63 64 63 64 70 72 80 87 91 89 91 92 95 95 93 92 93 93 91 88 86 85 84 82 82
42 41 39 39 40 42 45 45 46 44 45 47 51 54 53 51 47 40 42 44 46 50 53 58 65 67 76 86 89 89 88 91 89 90 91 90 88 87 85 84 83 80 77
39 37 36 36 35 38 39 43 43 41 40 40 42 42 41 37 33 19 19 14 21 29 38 44 46 60 67 68 71 75 79 79 80 80 77 78 78 77 77 73 70 65 63
38 36 35 33 35 37 38 38 41 41 37 36 34 33 30 32 32 28 38 25 31 25 39 44 46 49 57 59 61 62 66 65 66 65 66 66 65 63 60 60 56 52 52
45 34 33 36 33 36 37 40 39 39 37 35 33 29 27 30 34 49 44 42 38 36 52 49 49 49 51 50 50 51 55 59 57 55 57 55 54 52 53 50 50 49 46
47 44 42 38 35 35 38 40 42 40 38 34 31 31 31 26 33 47 47 47 45 51 56 52 54 51 46 46 50 48 50 51 51 49 50 51 49 48 47 48 48 45 41
48 47 45 41 38 35 34 38 40 44 38 36 32 30 32 28 36 51 49 52 54 56 58 52 47 48 43 41 42 45 47 49 45 44 43 45 45 43 43 41 38 35 31
48 47 46 43 42 40 37 38 42 41 39 36 32 30 31 30 34 47 54 56 56 59 60 54 49 48 46 40 35 40 44 40 36 37 37 36 38 39 38 36 34 27 18
50 49 47 47 44 41 41 37 43 39 37 34 34 30 31 29 33 42 48 59 55 57 56 53 44 40 32 32 33 38 38 33 33 37 35 33 35 35 34 32 20 25 28
52 51 53 51 48 41 42 39 42 38 34 31 34 30 28 29 28 32 44 50 57 54 53 50 36 25 22 22 24 28 27 27 29 30 29 26 27 27 26 23 29 23 30
56 56 53 49 46 39 43 40 42 36 34 30 31 27 26 26 28 34 34 50 49 45 35 32 28 20 15 16 19 23 25 19 19 18 16 19 19 19 21 11 26 32 31
57 56 54 53 54 42 44 42 39 33 33 31 32 26 28 25 31 34 28 31 48 40 31 29 23 18 16 17 14 21 23 17 16 18 19 21 23 22 16 17 20 20 22
59 58 57 58 58 48 45 45 42 30 32 32 31 29 29 29 30 33 27 29 35 39 38 31 23 19 15 15 15 16 17 19 26 23 21 24 21 23 19 22 28 23 25
59 61 61 61 58 45 49 46 42 30 30 34 33 29 29 31 32 33 30 36 37 39 39 34 28 22 18 16 15 14 15 12 16 19 19 20 21 20 14 20 24 25 27
59 63 63 64 61 47 51 44 41 30 29 34 33 29 28 33 36 34 36 40 43 38 38 32 30 24 20 16 13 12 11 11 17 16 16 16 18 19 18 17 20 19 20
60 64 67 62 59 50 52 47 39 30 30 34 34 27 28 34 34 33 42 44 41 38 35 34 31 25 20 20 13 10 9 13 13 18 21 21 22 26 25 23 24 24 19
66 67 67 60 61 53 52 46 35 29 32 34 30 26 29 33 30 37 44 44 39 37 34 34 33 25 23 20 16 12 9 14 20 21 17 21 16 19 25 27 25 23 23
67 66 66 61 57 51 51 44 31 28 34 34 30 28 29 36 31 44 49 45 39 35 35 40 35 26 27 24 19 18 15 13 12 10 9 9 11 12 13 17 19 22 23
69 67 67 59 56 53 49 40 30 29 35 34 31 28 28 30 31 47 52 47 40 38 39 39 32 29 27 27 23 16 18 16 15 16 15 11 11 10 12 13 14 18 19
67 65 65 64 55 52 48 39 32 33 37 35 29 30 28 28 34 48 55 49 46 40 42 39 35 32 32 28 25 23 23 20 14 16 18 16 17 14 15 18 17 20 21
66 59 60 59 54 56 47 38 33 36 39 35 29 31 25 31 35 45 52 57 48 46 44 42 43 38 37 34 34 29 27 24 21 22 25 28 25 23 21 25 27 27 28
60 58 56 57 53 53 46 36 34 37 39 34 29 29 23 33 34 39 56 56 56 57 48 43 45 45 41 38 36 34 34 34 29 24 26 29 31 32 32 35 34 33 33
61 55 54 54 50 51 42 35 37 38 38 32 32 30 24 34 32 34 56 58 53 52 45 42 42 47 46 44 40 40 39 40 36 36 32 33 34 36 40 41 37 41 41

GFSSE_250_spd_126.txt.gz
Wind_Speed
50 50 51 53 52 53 53 54 54 55 56 58 60 62 63 65 67 68 70 71 71 72 70 73 74 74 73 75 76 74 76 77 75 74 75 74 74 76 77 76 75 78 78
47 48 47 49 52 51 51 52 51 51 51 53 57 58 61 61 63 66 66 66 68 70 69 66 71 77 78 79 80 80 81 79 79 80 80 80 80 81 81 80 81 82 83
44 43 45 48 48 50 49 48 48 49 48 50 54 55 57 58 61 59 60 59 54 53 48 47 57 65 72 75 81 81 83 80 84 82 84 84 83 83 83 84 85 85 85
42 44 44 45 48 46 44 43 43 41 42 44 48 52 55 55 55 54 56 56 44 28 26 33 37 42 53 62 68 75 81 84 85 85 87 90 88 88 87 86 85 83 82
43 45 45 45 46 46 43 43 42 42 40 40 43 48 50 51 52 47 48 46 40 22 32 29 30 33 35 48 57 59 65 72 72 75 79 82 83 85 86 83 80 79 76
45 46 47 49 45 43 43 42 39 38 34 35 38 40 43 45 47 45 42 37 49 50 38 19 33 32 42 40 42 45 53 56 63 64 70 68 68 69 70 72 73 68 67
46 48 47 49 50 45 45 45 42 42 41 39 38 36 39 40 43 41 38 39 38 36 35 43 45 41 41 41 43 42 44 42 47 54 58 59 64 64 63 58 57 55 52
45 48 49 49 49 50 49 48 49 45 46 44 41 40 38 34 38 38 40 43 48 41 44 53 56 53 42 45 47 47 46 47 43 48 50 51 53 52 54 51 52 47 44
43 47 49 49 49 43 48 51 52 50 52 47 46 40 40 34 32 38 40 49 57 52 48 53 52 52 54 49 54 52 45 44 41 41 38 40 42 45 47 44 45 42 39
47 44 46 48 42 48 49 51 55 52 53 50 46 44 40 32 32 36 39 50 59 53 53 50 53 52 51 59 58 52 45 38 36 41 40 46 48 46 44 41 41 38 38
46 47 47 45 42 44 51 53 53 58 55 53 53 45 42 35 34 35 40 49 59 54 55 56 58 60 60 64 69 61 45 44 40 51 46 54 45 44 42 38 38 38 39
48 46 49 50 47 45 50 51 55 60 58 58 55 42 46 38 35 35 39 39 53 60 59 58 51 63 60 65 67 64 58 59 47 50 52 49 39 39 36 33 36 36 34
51 48 50 48 50 48 51 55 57 54 63 62 56 44 49 42 37 34 38 37 40 44 61 64 56 58 64 63 66 60 62 59 57 48 41 32 33 33 31 33 32 32 27
49 50 54 50 54 47 49 56 55 62 64 59 64 50 52 41 36 35 39 35 32 35 44 59 53 54 62 65 59 57 58 48 52 36 28 28 28 27 30 27 25 24 22
55 50 50 54 54 44 50 55 61 62 63 61 61 49 55 43 36 35 41 36 32 31 34 42 56 60 59 63 60 58 49 40 31 21 18 21 22 25 25 22 20 19 16
61 60 52 51 54 51 51 55 63 64 60 59 60 55 54 43 37 36 42 38 30 27 31 30 34 40 46 48 53 44 32 26 25 15 13 16 18 17 14 15 16 19 15
66 58 56 50 49 55 56 58 63 61 60 62 64 59 53 43 36 36 40 35 28 29 27 29 26 29 35 38 30 29 25 28 23 18 19 18 17 16 18 18 22 21 17
51 50 46 49 54 58 59 48 54 57 56 62 64 61 52 42 34 37 43 35 31 28 29 30 26 21 29 34 29 27 28 23 23 25 21 20 18 13 19 22 23 20 21
66 63 64 61 57 53 43 46 55 57 62 67 65 60 53 41 34 37 43 35 31 31 35 33 29 20 32 33 33 27 25 19 18 23 23 19 19 17 15 15 19 14 17
63 61 57 56 56 46 50 54 55 62 68 64 62 61 55 40 35 37 44 36 32 34 37 36 34 37 33 35 32 27 23 22 17 22 21 18 16 16 15 17 15 19 23
58 60 56 56 54 53 49 50 48 56 66 61 63 60 49 40 35 37 43 37 33 33 38 40 40 36 41 36 34 29 25 26 22 23 20 18 19 14 18 18 20 22 23
66 60 57 59 56 52 51 48 51 57 57 61 65 53 45 40 34 37 42 38 33 33 36 39 44 44 43 38 33 33 29 27 27 25 20 21 20 18 17 23 23 22 19
64 61 62 62 60 57 56 55 49 55 59 60 62 55 43 38 35 39 42 36 34 36 38 38 45 40 40 39 36 39 35 32 30 26 23 23 23 21 20 18 18 18 15
62 65 63 64 64 62 62 54 52 55 60 60 62 57 47 37 37 41 41 36 37 34 37 38 45 42 41 36 37 42 39 34 29 26 25 22 21 21 18 19 18 17 17
60 65 64 65 65 64 66 55 51 56 55 56 61 56 43 36 38 42 39 35 35 33 37 39 44 43 42 38 39 42 39 35 31 27 27 26 25 26 25 24 25 26 29
70 68 66 65 63 64 67 57 54 61 59 61 58 52 40 36 38 44 39 37 34 31 34 40 42 45 43 39 43 42 41 37 32 33 30 32 33 31 30 31 33 33 32

GFSSE_250_spd_132.txt.gz
Wind_Speed
60 56 52 50 49 47 46 43 43 42 42 41 41 42 42 42 43 46 49 52 54 53 56 57 60 57 64 67 69 67 67 71 72 69 70 70 66 65 71 70 70 71 69
54 50 48 47 45 41 40 39 39 39 41 41 41 40 40 39 40 40 41 45 48 49 49 49 47 48 53 57 57 54 57 62 68 73 71 73 74 75 73 69 67 69 67
47 46 45 40 39 39 38 36 37 39 40 39 38 39 40 40 37 35 37 40 44 46 48 49 46 41 38 43 48 45 51 59 63 70 74 73 73 74 71 71 69 71 72
46 44 42 40 40 40 41 39 37 37 40 38 34 33 36 38 36 34 36 36 38 42 45 43 45 47 47 44 62 53 51 57 62 68 72 71 72 76 76 76 79 79 76
44 43 42 40 40 39 41 42 41 38 36 34 36 38 32 31 31 31 34 36 39 38 40 40 42 48 52 51 49 56 61 53 55 58 65 69 71 68 66 69 74 75 78
44 42 40 38 39 39 40 42 44 42 35 33 37 42 37 33 31 32 34 35 37 39 39 41 46 49 49 51 52 56 58 56 50 45 49 56 59 59 59 58 59 62 64
38 40 37 37 39 40 41 43 43 43 39 37 38 44 40 41 38 36 37 37 35 39 41 40 45 53 47 50 55 58 58 53 46 45 40 42 46 47 48 51 53 54 54
37 37 35 38 40 41 43 43 42 40 39 38 40 43 43 45 40 42 39 39 40 36 42 42 49 54 51 51 53 54 62 54 53 46 42 37 37 37 39 42 41 41 37
42 36 33 39 41 41 44 44 41 39 41 41 38 42 46 43 41 43 41 40 43 41 41 42 46 59 52 58 51 53 57 53 53 51 45 41 42 39 40 38 35 32 36
49 46 39 41 41 43 44 44 43 42 43 43 42 39 41 43 43 46 41 39 44 44 40 40 42 56 54 51 49 55 54 56 51 47 48 44 40 33 34 32 38 38 43
54 56 45 46 43 44 45 42 41 42 45 44 41 41 40 45 45 48 44 41 45 45 42 35 40 53 59 53 51 51 57 58 56 49 44 47 45 37 35 37 42 48 49
55 57 55 54 43 45 46 44 42 45 44 45 45 45 42 47 47 49 45 43 48 47 42 34 35 48 57 59 58 57 57 58 57 55 52 50 49 48 46 49 53 52 48
57 58 64 61 54 53 49 48 46 45 44 42 44 46 45 51 51 50 47 44 52 49 43 37 32 45 54 56 42 51 55 61 59 59 57 57 53 52 53 49 49 56 47
58 60 62 65 57 58 52 48 47 49 46 47 50 46 45 49 48 52 50 47 53 52 44 36 31 35 44 48 35 33 42 57 60 55 58 58 60 60 52 46 52 45 43
56 56 58 58 54 54 53 50 51 52 47 47 46 43 44 45 51 56 48 48 56 50 45 35 30 33 39 37 35 36 35 36 44 47 53 56 54 52 49 49 52 41 32
55 58 58 58 57 58 52 51 54 52 49 47 42 45 46 48 56 50 45 48 52 49 42 33 29 32 31 36 37 37 32 34 34 44 44 36 35 44 45 43 37 31 26
56 59 61 57 57 56 54 56 55 53 50 45 48 48 49 54 49 48 46 47 45 46 38 28 28 31 30 33 32 29 29 34 28 31 31 35 40 47 44 33 31 26 23
72 62 59 58 58 55 57 59 57 57 48 49 50 46 53 46 46 45 48 43 37 45 37 24 26 31 32 27 29 27 26 31 29 31 26 26 25 35 35 29 26 23 20
74 69 64 60 58 55 54 55 64 51 51 51 49 50 47 47 44 42 43 40 44 47 37 28 30 31 32 28 27 29 28 32 25 21 21 23 24 27 27 24 20 20 21
79 79 74 68 62 58 58 56 55 52 54 54 53 49 46 43 42 43 40 40 43 46 34 26 32 35 33 31 27 28 27 30 27 19 24 23 24 26 25 23 21 21 26
82 80 77 72 66 61 63 63 61 61 58 57 52 49 47 45 45 43 38 36 42 45 32 28 34 35 34 34 34 34 33 35 32 23 23 24 24 26 25 25 23 23 21
86 83 79 74 70 66 67 64 64 64 59 57 54 52 46 45 48 44 42 38 41 44 36 32 37 38 35 35 37 39 33 29 30 23 24 25 24 26 27 25 24 27 26
85 84 82 77 72 71 68 65 66 66 64 57 56 52 46 45 46 44 43 42 43 41 37 32 36 43 39 35 38 36 32 32 29 27 27 24 27 28 26 28 24 26 28
84 85 82 78 75 74 70 66 63 63 64 64 59 54 46 46 49 47 45 45 44 42 36 32 35 41 42 38 39 44 38 38 32 29 29 25 31 32 30 25 26 27 28
75 74 76 77 74 76 73 69 64 59 60 62 61 59 51 48 48 48 47 45 45 43 34 31 33 39 43 40 38 44 46 38 39 37 31 31 37 37 33 31 30 28 29
70 65 68 69 73 75 75 72 66 60 54 56 57 58 51 46 46 49 47 46 46 42 37 32 38 39 41 41 40 44 51 39 41 41 34 37 41 38 36 32 33 33 36

GFSSE_250_spd_135.txt.gz
Wind_Speed
67 65 64 63 60 58 54 53 50 47 46 45 45 45 43 42 40 38 38 40 44 47 51 54 56 56 55 59 58 61 66 61 60 54 51 59 65 70 66 74 76 74 72
65 64 62 60 55 52 50 47 45 42 42 43 42 43 41 40 40 39 39 36 35 37 44 47 49 51 48 49 54 57 59 62 61 52 58 57 57 65 70 75 70 69 70
62 58 54 52 49 47 47 45 43 41 39 39 39 42 39 36 36 36 37 39 37 36 37 37 43 46 48 47 47 51 51 56 61 74 76 66 68 66 66 67 73 74 75
54 50 48 48 46 46 46 45 42 40 38 36 36 37 37 34 34 32 34 34 38 36 39 36 36 42 43 48 52 52 51 51 51 54 62 70 74 76 74 72 75 74 73
48 47 47 46 47 47 45 42 40 40 40 38 37 34 35 36 35 31 31 33 34 35 37 37 37 37 37 45 49 50 48 52 60 63 64 69 72 71 68 68 68 69 71
45 47 45 43 43 42 43 40 40 41 41 39 36 34 34 36 34 34 34 32 33 34 35 34 36 35 35 43 47 49 49 50 54 59 60 68 67 65 66 66 65 64 64
43 43 43 43 42 41 41 42 41 42 41 39 34 33 33 35 36 37 36 32 34 34 36 36 35 33 34 47 52 52 54 53 54 57 62 59 64 60 60 61 61 58 58
44 44 45 43 40 40 40 41 43 43 41 40 38 36 35 35 34 35 35 36 38 36 38 37 37 38 32 47 55 58 56 57 56 55 57 53 52 50 47 48 51 54 53
45 45 44 43 42 43 45 45 45 44 42 40 38 39 37 33 35 37 41 37 38 37 40 40 38 33 33 38 56 54 54 55 54 56 58 57 51 47 35 38 40 40 40
50 49 48 44 45 47 49 47 48 48 45 41 39 40 41 36 36 38 42 37 43 39 44 43 39 35 31 30 57 57 52 55 52 51 54 54 44 40 44 40 41 41 38
54 56 54 50 48 49 50 48 51 52 51 45 44 44 43 39 39 39 40 39 43 44 50 47 41 38 31 33 40 63 55 56 56 55 55 49 47 49 46 35 35 35 36
56 56 57 58 58 57 54 50 51 55 55 52 49 47 45 44 46 42 39 41 45 49 51 48 44 40 33 31 35 51 62 54 53 56 53 50 49 53 48 44 40 41 46
55 58 59 62 64 65 62 56 54 55 57 54 51 48 49 48 47 40 40 43 49 48 46 46 46 38 32 29 32 37 52 58 54 49 51 55 54 54 54 53 49 50 47
45 53 58 62 62 63 61 58 57 53 51 51 52 50 52 50 48 41 42 48 50 48 45 47 46 39 31 27 29 29 32 43 50 42 41 51 56 58 58 55 57 56 48
54 54 53 55 58 60 61 59 57 52 48 50 50 50 51 50 48 42 41 48 44 45 43 43 43 38 28 26 25 26 32 31 41 33 34 41 46 54 55 55 49 47 43
58 60 60 58 57 55 56 59 62 59 54 52 51 51 49 49 47 47 46 47 43 39 38 37 42 36 28 24 24 24 28 29 35 29 30 35 36 39 40 43 50 47 51
66 65 64 63 60 61 62 59 61 62 57 55 53 52 48 49 46 51 51 46 42 37 37 38 41 35 27 25 23 23 23 27 32 27 30 31 32 32 36 36 40 37 38
73 69 66 65 64 65 64 61 59 58 60 57 55 53 51 49 45 47 49 46 38 36 36 33 39 33 27 26 22 23 21 29 33 29 31 27 28 30 34 30 29 31 28
80 79 77 72 68 70 69 65 62 57 58 58 55 52 51 43 45 45 47 42 37 36 36 33 41 34 26 28 24 23 21 30 30 28 29 27 27 27 26 25 26 27 24
89 87 85 80 75 73 73 69 67 64 59 58 53 46 44 44 47 46 45 40 38 35 37 35 38 31 28 31 27 24 23 30 32 27 30 24 22 23 25 26 27 22 19
79 80 77 83 84 81 77 74 68 68 63 61 54 56 51 50 52 46 44 39 37 35 36 31 38 36 33 34 34 27 26 30 30 25 31 28 23 23 24 27 23 22 19
82 76 74 78 81 79 78 77 72 73 69 66 62 58 54 55 51 47 44 39 38 39 35 33 41 43 34 34 38 31 29 34 33 32 32 35 25 22 25 26 25 23 23
85 78 76 75 74 78 79 75 78 76 74 71 69 64 63 58 51 48 46 40 38 37 36 36 40 42 33 32 39 35 30 36 37 33 29 33 30 22 24 25 26 26 26
85 78 76 79 79 77 80 80 80 79 75 75 72 69 62 59 55 51 48 49 43 38 36 39 40 41 37 32 42 38 36 34 35 35 32 29 21 22 24 26 28 27 27
80 76 76 78 82 81 77 80 84 85 77 74 70 69 64 58 54 53 53 52 48 45 42 41 40 40 39 34 38 44 38 37 42 36 34 34 26 25 28 32 30 29 30
74 70 73 77 78 81 79 77 82 84 79 69 65 64 63 56 54 53 53 51 48 47 43 42 44 39 39 36 37 42 41 38 37 47 42 38 32 30 29 31 33 32 33

GFSSE_250_spd_138.txt.gz
Wind_Speed
66 66 67 68 66 66 64 61 56 55 53 53 51 51 51 49 47 44 43 41 40 42 46 48 50 51 52 58 62 68 67 64 60 56 58 36 46 59 60 69 70 71 72
67 68 68 67 66 64 60 55 50 50 48 48 47 46 47 46 43 41 38 38 38 36 36 40 42 45 48 51 55 59 62 62 54 51 55 60 46 45 60 62 71 72 71
69 69 67 67 63 57 54 50 48 45 46 45 42 41 41 43 39 37 37 37 35 37 34 35 38 41 41 49 52 52 53 57 54 52 62 59 67 68 66 63 65 70 73
64 63 60 55 54 49 47 46 46 45 44 43 39 38 39 38 37 36 34 32 32 34 35 37 36 39 42 42 44 47 48 52 47 51 61 69 75 78 71 63 69 66 68
53 50 47 48 47 46 46 45 46 45 44 41 39 37 35 36 36 35 35 32 31 32 35 36 37 37 40 41 42 41 44 51 49 51 58 63 62 63 65 66 65 65 62
42 41 44 47 47 45 46 45 45 45 41 39 38 37 35 36 37 36 34 31 30 31 34 35 38 38 40 38 39 41 40 44 49 51 59 62 60 65 62 66 66 68 64
36 37 44 47 47 46 44 44 42 42 39 38 38 38 37 37 34 34 33 31 33 33 35 35 36 38 40 40 38 37 40 45 44 46 50 55 59 56 62 61 67 64 65
37 37 42 48 48 45 43 42 43 43 42 41 42 41 38 37 34 33 32 35 36 34 35 33 35 40 40 38 37 36 39 48 50 48 50 54 61 61 54 56 55 53 58
39 41 43 46 46 45 44 45 47 47 45 45 44 42 41 38 40 35 34 36 40 39 36 34 38 43 43 39 34 31 35 45 57 55 54 53 49 54 56 56 52 51 46
41 43 45 47 47 47 47 49 49 48 48 47 45 42 45 44 42 39 37 38 42 39 38 39 42 45 46 39 36 28 33 46 51 59 56 56 52 51 49 47 42 44 44
44 46 48 50 52 51 50 51 53 52 53 53 51 49 48 49 47 42 40 40 43 41 42 45 45 45 42 39 36 30 32 42 52 48 50 55 53 53 47 47 41 40 36
40 47 49 50 50 53 52 53 56 56 55 56 56 54 53 53 48 43 43 41 42 41 42 48 44 43 44 40 32 27 29 38 52 49 47 48 51 49 50 47 43 42 37
40 43 47 48 53 54 55 57 58 59 58 56 53 51 52 52 46 43 46 44 42 43 41 48 41 41 41 40 32 27 28 34 44 54 49 48 50 53 49 48 45 40 44
52 52 49 50 48 51 51 51 51 50 50 49 50 49 49 51 49 45 48 46 42 43 45 46 40 39 40 42 33 25 22 28 32 36 46 50 45 47 49 49 48 50 46
56 59 54 55 57 56 55 55 54 53 50 45 43 47 51 50 47 48 49 47 44 44 45 48 38 35 37 39 30 25 19 23 25 29 27 30 33 39 41 46 45 45 42
56 59 60 60 61 64 61 61 60 57 55 52 47 49 50 50 46 49 51 47 44 43 44 46 36 31 34 34 26 23 21 21 25 29 31 29 31 34 35 33 33 34 36
57 59 59 60 62 62 68 68 67 64 60 57 53 49 50 50 47 48 49 48 45 45 42 41 36 30 34 30 28 22 22 19 24 29 28 28 31 32 30 30 32 33 34
66 65 65 67 66 67 68 74 73 71 67 61 58 52 52 48 48 47 49 47 46 40 38 39 35 30 28 32 33 21 21 18 23 25 21 28 33 32 29 30 30 30 33
74 73 73 73 74 78 78 79 79 77 73 69 62 59 54 49 49 47 46 48 44 36 36 36 33 31 27 29 35 28 21 21 25 25 22 24 28 27 24 27 31 27 23
82 81 77 76 78 80 83 82 85 84 79 76 69 64 60 54 51 46 42 43 41 39 36 32 31 32 24 30 35 33 24 25 25 29 23 28 29 30 26 25 24 23 23
83 78 73 69 69 71 72 73 79 84 83 80 73 67 64 59 56 52 49 49 45 44 36 31 30 32 24 33 38 36 32 29 30 29 24 30 30 31 26 22 24 26 24
84 78 70 68 71 69 73 73 71 76 81 78 76 72 71 65 62 57 52 49 45 41 34 32 27 25 31 32 36 37 33 31 31 30 29 30 29 30 32 25 22 26 24
87 87 85 79 78 77 73 74 69 70 71 79 77 80 73 69 63 58 50 54 51 46 38 35 29 31 36 32 36 34 33 32 32 32 32 31 29 30 32 27 23 26 27
91 90 90 86 82 80 76 71 68 68 73 80 84 83 75 68 71 64 57 55 56 51 45 39 34 33 35 37 39 36 33 34 33 33 37 39 36 31 25 29 24 23 28
88 92 90 85 83 80 74 70 65 62 78 82 88 85 83 62 70 70 61 61 56 51 50 46 39 40 39 39 38 36 36 34 37 36 34 37 37 36 25 24 23 22 26
87 89 87 84 81 75 66 68 67 77 75 74 78 84 85 91 66 69 67 62 59 56 52 49 42 41 42 37 35 39 36 33 37 40 37 35 38 32 30 28 22 23 28